[[{"header":{"parameterUnit":"m.s-1","parameterCategory":1,"la1":31.0,"la2":29.5877,"lo1":-88.7671,"lo2":-86.6584,"dy":0.0162,"dx":0.0185,"nx":115,"ny":88,"refTime":"2026-03-23T00:00:00:Z","depth":0,"parameterNumber":2,"parameterNumberName":"U-component_of_WINDS"},"data":[0.0,0.0,0.0,0.0,0.0,0.0,0.0,0.0,0.0,0.0,0.0,0.0,0.0,0.0,0.0,0.0,0.0,0.0,0.0,0.0,0.0,0.0,0.0,0.0,0.0,0.0,0.0,0.0,0.0,0.0,0.0,0.0,0.0,0.0,0.0,0.0,0.0,0.0,0.0,0.0,0.0,0.0,0.0,0.0,0.0,0.0,0.0,0.0,0.0,0.0,0.0,0.0,0.0,0.0,0.0,0.0,0.0,0.0,0.0,0.0,0.0,0.0,0.0,0.0,0.0,0.0,0.0,0.0,0.0,0.0,0.0,0.0,0.0,0.0,0.0,0.0,0.0,0.0,0.0,0.0,0.0,0.0,0.0,0.0,0.0,0.0,0.0,0.0,0.0,0.0,0.0,0.0,0.0,0.0,0.0,0.0,0.0,0.0,0.0,0.0,0.0,0.0,0.0,0.0,0.0,0.0,0.0,0.0,0.0,0.0,0.0,0.0,0.0,0.0,0.0,0.0,0.0,0.0,0.0,0.0,0.0,0.0,0.0,0.0,0.0,0.0,0.0,0.0,0.0,0.0,0.0,0.0,0.0,0.0,0.0,0.0,0.0,0.0,0.0,0.0,0.0,0.0,0.0,0.0,0.0,0.0,0.0,0.0,0.0,0.0,0.0,0.0,0.0,0.0,0.0,0.0,0.0,0.0,0.0,0.0,0.0,0.0,0.0,0.0,0.0,0.0,0.0,0.0,0.0,0.0,0.0,0.0,0.0,0.0,0.0,0.0,0.0,0.0,0.0,0.0,0.0,0.0,0.0,0.0,0.0,0.0,0.0,0.0,0.0,0.0,0.0,0.0,0.0,0.0,0.0,0.0,0.0,0.0,0.0,0.0,0.0,0.0,0.0,0.0,0.0,0.0,0.0,0.0,0.0,0.0,0.0,0.0,0.0,0.0,0.0,0.0,0.0,0.0,0.0,0.0,0.0,0.0,0.0,0.0,0.0,0.0,0.0,0.0,0.0,0.0,0.0,0.0,0.0,0.0,0.0,0.0,0.0,0.0,0.0,0.0,0.0,0.0,0.0,0.0,0.0,0.0,0.0,0.0,0.0,0.0,0.0,0.0,0.0,0.0,0.0,0.0,0.0,0.0,0.0,0.0,0.0,0.0,0.0,0.0,0.0,0.0,0.0,0.0,0.0,0.0,0.0,0.0,0.0,0.0,0.0,0.0,0.0,0.0,0.0,0.0,0.0,0.0,0.0,0.0,0.0,0.0,0.0,0.0,0.0,0.0,0.0,0.0,0.0,0.0,0.0,0.0,0.0,0.0,0.0,0.0,0.0,0.0,0.0,0.0,0.0,0.0,0.0,0.0,0.0,0.0,0.0,0.0,0.0,0.0,0.0,0.0,0.0,0.0,0.0,0.0,0.0,0.0,0.0,0.0,0.0,0.0,0.0,0.0,0.0,0.0,0.0,0.0,0.0,0.0,0.0,0.0,0.0,0.0,0.0,0.0,0.0,0.0,0.0,0.0,0.0,0.0,0.0,0.0,0.0,0.0,0.0,0.0,0.0,0.0,0.0,0.0,0.0,0.0,0.0,0.0,0.0,0.0,0.0,0.0,0.0,0.0,0.0,0.0,0.0,0.0,0.0,0.0,0.0,0.0,0.0,0.0,0.0,0.0,0.0,0.0,0.0,0.0,0.0,0.0,0.0,0.0,0.0,0.0,0.0,0.0,0.0,0.0,0.0,0.0,0.0,0.0,0.0,0.0,0.0,0.0,0.0,0.0,0.0,0.0,0.0,0.0,0.0,0.0,0.0,0.0,0.0,0.0,0.0,0.0,0.0,0.0,0.0,0.0,0.0,0.0,0.0,0.0,0.0,0.0,0.0,0.0,0.0,0.0,0.0,0.0,0.0,0.0,0.0,0.0,0.0,0.0,0.0,0.0,0.0,0.0,0.0,0.0,0.0,0.0,0.0,0.0,0.0,0.0,0.0,0.0,0.0,0.0,0.0,0.0,0.0,0.0,0.0,0.0,0.0,0.0,0.0,0.0,0.0,0.0,0.0,0.0,0.0,0.0,0.0,0.0,0.0,0.0,0.0,0.0,0.0,0.0,0.0,0.0,0.0,0.0,0.0,0.0,0.0,0.0,0.0,0.0,0.0,0.0,0.0,0.0,0.0,0.0,0.0,0.0,0.0,0.0,0.0,0.0,0.0,0.0,0.0,0.0,0.0,0.0,0.0,0.0,0.0,0.0,0.0,0.0,0.0,0.0,0.0,0.0,0.0,0.0,0.0,0.0,0.0,0.0,0.0,0.0,0.0,0.0,0.0,0.0,0.0,0.0,0.0,0.0,0.0,0.0,0.0,0.0,0.0,0.0,0.0,0.0,0.0,0.0,0.0,0.0,0.0,0.0,0.0,0.0,0.0,0.0,0.0,0.0,0.0,0.0,0.0,0.0,0.0,0.0,0.0,0.0,0.0,0.0,0.0,0.0,0.0,0.0,0.0,0.0,0.0,0.0,0.0,0.0,0.0,0.0,0.0,0.0,0.0,0.0,0.0,0.0,0.0,0.0,0.0,0.0,0.0,0.0,0.0,0.0,0.0,0.0,0.0,0.0,0.0,0.0,0.0,0.0,0.0,0.0,0.0,0.0,0.0,0.0,0.0,0.0,0.0,0.0,0.0,0.0,0.0,0.0,0.0,0.0,0.0,0.0,0.0,0.0,0.0,0.0,0.0,0.0,0.0,0.0,0.0,0.0,0.0,0.0,0.0,0.0,0.0,0.0,0.0,0.0,0.0,0.0,0.0,0.0,0.0,0.0,0.0,0.0,0.0,0.0,0.0,0.0,0.0,0.0,0.0,0.0,0.0,0.0,0.0,0.0,0.0,0.0,0.0,0.0,0.0,0.0,0.0,0.0,0.0,0.0,0.0,0.0,0.0,0.0,0.0,0.0,0.0,0.0,0.0,0.0,0.0,0.0,0.0,0.0,0.0,0.0,0.0,0.0,0.0,0.0,0.0,0.0,0.0,0.0,0.0,0.0,0.0,0.0,0.0,0.0,0.0,0.0,0.0,0.0,0.0,0.0,0.0,0.0,0.0,0.0,0.0,0.0,0.0,0.0,0.0,0.0,0.0,0.0,0.0,0.0,0.0,0.0,0.0,0.0,0.0,0.0,0.0,0.0,0.0,0.0,0.0,0.0,0.0,0.0,0.0,0.0,0.0,0.0,0.0,0.0,0.0,0.0,0.0,0.0,0.0,0.0,0.0,0.0,0.0,0.0,0.0,0.0,0.0,0.0,0.0,0.0,0.0,0.0,0.0,0.0,0.0,0.0,0.0,0.0,0.0,0.0,0.0,0.0,0.0,0.0,0.0,0.0,0.0,0.0,0.0,0.0,0.0,0.0,0.0,0.0,0.0,0.0,0.0,0.0,0.0,0.0,0.0,0.0,0.0,0.0,0.0,0.0,0.0,0.0,0.0,0.0,0.0,0.0,0.0,0.0,0.0,0.0,0.0,0.0,0.0,0.0,0.0,0.0,0.0,0.0,0.0,0.0,0.0,0.0,0.0,0.0,0.0,0.0,0.0,0.0,0.0,0.0,0.0,0.0,0.0,0.0,0.0,0.0,0.0,0.0,0.0,0.0,0.0,0.0,0.0,0.0,0.0,0.0,0.0,0.0,0.0,0.0,0.0,0.0,0.0,0.0,0.0,0.0,0.0,0.0,0.0,0.0,0.0,0.0,0.0,0.0,0.0,0.0,0.0,0.0,0.0,0.0,0.0,0.0,0.0,0.0,0.0,0.0,0.0,0.0,0.0,0.0,0.0,0.0,0.0,0.0,0.0,0.0,0.0,0.0,0.0,0.0,0.0,0.0,0.0,0.0,0.0,0.0,0.0,0.0,0.0,0.0,0.0,0.0,0.0,0.0,0.0,0.0,0.0,0.0,0.0,0.0,0.0,0.0,0.0,0.0,0.0,0.0,0.0,0.0,0.0,0.0,0.0,0.0,0.0,0.0,0.0,0.0,0.0,0.0,0.0,0.0,0.0,0.0,0.0,0.0,0.0,0.0,0.0,0.0,0.0,0.0,0.0,0.0,0.0,0.0,0.0,0.0,0.0,0.0,0.0,0.0,0.0,0.0,0.0,0.0,0.0,0.0,0.0,0.0,0.0,0.0,0.0,0.0,0.0,0.0,0.0,0.0,0.0,0.0,0.0,0.0,0.0,0.0,0.0,0.0,0.0,0.0,0.0,0.0,0.0,0.0,0.0,0.0,0.0,0.0,-0.3962,0.0,0.0,0.0,0.0,0.0,0.0,0.0,0.0,0.0,0.0,0.0,0.0,0.0,0.0,0.0,0.0,0.0,0.0,0.0,0.0,0.0,0.0,0.0,0.0,0.0,0.0,0.0,0.0,0.0,0.0,0.0,0.0,0.0,0.0,0.0,0.0,0.0,0.0,0.0,0.0,0.0,0.0,0.0,0.0,0.0,0.0,0.0,0.0,0.0,0.0,0.0,0.0,0.0,0.0,0.0,0.0,0.0,0.0,0.0,0.0,0.0,0.0,0.0,0.0,0.0,0.0,0.0,0.0,0.0,0.0,0.0,0.0,0.0,0.0,0.0,0.0,0.0,0.0,0.0,0.0,0.0,0.0,0.0,0.0,0.0,0.0,0.0,0.0,0.0,0.0,0.0,0.0,0.0,0.0,0.0,0.0,0.0,0.0,0.0,0.0,0.0,0.0,0.0,0.0,0.0,0.0,0.0,0.0,0.0,0.0,-0.3585,-0.3585,-0.3694,-0.3741,-0.379,0.0,0.0,0.0,0.0,0.0,0.0,0.0,0.0,0.0,0.0,0.0,0.0,0.0,0.0,0.0,0.0,0.0,0.0,0.0,0.0,0.0,0.0,0.0,0.0,0.0,0.0,0.0,0.0,0.0,0.0,0.0,0.0,0.0,0.0,0.0,0.0,0.0,0.0,0.0,0.0,0.0,0.0,0.0,0.0,0.0,0.0,0.0,0.0,0.0,0.0,0.0,0.0,0.0,0.0,0.0,0.0,0.0,0.0,0.0,0.0,0.0,0.0,0.0,0.0,0.0,0.0,0.0,0.0,0.0,0.0,0.0,0.0,0.0,0.0,0.0,0.0,0.0,0.0,0.0,0.0,0.0,0.0,0.0,0.0,0.0,0.0,0.0,0.0,0.0,0.0,0.0,0.0,0.0,0.0,0.0,0.0,0.0,0.0,0.0,0.0,0.0,0.0,0.0,0.0,0.0,0.0,0.0,0.0,0.0,0.0,0.0,0.0,-0.373,-0.3749,-0.369,0.0,0.0,0.0,0.0,0.0,0.0,0.0,0.0,0.0,0.0,0.0,0.0,0.0,0.0,0.0,0.0,0.0,0.0,0.0,0.0,0.0,0.0,0.0,0.0,0.0,0.0,0.0,0.0,0.0,0.0,0.0,0.0,0.0,0.0,0.0,0.0,0.0,0.0,0.0,0.0,0.0,0.0,0.0,0.0,0.0,0.0,0.0,0.0,0.0,0.0,0.0,0.0,0.0,0.0,0.0,0.0,0.0,0.0,0.0,0.0,0.0,0.0,0.0,0.0,0.0,0.0,0.0,0.0,0.0,0.0,0.0,0.0,0.0,0.0,0.0,0.0,0.0,0.0,0.0,0.0,0.0,0.0,0.0,0.0,0.0,0.0,0.0,0.0,0.0,0.0,0.0,0.0,0.0,0.0,0.0,0.0,0.0,0.0,0.0,0.0,0.0,0.0,0.0,0.0,0.0,0.0,0.0,0.0,0.0,0.0,-0.3796,-0.3796,-0.3793,0.0,-0.3803,0.0,0.0,0.0,0.0,0.0,0.0,0.0,0.0,0.0,0.0,0.0,0.0,0.0,0.0,0.0,0.0,0.0,0.0,0.0,0.0,0.0,0.0,0.0,0.0,0.0,0.0,0.0,0.0,0.0,0.0,0.0,0.0,0.0,0.0,0.0,0.0,0.0,0.0,0.0,0.0,0.0,0.0,0.0,0.0,0.0,0.0,0.0,0.0,0.0,0.0,0.0,0.0,0.0,0.0,0.0,0.0,0.0,0.0,0.0,0.0,0.0,0.0,0.0,0.0,0.0,0.0,0.0,0.0,0.0,0.0,0.0,0.0,0.0,0.0,0.0,0.0,0.0,0.0,0.0,0.0,0.0,0.0,0.0,0.0,0.0,0.0,0.0,0.0,0.0,0.0,0.0,0.0,0.0,0.0,0.0,0.0,0.0,0.0,0.0,0.0,0.0,0.0,0.0,0.0,0.0,0.0,0.0,0.0,0.0,0.0,-0.3812,-0.3812,-0.3693,-0.364,0.0,0.0,0.0,0.0,0.0,0.0,0.0,0.0,0.0,0.0,0.0,0.0,0.0,0.0,0.0,0.0,0.0,0.0,0.0,0.0,0.0,0.0,0.0,0.0,0.0,0.0,0.0,0.0,0.0,0.0,0.0,0.0,0.0,0.0,0.0,0.0,0.0,0.0,0.0,0.0,0.0,0.0,0.0,0.0,0.0,0.0,0.0,0.0,0.0,0.0,0.0,0.0,0.0,0.0,0.0,0.0,0.0,0.0,0.0,0.0,0.0,0.0,0.0,0.0,0.0,0.0,0.0,0.0,0.0,0.0,0.0,0.0,0.0,0.0,0.0,0.0,0.0,0.0,0.0,0.0,0.0,0.0,0.0,0.0,0.0,0.0,0.0,0.0,0.0,0.0,0.0,0.0,0.0,0.0,0.0,0.0,0.0,0.0,0.0,0.0,0.0,0.0,0.0,0.0,0.0,0.0,0.0,0.0,0.0,0.0,-0.3751,-0.3812,-0.3812,-0.3721,-0.3593,-0.336,0.0,0.0,0.0,0.0,0.0,0.0,0.0,0.0,0.0,0.0,0.0,0.0,0.0,0.0,0.0,0.0,0.0,0.0,0.0,0.0,0.0,0.0,0.0,0.0,0.0,0.0,0.0,0.0,0.0,0.0,0.0,0.0,0.0,0.0,0.0,0.0,0.0,0.0,0.0,0.0,0.0,0.0,0.0,0.0,0.0,0.0,0.0,0.0,0.0,0.0,0.0,0.0,0.0,0.0,0.0,0.0,0.0,0.0,0.0,0.0,0.0,0.0,0.0,0.0,0.0,0.0,0.0,0.0,0.0,0.0,0.0,0.0,0.0,0.0,0.0,0.0,0.0,0.0,0.0,0.0,0.0,0.0,0.0,0.0,0.0,0.0,0.0,0.0,0.0,0.0,0.0,0.0,0.0,0.0,0.0,0.0,0.0,0.0,0.0,0.0,0.0,0.0,0.0,0.0,0.0,0.0,0.0,0.0,-0.3588,-0.3749,-0.3809,-0.3801,-0.382,-0.3695,0.0,0.0,0.0,0.0,0.0,0.0,0.0,0.0,0.0,0.0,0.0,0.0,0.0,0.0,0.0,0.0,0.0,0.0,0.0,0.0,0.0,0.0,0.0,0.0,0.0,0.0,0.0,0.0,0.0,0.0,0.0,0.0,0.0,0.0,0.0,0.0,0.0,0.0,0.0,0.0,0.0,0.0,0.0,0.0,0.0,0.0,0.0,0.0,0.0,0.0,0.0,0.0,0.0,0.0,0.0,0.0,0.0,0.0,0.0,0.0,0.0,0.0,0.0,0.0,0.0,0.0,0.0,0.0,0.0,0.0,0.0,0.0,0.0,0.0,0.0,0.0,0.0,0.0,0.0,0.0,0.0,0.0,0.0,0.0,0.0,0.0,0.0,0.0,0.0,0.0,0.0,0.0,0.0,0.0,0.0,0.0,0.0,0.0,0.0,0.0,0.0,0.0,0.0,0.0,0.0,0.0,0.0,0.0,0.0,-0.3585,-0.3623,-0.3607,-0.3528,-0.3764,-0.3672,0.0,0.0,0.0,0.0,0.0,0.0,0.0,0.0,0.0,0.0,0.0,0.0,0.0,0.0,0.0,0.0,0.0,0.0,0.0,0.0,0.0,0.0,0.0,0.0,0.0,0.0,0.0,0.0,0.0,0.0,0.0,0.0,0.0,0.0,0.0,0.0,0.0,0.0,0.0,0.0,0.0,0.0,0.0,0.0,0.0,0.0,0.0,0.0,0.0,0.0,0.0,0.0,0.0,0.0,0.0,0.0,0.0,0.0,0.0,0.0,0.0,0.0,0.0,0.0,0.0,0.0,0.0,0.0,0.0,0.0,0.0,0.0,0.0,0.0,0.0,0.0,0.0,0.0,0.0,0.0,0.0,0.0,0.0,0.0,0.0,0.0,0.0,0.0,0.0,0.0,0.0,0.0,0.0,0.0,0.0,0.0,0.0,0.0,0.0,0.0,0.0,0.0,0.0,0.0,0.0,0.0,0.0,0.0,0.0,-0.3583,0.0,-0.3485,-0.3403,-0.3588,-0.3518,0.0,0.0,0.0,0.0,0.0,0.0,0.0,0.0,0.0,0.0,0.0,0.0,0.0,0.0,0.0,0.0,0.0,0.0,0.0,0.0,0.0,0.0,0.0,0.0,0.0,0.0,0.0,0.0,0.0,0.0,0.0,0.0,0.0,0.0,0.0,0.0,0.0,0.0,0.0,0.0,0.0,0.0,0.0,0.0,0.0,0.0,0.0,0.0,0.0,0.0,0.0,0.0,0.0,0.0,0.0,0.0,0.0,0.0,0.0,0.0,0.0,0.0,0.0,0.0,0.0,0.0,0.0,0.0,0.0,0.0,0.0,0.0,0.0,0.0,0.0,0.0,0.0,0.0,0.0,0.0,0.0,0.0,0.0,0.0,0.0,0.0,0.0,0.0,0.0,0.0,0.0,0.0,0.0,0.0,0.0,0.0,0.0,0.0,0.0,0.0,0.0,0.0,0.0,0.0,0.0,0.0,0.0,0.0,-0.3471,-0.358,-0.3474,-0.3417,-0.3395,-0.329,-0.3159,0.0,0.0,0.0,0.0,0.0,0.0,0.0,0.0,0.0,0.0,0.0,0.0,0.0,0.0,0.0,0.0,0.0,0.0,0.0,0.0,0.0,0.0,0.0,0.0,0.0,0.0,0.0,0.0,0.0,0.0,0.0,0.0,0.0,0.0,0.0,0.0,0.0,0.0,0.0,0.0,0.0,0.0,0.0,0.0,0.0,0.0,0.0,0.0,0.0,0.0,0.0,0.0,0.0,0.0,0.0,0.0,0.0,0.0,0.0,0.0,0.0,0.0,0.0,0.0,0.0,0.0,0.0,0.0,0.0,0.0,0.0,0.0,0.0,0.0,0.0,0.0,0.0,0.0,0.0,0.0,0.0,0.0,0.0,0.0,0.0,0.0,0.0,0.0,0.0,0.0,0.0,0.0,0.0,0.0,0.0,0.0,0.0,0.0,0.0,0.0,0.0,0.0,0.0,0.0,0.0,0.0,0.0,0.0,0.0,-0.3585,-0.3623,-0.3564,-0.3409,-0.312,-0.3013,0.0,0.0,0.0,0.0,0.0,0.0,0.0,0.0,0.0,0.0,0.0,0.0,0.0,0.0,0.0,0.0,0.0,0.0,0.0,0.0,0.0,0.0,0.0,0.0,0.0,0.0,0.0,0.0,0.0,0.0,0.0,0.0,0.0,0.0,0.0,0.0,0.0,0.0,0.0,0.0,0.0,0.0,0.0,0.0,0.0,0.0,0.0,0.0,0.0,0.0,0.0,0.0,0.0,0.0,0.0,0.0,0.0,0.0,0.0,0.0,0.0,0.0,0.0,0.0,0.0,0.0,0.0,0.0,0.0,0.0,0.0,0.0,0.0,0.0,0.0,0.0,0.0,0.0,0.0,0.0,0.0,0.0,0.0,0.0,0.0,0.0,0.0,0.0,0.0,0.0,0.0,0.0,0.0,0.0,0.0,0.0,0.0,0.0,0.0,0.0,0.0,0.0,0.0,0.0,0.0,0.0,0.0,0.0,0.0,-0.3974,-0.3966,-0.3844,-0.3607,-0.3219,-0.3023,-0.3029,0.0,0.0,0.0,0.0,0.0,0.0,0.0,0.0,0.0,0.0,0.0,0.0,0.0,0.0,0.0,0.0,0.0,0.0,0.0,0.0,0.0,0.0,0.0,0.0,0.0,0.0,0.0,0.0,0.0,0.0,0.0,0.0,0.0,0.0,0.0,0.0,0.0,0.0,0.0,0.0,0.0,0.0,0.0,0.0,0.0,0.0,0.0,0.0,0.0,0.0,0.0,0.0,0.0,0.0,0.0,0.0,0.0,0.0,0.0,0.0,0.0,0.0,0.0,0.0,0.0,0.0,0.0,0.0,0.0,0.0,0.0,0.0,0.0,0.0,0.0,0.0,0.0,0.0,0.0,0.0,0.0,0.0,0.0,0.0,0.0,0.0,0.0,0.0,0.0,0.0,0.0,0.0,0.0,0.0,0.0,0.0,0.0,0.0,0.0,0.0,0.0,0.0,0.0,0.0,0.0,0.0,0.0,0.0,-0.4678,-0.4499,-0.4276,-0.3934,-0.35,-0.3276,0.0,0.0,0.0,0.0,0.0,0.0,0.0,0.0,0.0,0.0,0.0,0.0,0.0,0.0,0.0,0.0,0.0,0.0,0.0,0.0,0.0,0.0,0.0,0.0,0.0,0.0,0.0,0.0,0.0,0.0,0.0,0.0,0.0,0.0,0.0,0.0,0.0,0.0,0.0,0.0,0.0,0.0,0.0,0.0,0.0,0.0,0.0,0.0,0.0,0.0,0.0,0.0,0.0,0.0,0.0,0.0,0.0,0.0,0.0,0.0,0.0,0.0,0.0,0.0,0.0,0.0,0.0,0.0,0.0,0.0,0.0,0.0,0.0,0.0,0.0,0.0,0.0,0.0,0.0,0.0,0.0,0.0,0.0,0.0,0.0,0.0,0.0,0.0,0.0,0.0,0.0,0.0,0.0,0.0,0.0,0.0,0.0,0.0,0.0,0.0,0.0,0.0,0.0,0.0,0.0,0.0,0.0,0.0,0.0,-0.4807,-0.5336,-0.5292,-0.4555,-0.4185,-0.3841,0.0,0.0,0.0,0.0,0.0,0.0,0.0,0.0,0.0,0.0,0.0,0.0,0.0,0.0,0.0,0.0,0.0,0.0,0.0,0.0,0.0,0.0,0.0,0.0,0.0,0.0,0.0,0.0,0.0,0.0,0.0,0.0,0.0,0.0,0.0,0.0,0.0,0.0,0.0,0.0,0.0,0.0,0.0,0.0,0.0,0.0,0.0,0.0,0.0,0.0,0.0,0.0,0.0,0.0,0.0,0.0,0.0,0.0,0.0,0.0,0.0,0.0,0.0,0.0,0.0,0.0,0.0,0.0,0.0,0.0,0.0,0.0,0.0,0.0,0.0,0.0,0.0,0.0,0.0,0.0,0.0,0.0,0.0,0.0,0.0,0.0,0.0,0.0,0.0,0.0,0.0,0.0,0.0,0.0,0.0,0.0,0.0,0.0,0.0,0.0,0.0,0.0,0.0,0.0,0.0,0.0,0.0,0.0,-0.452,-0.4823,-0.5913,-0.6135,-0.5455,-0.5035,-0.442,0.0,0.0,0.0,0.0,0.0,0.0,0.0,0.0,0.0,0.0,0.0,0.0,0.0,0.0,0.0,0.0,0.0,0.0,0.0,0.0,0.0,0.0,0.0,0.0,0.0,0.0,0.0,0.0,0.0,0.0,0.0,0.0,0.0,0.0,0.0,0.0,0.0,0.0,0.0,0.0,0.0,0.0,0.0,0.0,0.0,0.0,0.0,0.0,0.0,0.0,0.0,0.0,0.0,0.0,0.0,0.0,0.0,0.0,0.0,0.0,0.0,0.0,0.0,0.0,0.0,0.0,0.0,0.0,0.0,0.0,0.0,0.0,0.0,0.0,0.0,0.0,0.0,0.0,0.0,0.0,0.0,0.0,0.0,0.0,0.0,0.0,0.0,0.0,0.0,0.0,0.0,0.0,0.0,0.0,0.0,0.0,0.0,0.0,0.0,0.0,0.0,0.0,0.0,0.0,0.0,0.0,0.0,0.0,-0.4739,-0.4802,-0.6287,-0.6806,-0.6342,-0.5795,-0.503,0.0,0.0,0.0,0.0,0.0,0.0,0.0,0.0,0.0,0.0,0.0,0.0,0.0,0.0,0.0,0.0,0.0,0.0,0.0,0.0,0.0,0.0,0.0,0.0,0.0,0.0,0.0,0.0,0.0,0.0,0.0,0.0,0.0,0.0,0.0,0.0,0.0,0.0,0.0,0.0,0.0,0.0,0.0,0.0,0.0,0.0,0.0,0.0,0.0,0.0,0.0,0.0,0.0,0.0,0.0,0.0,0.0,0.0,0.0,0.0,0.0,0.0,0.0,0.0,0.0,0.0,0.0,0.0,0.0,0.0,0.0,0.0,0.0,0.0,0.0,0.0,0.0,0.0,0.0,0.0,0.0,0.0,0.0,0.0,0.0,0.0,0.0,0.0,0.0,0.0,0.0,0.0,0.0,0.0,0.0,0.0,0.0,0.0,0.0,0.0,0.0,0.0,0.0,0.0,0.0,0.0,0.0,0.0,-0.4212,-0.501,-0.6493,-0.7011,-0.6513,-0.6117,-0.5502,0.0,0.0,0.0,0.0,0.0,0.0,0.0,0.0,0.0,0.0,0.0,0.0,0.0,0.0,0.0,0.0,0.0,0.0,0.0,0.0,0.0,0.0,0.0,0.0,0.0,0.0,0.0,0.0,0.0,0.0,0.0,0.0,0.0,0.0,0.0,0.0,0.0,0.0,0.0,0.0,0.0,0.0,0.0,0.0,0.0,0.0,0.0,0.0,0.0884,0.0,0.0,0.0,0.0,0.0,0.0,0.0,0.0,0.0,0.0,0.0,0.0,0.0,0.0,0.0,0.0,0.0,0.0,0.0,0.0,0.0,0.0,0.0,0.0,0.0,0.0,0.0,0.0,0.0,0.0,0.0,0.0,0.0,0.0,0.0,0.0,0.0,0.0,0.0,0.0,0.0,0.0,0.0,0.0,0.0,0.0,0.0,0.0,0.0,0.0,0.0,0.0,0.0,0.0,0.0,0.0,0.0,0.0,0.0,-0.4304,-0.4856,-0.6527,-0.7135,-0.6399,-0.6225,-0.5916,0.0,0.0,0.0,0.0,0.0,0.0,0.0,0.0,0.0,0.0,0.0,0.0,0.0,0.0,0.0,0.0,0.0,0.0,0.0,0.0,0.0,0.0,0.0,0.0,0.0,0.0,0.0,0.0,0.0,0.0,0.0,0.0,0.0,0.0,0.0,0.0,0.0,0.0,0.0,0.0,0.0,0.0,0.0,0.0,0.0,0.0,0.0,0.0,0.0,0.0,0.0,0.0,0.0,0.0,0.0,0.0,0.0,0.0,0.0,0.0,0.0,0.0,0.0,0.0,0.0,0.0,0.0,0.0,0.0,0.0,0.0,0.0,0.0,0.0,0.0,0.0,0.0,0.0,0.0,0.0,0.0,0.0,0.0,0.0,0.0,0.0,0.0,0.0,0.0,0.0,0.0,0.0,0.0,0.0,0.0,0.0,0.0,0.0,0.0,0.0,0.0,0.0,0.0,0.0,0.0,0.0,0.0,-0.3636,-0.4758,-0.4717,-0.6515,-0.71,-0.6184,-0.6199,-0.594,-0.5271,0.0,0.0,0.0,0.0,0.0,0.0,0.0,0.0,0.0,0.0,0.0,0.0,0.0,0.0,0.0,0.0,0.0,0.0,0.0,0.0,0.0,0.0,0.0,0.0,0.0,0.0,0.0,0.0,0.0,0.0,0.0,0.0,0.0,0.0,0.0,0.0,0.0,0.0,0.0822,0.0928,0.0,0.0,0.0,0.0,0.0,0.0,0.0,0.0,0.0902,0.0,0.0,0.0,0.0,0.0,0.0,0.0,0.0,0.0,0.0,0.0,0.0,0.0,0.0,0.0,0.0,0.0,0.0,0.0,0.0,0.0,0.0,0.0,0.0,0.0,0.0,0.0,0.0,0.0,0.0,0.0,0.0,0.0,0.0,0.0,0.0,0.0,0.0,0.0,0.0,0.0,0.0,0.0,0.0,0.0,0.0,0.0,0.0,0.0,0.0,0.0,0.0,0.0,0.0,0.0,0.0,-0.2248,-0.4396,-0.5399,-0.5109,-0.6368,-0.6561,-0.538,-0.5654,-0.4951,-0.3293,0.0,0.0,0.0,0.0,0.0,0.0,0.0,0.0,0.0,0.0,0.0,0.0,0.0,0.0,0.0,0.0,0.0,0.0,0.0,0.0,0.0,0.0,0.0,0.0,0.0,0.0,0.0,0.0,0.0,0.0,0.0,0.0,0.0,0.0,0.0,0.0,0.0,0.0,0.0,0.1001,0.1059,0.0,0.0,0.0,0.0,0.0,0.0,0.0,0.0,0.0895,0.0,0.0,0.0,0.0,0.0,0.0,0.0,0.0,0.0,0.0,0.0,0.0,0.0,0.0,0.0,0.0,0.0,0.0,0.0,0.0,0.0,0.0,0.0,0.0,0.0,0.0,0.0,0.0,0.0,0.0,0.0,0.0,0.0,0.0,0.0,0.0,0.0,0.0,0.0,0.0,0.0,0.0,0.0,0.0,0.0,0.0,0.0,0.0,0.0,0.0,0.0,0.0,0.0,0.0,0.0,-0.3585,-0.5465,-0.6043,-0.5342,-0.6694,-0.68,-0.5287,-0.6307,-0.5704,0.0,0.0,0.0,0.0,0.0,0.0,0.0,0.0,0.0,0.0,0.0,0.0,0.0,0.0,0.0,0.0,0.0,0.0,0.0,0.0,0.0,0.0,0.0,0.0,0.0,0.0,0.0,0.0,0.0,0.0,0.0,0.0,0.0,0.0,0.0,0.0,0.0,0.0,0.0,0.0,0.1102,0.1164,0.1149,0.0,0.0,0.0,0.0,0.0,0.0,0.1022,0.1017,0.0,0.0,0.0,0.0,0.0,0.0,0.0,0.0,0.0,0.0,0.0,0.0,0.0,0.0,0.0,0.0,0.0,0.0,0.0,0.0,0.0,0.0,0.0,0.0,0.0,0.0,0.0,0.0,0.0,0.0,0.0,0.0,0.0,0.0,0.0,0.0,0.0,0.0,0.0,0.0,0.0,0.0,0.0,0.0,0.0,0.0,0.0,0.0,0.0,0.0,0.0,0.0,0.0,0.0,0.0,-0.4378,-0.5944,-0.6328,-0.5397,-0.6872,-0.6769,-0.515,-0.6469,-0.5887,0.0,0.0,0.0,0.0,0.0,0.0,0.0,0.0,0.0,0.0,0.0,0.0,0.0,0.0,0.0,0.0,0.0,0.0,0.0,0.0,0.0,0.0,0.0,0.0,0.0,0.0,0.0,0.0,0.0,0.0,0.0,0.0,0.0,0.0,0.0,0.0,0.0,0.0,0.0,0.0,0.0,0.1346,0.1243,0.1218,0.0,0.0,0.0,0.0,0.1128,0.1117,0.0,0.0,0.0,0.0,0.0,0.0,0.0,0.0,0.0,0.0,0.0,0.0,0.0,0.0,0.0,0.0,0.0,0.0,0.0,0.0,0.0,0.0,0.0,0.0,0.0,0.0,0.0,0.0,0.0,0.0,0.0,0.0,0.0,0.0,0.0,0.0,0.0,0.0,0.0,0.0,0.0,0.0,0.0,0.0,0.0,0.0,0.0,0.0,0.0,0.0,0.0,0.0,0.0,0.0,0.0,0.0,-0.4026,-0.4834,-0.5214,-0.5277,-0.6324,-0.5958,-0.4169,-0.4523,-0.3833,0.0,0.0,0.0,0.0,0.0,0.0,0.0,0.0,0.0,0.0,0.0,0.0,0.0,0.0,0.0,0.0,0.0,0.0,0.0,0.0,0.0,0.0,0.0,0.0,0.0,0.0,0.0,0.0,0.0,0.0,0.0,0.0,0.0,0.0,0.0,0.0,0.0,0.0,0.0,0.0,0.0,0.142,0.1333,0.1246,0.1316,0.0,0.0,0.1255,0.1308,0.1249,0.0,0.0,0.0,0.0,0.0,0.0,0.0,0.0,0.0,0.0,0.0,0.0,0.0,0.0,0.0,0.0,0.0,0.0,0.0,0.0,0.0,0.0,0.0,0.0,0.0,0.0,0.0,0.0,0.0,0.0,0.0,0.0,0.0,0.0,0.0,0.0,0.0,0.0,0.0,0.0,0.0,0.0,0.0,0.0,0.0,0.0,0.0,0.0,0.0,0.0,0.0,0.0,0.0,0.0,0.0,-0.3058,-0.3753,-0.5086,-0.5375,-0.4804,-0.5788,-0.5207,-0.2962,-0.2194,-0.1472,0.0,0.0,0.0,0.0,0.0,0.0,0.0,0.0,0.0,0.0,0.0,0.0,0.0,0.0,0.0,0.0,0.0,0.0,0.0,0.0,0.0,0.0,0.0,0.0,0.0,0.0,0.0,0.0,0.0,0.0,0.0,0.0,0.0,0.0,0.0,0.0,0.0,0.0,0.0,0.0,0.0,0.0,0.1421,0.1423,0.0,0.0,0.0,0.136,0.1347,0.0,0.0,0.0,0.0,0.0,0.0,0.0,0.0,0.0,0.0,0.0,0.0,0.0,0.0,0.0,0.0,0.0,0.0,0.0,0.0,0.0,0.0,0.0,0.0,0.0,0.0,0.0,0.0,0.0,0.0,0.0,0.0,0.0,0.0,0.0,0.0,0.0,0.0,0.0,0.0,0.0,0.0,0.0,0.0,0.0,0.0,0.0,0.0,0.0,0.0,0.0,0.0,0.0,0.0,0.0,0.0,0.0,-0.3484,-0.4714,-0.4955,-0.4063,-0.5354,-0.4788,-0.2274,-0.0825,0.0,0.0,0.0,0.0,0.0,0.0,0.0,0.0,0.0,0.0,0.0,0.0,0.0,0.0,0.0,0.0,0.0,0.0,0.0,0.0,0.0,0.0,0.0,0.0,0.0,0.0,0.0,0.0491,0.0,0.0,0.0,0.0,0.0,0.0,0.0,0.0,0.0,0.0,0.0,0.0,0.0,0.0,0.1461,0.1498,0.151,0.1515,0.0,0.0,0.1467,0.146,0.1526,0.1408,0.0,0.0,0.0,0.0,0.0,0.0,0.0,0.0,0.0,0.0,0.0,0.0,0.0,0.0,0.0,0.0,0.0,0.0,0.0,0.0,0.0,0.0,0.0,0.0,0.0,0.0,0.0,0.0,0.0,0.0,0.0,0.0,0.0,0.0,0.0,0.0,0.0,0.0,0.0,0.0,0.0,0.0,0.0,0.0,0.0,0.0,0.0,0.0,0.0,0.0,0.0,0.0,0.0,0.0,-0.2314,-0.295,-0.3075,-0.3249,-0.3413,-0.5033,-0.4691,-0.2308,-0.0804,-0.0179,0.0,0.0,0.0,0.0,0.0,0.0,0.0,0.0,0.0,0.0,0.0,0.0,0.0,0.0,0.0,0.0,0.0,0.0,0.0,0.0,0.0,0.0,0.0,0.0,0.0,0.0,0.0,0.0,0.0,0.0,0.0,0.0,0.0,0.0,0.0,0.0,0.0,0.0,0.0,0.0,0.0,0.1686,0.1558,0.159,0.1608,0.0,0.1581,0.159,0.1573,0.1497,0.1459,0.1274,0.0,0.0,0.0,0.0,0.0,0.0,0.0,0.0,0.0,0.0,0.0,0.0,0.0,0.0,0.0,0.0,0.0,0.0,0.0,0.0,0.0,0.0,0.0,0.0,0.0,0.0,0.0,0.0,0.0,0.0,0.0,0.0,0.0,0.0,0.0,0.0,0.0,0.0,0.0,0.0,0.0,0.0,0.0,0.0,0.0,0.0,0.0,0.0,0.0,0.0,0.0,0.0,0.0,-0.141,-0.1934,-0.2141,-0.2451,-0.313,-0.5733,-0.586,-0.3287,-0.1103,-0.009,0.0,0.0,0.0,0.0,0.0,0.0,0.0,0.0,0.0,0.0,0.0,0.0,0.0,0.0,0.0,0.0,0.0,0.0,0.0,0.0,0.0,0.0,0.0,0.0,0.0,0.0,0.0,0.0,0.0544,0.0594,0.0594,0.0,0.0,0.0,0.0,0.0,0.0,0.0,0.0,0.0,0.0,0.164,0.164,0.168,0.0,0.0,0.1701,0.1699,0.1642,0.1645,0.1645,0.1415,0.1288,0.0,0.0,0.0,0.0,0.0,0.0,0.0,0.0,0.0,0.0,0.0,0.0,0.0,0.0,0.0,0.0,0.0,0.0,0.0,0.0,0.0,0.0,0.0,0.0,0.0,0.0,0.0,0.0,0.0,0.0,0.0,0.0,0.0,0.0,0.0,0.0,0.0,0.0,0.0,0.0,0.0,0.0,0.0,0.0,0.0,0.0,0.0,0.0,0.0,0.0,0.0,0.0,-0.0971,-0.1316,-0.1332,-0.156,-0.2283,-0.5148,-0.5633,-0.3367,-0.1193,-0.009,0.0,0.0,0.0,0.0,0.0,0.0,0.0,0.0,0.0,0.0,0.0,0.0,0.0,0.0,0.0,0.0,0.0,0.0,0.0,0.0,0.0,0.0,0.0,0.0,0.0,0.0,0.0,0.0,0.0628,0.0671,0.0722,0.0,0.0,0.0,0.0,0.0,0.0,0.0,0.0,0.0,0.0,0.1555,0.1674,0.1725,0.176,0.1791,0.177,0.1767,0.1701,0.1778,0.1631,0.1272,0.0,0.0,0.0,0.0,0.0,0.0,0.0,0.0,0.0,0.0,0.0,0.0,0.0,0.0,0.0,0.0,0.0,0.0,0.0,0.0,0.0,0.0,0.0,0.0,0.0,0.0,0.0,-0.2946,0.0,0.0,-0.1834,0.0,0.0,0.0,0.0,0.0,0.0,0.0,0.0,0.0,0.0,0.0,0.0,0.0,0.0,0.0,0.0,0.0,0.0,0.0,0.0,0.0,0.0,-0.0918,-0.1254,-0.0522,-0.0336,-0.101,-0.292,-0.3317,-0.1921,-0.0683,-0.0178,-0.0406,0.0,0.0,0.0,0.0,0.0,0.0,0.0,0.0,0.0,0.0,0.0,0.0,0.0,0.0,0.0,0.0,0.0,0.0,0.0,0.0,0.0,0.0,0.0,0.0,0.0,0.0,0.071,0.0709,0.0722,0.0,0.0,0.0,0.0,0.0,0.0,0.0,0.0,0.0,0.0,0.1387,0.1526,0.1646,0.1713,0.1762,0.1791,0.177,0.178,0.175,0.1681,0.1425,0.0,0.0,0.0,0.0,0.0,0.0,0.0,0.0,0.0,0.0,0.0,0.0,0.0,0.0,0.0,0.0,0.0,0.0,0.0,0.0,0.0,0.0,0.0,0.0,0.0,0.0,0.0,-0.3348,-0.3221,0.0,0.0,0.0,0.0,0.0,0.0,0.0,0.0,0.0,0.0,0.0,-0.3555,-0.3373,0.0,0.0,0.0,0.0,0.0,0.0,0.0,0.0,0.0,0.0,0.0,0.0,-0.0856,-0.1077,-0.1254,-0.1234,-0.0896,-0.1427,-0.161,-0.1153,-0.0775,-0.0698,-0.0913,0.0,0.0,0.0,0.0,0.0,0.0,0.0,0.0,0.0,0.0,0.0,0.0,0.0,0.0,0.0,0.0,0.0,0.0,0.0,0.0,0.0,0.0,0.0,0.0,0.0,0.0667,0.0,0.0,0.0,0.0,0.0,0.0,0.0,0.0,0.0,0.0,0.0,0.0537,0.1105,0.1295,0.1408,0.1643,0.1837,0.1895,0.0,0.0,0.0,0.0,0.0,0.0,0.0,0.0,0.0,0.0,0.0,0.0,0.0,0.0,-0.0,-0.0,-0.0,-0.0,-0.0,0.0,0.0,0.0,0.0,0.0,0.0,0.0,0.0,0.0,0.0,0.0,0.0,0.0,0.0,-0.3968,0.0,-0.3527,0.0,0.0,0.0,0.0,0.0,0.0,0.0,0.0,-0.5004,-0.5075,-0.5165,-0.5037,-0.4664,0.0,-0.3186,-0.2366,0.0,0.0,0.0,0.0,0.0,0.0,0.0,0.0,-0.1041,-0.118,-0.1677,-0.1677,-0.1222,-0.1082,-0.1061,-0.1048,-0.1178,-0.125,-0.1251,-0.1119,-0.0932,0.0,0.0,0.0,0.0,0.0,0.0,0.0,0.0,0.0,0.0,0.0,0.0,0.0,0.0,0.0,0.0,0.0,0.0,0.0,0.0,0.0,0.0,0.0,0.071,0.0,0.0,0.0,0.0,0.0,0.0,0.0,0.0,0.0,-0.0,-0.0,0.0211,0.0729,0.0953,0.1115,0.1322,0.0,0.0,0.0,0.0,0.0,0.0,0.0,0.1682,0.0985,0.037,-0.0,-0.0,-0.0,-0.0,-0.0,0.0,0.0,-0.0,-0.0,-0.0,-0.0,-0.0,-0.0,-0.0,-0.0,-0.0083,0.0,0.0,0.0,0.0,0.0,0.0,0.0,0.0,-0.5035,-0.4941,0.0,-0.414,0.0,0.0,0.0,0.0,0.0,-0.5036,0.0,0.0,-0.7248,-0.7576,-0.7558,-0.7425,-0.6793,-0.5679,-0.4052,-0.268,-0.1555,-0.1013,0.0,0.0,0.0,0.0,0.0,0.0,-0.1416,-0.1577,-0.1689,-0.178,-0.1751,-0.1721,-0.1706,-0.1598,-0.1722,-0.1616,-0.1406,-0.1256,-0.1119,-0.0937,-0.0903,0.0,0.0,0.0,0.0,0.0,0.0,0.0,0.0,0.0,0.0,0.0,0.0,0.0,0.0,0.0,0.0,0.0,0.0,0.0,0.0,0.0686,0.0,0.0,0.0,0.0,0.0,0.0,0.0,0.0,0.0,0.0,-0.0,-0.0,-0.0,-0.0,0.0,0.0,0.0,0.0,0.0766,0.0876,0.0889,0.11,0.1645,0.1576,0.1183,0.0212,0.0,0.0,-0.0,-0.0,-0.0,-0.0,-0.0,-0.0,-0.0,-0.0,-0.0,-0.0,-0.0,-0.0,-0.0,-0.0,-0.0477,-0.7397,0.0,0.0,0.0,0.0,-0.4915,-0.5086,-0.5523,-0.6279,-0.608,-0.5224,-0.495,0.0,0.0,0.0,0.0,0.0,0.0,-0.6892,-0.7569,-0.7971,-0.8137,-0.8128,-0.7991,-0.7381,-0.6543,-0.5372,-0.4283,-0.3336,-0.2598,-0.1859,-0.1181,0.0,0.0,0.0,0.0,-0.1374,-0.164,-0.171,-0.178,-0.175,-0.1701,-0.1684,-0.1704,-0.166,-0.1731,-0.1613,-0.1429,-0.1271,-0.1151,-0.1168,0.0,0.0,0.0,0.0,0.0,0.0,0.0,0.0,0.0,0.0,0.0,0.0,0.0,0.0,0.0,0.0,0.0,0.0,0.0,0.0716,0.0804,0.0772,0.0,0.0,0.0,0.0,0.0,0.0,0.0,0.0,0.0,-0.0,-0.0,-0.0,0.0,0.0,0.0188,0.02,0.0214,0.0223,0.0223,0.023,0.0,0.044,0.0432,0.0332,-0.0,-0.0,-0.0,-0.0,-0.0,-0.0,-0.0,-0.0,-0.0,-0.0,-0.0,-0.0,-0.0,-0.0,-0.0,-0.0,-0.0698,-0.1406,-0.986,-0.715,-0.6583,-0.6164,-0.5858,-0.5823,-0.5984,-0.6361,-0.7067,-0.6873,-0.61,-0.5809,-0.5595,-0.5615,-0.5671,0.0,0.0,0.0,-0.7965,-0.8596,-0.9007,-0.91,-0.9036,-0.8894,-0.8366,-0.7595,-0.6714,-0.5755,-0.468,-0.3683,-0.2899,-0.2263,0.0,0.0,-0.1763,-0.1947,-0.2092,-0.2084,-0.2155,-0.2113,-0.1968,-0.1822,-0.1812,-0.1936,-0.1813,-0.1794,-0.198,-0.1782,-0.1607,-0.1465,-0.147,-0.144,0.0,0.0,0.0,0.0,0.0,0.0,0.0,0.0,0.0,0.0,0.0,0.0303,0.0605,0.0,0.0,0.0,0.0684,0.0746,0.0801,0.0666,0.0,0.0,0.0,0.0,0.0,0.0,0.0,-0.0,-0.0,-0.0,-0.0,-0.0,-0.0,-0.0,-0.0,-0.0,-0.0,0.0,-0.0,-0.0,-0.0,-0.0,-0.0,-0.0,-0.0,-0.0,-0.0,-0.0,-0.0,-0.0,-0.0,-0.0,-0.0,-0.0,-0.0,-0.0356,-0.0691,-0.0665,-0.0765,-0.0651,-0.0429,-0.0961,-0.1502,-1.1953,-1.0207,-0.8681,-0.7642,-0.6858,-0.6642,-0.6808,-0.7328,-0.7456,-0.7365,-0.7016,-0.6665,-0.6679,-0.692,-0.7132,0.0,-0.816,-0.8452,-0.8977,-0.968,-1.01,-1.0215,-1.0063,-0.9907,-0.9385,-0.8738,-0.7772,-0.6756,-0.5718,-0.4574,-0.3947,-0.3817,-0.2767,-0.2473,-0.2747,-0.3177,-0.3328,-0.3054,-0.2931,-0.2668,-0.2189,-0.1969,-0.197,-0.2192,-0.2076,-0.2026,-0.2329,-0.2255,-0.2165,-0.1901,-0.1827,-0.1755,-0.1592,0.0,0.0,0.0,0.0,0.0,0.0,0.0,0.0,0.0,0.0,0.0,0.0,0.0,0.0,0.0,0.0721,0.0,0.0779,0.0372,0.0,0.0,0.0,-0.0,-0.0,-0.0,-0.0,-0.0,0.0,0.0,-0.0,-0.0,-0.0,-0.0,-0.0,-0.0,-0.0,-0.0,-0.0,-0.0,-0.0,-0.0,-0.0,-0.0,-0.0,-0.0,-0.0,-0.0,-0.0,-0.0,-0.0,-0.0,-0.0,-0.0,-0.0,-0.0966,-0.17,-0.1735,-0.17,-0.157,-0.1124,-0.102,-0.1258,-1.3953,-1.2739,-1.1874,-1.013,-0.8012,-0.7439,-0.7522,-0.7815,-0.776,-0.7789,-0.763,-0.7578,-0.7804,-0.8181,-0.8434,-0.8713,-0.9076,-0.9367,-0.9727,-1.0124,-1.0341,-1.0365,-1.0219,-1.0066,-0.9677,-0.8845,-0.8185,-0.739,-0.6417,-0.5402,-0.5156,-0.5439,-0.491,-0.456,-0.4275,-0.4768,-0.478,-0.4256,-0.3773,-0.3,-0.197,-0.2078,-0.2091,-0.223,-0.2392,-0.2435,-0.2267,-0.2492,-0.2496,-0.2158,-0.2069,-0.1938,-0.17,-0.1635,0.0,0.0,0.0,0.0,0.0,0.0,0.0,0.0,0.0,0.0328,0.0921,0.0,0.0913,0.0,0.0898,0.0899,0.0858,0.0822,0.0,0.0,0.0077,-0.0,-0.0,-0.0,-0.0,-0.0,-0.0,-0.0,-0.0,-0.0,-0.0,-0.0,-0.0,-0.0,-0.0,-0.0,-0.0,-0.0,-0.0,-0.0,-0.0,-0.0,-0.0,-0.0,-0.0,-0.0,-0.0,-0.0,-0.0,-0.1271,-0.1511,-0.1369,-0.0856,-0.0966,-0.1301,-0.1734,-0.1816,-0.181,-0.1622,-0.1621,-0.1744,-1.4986,-1.3996,-1.3621,-1.2284,-1.0335,-0.9126,-0.8613,-0.8744,-0.8747,-0.8588,-0.8343,-0.8612,-0.8888,-0.9176,-0.9412,-0.9659,-0.988,-1.0046,-1.0249,-1.0477,-1.0558,-1.0483,-1.0276,-1.0124,-0.9697,-0.9146,-0.863,-0.8045,-0.7271,-0.6641,-0.6574,-0.6855,-0.6949,-0.6911,-0.685,-0.6529,-0.6082,-0.5477,-0.4475,-0.3346,-0.2213,-0.2324,-0.2453,-0.2604,-0.2595,-0.26,-0.2734,-0.2633,-0.2548,-0.2408,-0.227,-0.2189,-0.1942,-0.187,-0.1591,0.0,0.0,0.0,0.0,0.0,0.0,0.0,0.0,0.0,0.0,0.0,0.102,0.105,0.0985,0.0968,0.101,0.0784,0.0446,-0.0,-0.0,-0.0,-0.0,-0.0,-0.0,-0.0,-0.0,-0.0,-0.0,-0.0,-0.0,-0.0,-0.0,-0.0,-0.0,-0.0,-0.0,-0.0,-0.0,-0.0,-0.0,-0.0,-0.0,-0.0,-0.0,-0.0,-0.0,-0.0503,-0.1117,-0.1737,-0.1973,-0.183,-0.1441,-0.1308,-0.1524,-0.1734,-0.1838,-0.1844,-0.1861,-0.1874,-0.1899,-1.5505,-1.4732,-1.464,-1.4232,-1.335,-1.1433,-1.0358,-0.9967,-1.0124,-0.9728,-0.8986,-0.9627,-0.9931,-0.9914,-1.0159,-1.0337,-1.0432,-1.0415,-1.0487,-1.0633,-1.0656,-1.0527,-1.028,-1.0141,-0.9856,-0.9435,-0.9117,-0.8628,-0.8187,-0.7951,-0.7955,-0.8218,-0.8699,-0.9255,-0.9608,-0.8283,-0.7184,-0.6374,-0.4933,-0.3712,-0.2711,-0.27,-0.294,-0.3206,-0.2799,-0.2849,-0.3119,-0.272,-0.2467,-0.2514,-0.241,-0.2402,-0.2337,-0.2184,-0.1852,0.0,-0.0742,0.0,0.0,0.0,0.0,0.0,0.0,0.0,0.0,0.0898,0.0965,0.1077,0.1044,0.0913,0.0964,0.0395,-0.0,-0.0,-0.0,-0.0,-0.0,-0.0,-0.0,-0.0,-0.0,-0.0,-0.0,-0.0,-0.0,-0.0,-0.0,-0.0,-0.0,-0.0,-0.0,-0.0,-0.0,-0.0,-0.0,-0.0,-0.0,-0.0,-0.0,-0.0248,-0.0,-0.0973,-0.1652,-0.1771,-0.1893,-0.188,-0.1846,-0.1869,-0.1879,-0.1855,-0.188,-0.1896,-0.1872,-0.19,-0.1937,-1.5994,-1.5643,-1.5803,-1.5839,-1.5731,-1.487,-1.3091,-1.0721,-1.1635,-1.1296,-1.0161,-1.0179,-1.0172,-1.0313,-1.0331,-1.0226,-1.0127,-1.0005,-1.0029,-1.0178,-1.0307,-1.0334,-1.028,-1.0249,-1.0063,-0.9727,-0.9313,-0.911,-0.8997,-0.8684,-0.8886,-0.9497,-0.955,-0.9923,-1.0485,0.0,0.0,0.0,-0.5324,-0.4254,-0.2795,-0.2955,-0.305,-0.321,-0.3338,0.0,-0.3095,-0.2768,-0.2534,-0.2538,-0.2506,0.0,0.0,0.0,0.0,0.0,0.0,0.0,0.0,0.0,0.0,0.0,-0.042,0.0083,0.0158,0.0504,0.0808,0.123,0.128,0.0916,0.0313,0.0108,-0.0,-0.0,-0.0,-0.0,-0.0,-0.0,-0.0,-0.0,-0.0,-0.0,-0.0,-0.0,-0.0,-0.0,-0.0,-0.0,-0.0,-0.0,-0.0,-0.0,-0.0,-0.0,-0.0,-0.0,-0.0518,-0.1421,-0.1642,-0.1238,-0.0865,-0.0845,-0.1296,-0.1766,-0.1885,-0.1874,-0.1847,-0.1877,-0.1899,-0.1881,-0.1946,-0.1988,-0.1928,-0.1943,-0.1981,-1.6617,0.0,-1.6711,-1.6938,0.0,-1.7013,-1.6048,-1.4312,-1.3505,-1.2393,-1.1023,-1.0653,-1.0464,-1.0375,-1.0154,-0.993,-0.971,-0.9486,-0.9507,-0.9727,-1.0197,-1.0343,-1.0423,-1.0827,-1.0692,-1.0297,-1.0026,-0.9792,-0.972,-0.9599,-0.9913,-1.0308,-1.0632,-1.0876,-1.1148,-1.0544,-0.899,-0.6478,-0.5795,-0.474,-0.341,-0.3361,-0.346,-0.3482,-0.3601,0.0,0.0,0.0,0.0,0.0,0.0,0.0,0.0,0.0,0.0,-0.2876,-0.2009,-0.2146,-0.3458,-0.4398,-0.403,-0.1934,-0.0967,-0.0388,-0.0,0.0193,0.0404,0.0629,0.0651,0.0446,-0.0,-0.0,-0.0,-0.0,-0.0,-0.0,-0.0,-0.0,-0.0,-0.0,-0.0,-0.0,-0.0,-0.0,-0.0,-0.0,-0.0,-0.0,-0.0,-0.0,-0.0,-0.0,-0.0,-0.0,-0.0,-0.0639,-0.1137,-0.1889,-0.1972,-0.1821,-0.1463,-0.1427,-0.151,-0.1845,-0.1841,-0.1838,-0.1844,-0.1865,-0.1887,-0.1905,-0.1973,-0.2033,-0.2013,-0.2029,-0.2049,-1.7332,-1.7297,-1.7579,-1.7887,-1.8112,-1.8474,-1.8329,-1.7934,0.0,0.0,0.0,-1.119,-1.0685,-1.039,-0.9961,-0.9659,-0.9367,-0.9072,-0.91,-0.9507,-1.0165,-1.053,-1.0724,-1.1265,-1.1445,-1.1038,-1.0676,-1.0435,-1.0414,-1.0615,-1.078,-1.0945,-1.1491,-1.1667,-1.1451,-1.0694,-0.9195,-0.7051,-0.6379,-0.534,-0.39,-0.3775,-0.3768,-0.3768,-0.367,-0.3564,-0.3359,-0.2854,-0.2592,-0.2543,-0.273,-0.2855,-0.2846,-0.317,-0.368,-0.4126,-0.3444,-0.3476,-0.4873,-0.5876,-0.539,-0.2735,-0.2011,-0.1284,-0.031,-0.0212,-0.0219,-0.0226,-0.0116,-0.0,-0.0,-0.0,-0.0,-0.0,-0.0,-0.0,-0.0,-0.0,-0.0,-0.0,-0.0,-0.0,-0.0,-0.0,-0.0,-0.0,-0.0,-0.0,-0.0,-0.0,-0.0,-0.0,-0.0,-0.0,-0.0505,-0.1128,-0.1853,-0.1967,-0.2048,-0.2024,-0.1915,-0.1881,-0.1833,-0.1805,-0.1795,-0.1809,-0.1834,-0.1859,-0.188,-0.2038,-0.1991,-0.206,-0.2095,-0.2111,-0.2112,-1.825,-1.8223,-1.8653,-1.8916,-1.9277,-1.9489,-1.9258,-1.844,-1.5274,-1.367,-1.3054,-1.1762,-1.0946,-1.0644,-1.0084,-0.9659,-0.9367,-0.9076,-0.9212,-0.9856,-1.0165,-1.0711,-1.1132,-1.1445,-1.1622,-1.152,-1.0945,-1.0831,-1.1152,-1.102,-1.1204,-1.1366,-1.1675,-1.1606,-1.1277,-1.0748,-0.9546,-0.7817,-0.6906,-0.5663,-0.3965,-0.3797,-0.3768,-0.3763,-0.3636,-0.3562,-0.3428,-0.3083,-0.2817,-0.2524,-0.2755,-0.2807,-0.2593,-0.3422,-0.4137,-0.4587,-0.4224,-0.4545,-0.6084,-0.6893,-0.6442,-0.4352,-0.4157,-0.3318,-0.111,-0.0901,-0.0918,-0.0818,-0.0358,-0.0,-0.0,-0.0,-0.0,-0.0,-0.0,-0.0,-0.0,-0.0,-0.0,-0.0,-0.0,-0.0,-0.0,-0.0,-0.0,-0.0,-0.0,-0.0,-0.0,-0.0,-0.0,-0.0,-0.0,-0.0,-0.1383,-0.1752,-0.1969,-0.205,-0.1927,-0.1922,-0.1925,-0.1882,-0.1834,-0.18,-0.1795,-0.1808,-0.1836,-0.1885,-0.1925,-0.1964,-0.2037,-0.2103,-0.2135,-0.2144,-0.2139,-1.9117,-1.9117,-1.9262,-1.9541,-1.982,-2.0125,-1.9923,-1.9264,-1.8121,-1.6394,-1.428,-1.2732,-1.1671,-1.0893,-1.0207,-0.9735,-0.9352,-0.9261,-0.9552,-1.0067,-1.0509,-1.1134,-1.1672,-1.2067,-1.2188,-1.2161,-1.1763,-1.1685,-1.1785,-1.1542,-1.1531,-1.1646,-1.1638,-1.1492,-1.1232,-1.0826,-1.0021,-0.8818,-0.7692,-0.6425,-0.4875,-0.4883,-0.4889,-0.4885,-0.4505,-0.4087,-0.3538,-0.3736,-0.3709,-0.3144,-0.3323,-0.3448,-0.3539,-0.4204,-0.483,-0.5372,-0.5241,-0.5606,-0.6759,-0.6832,-0.6302,-0.5169,-0.4975,-0.4395,-0.3309,-0.3236,-0.3032,-0.22,-0.1487,-0.0752,-0.0,-0.0,-0.0,-0.0,-0.0,-0.0,-0.0,-0.0,-0.0,-0.0,-0.0,-0.0,-0.0,-0.0,-0.0,-0.0,-0.0,-0.0,-0.0,-0.0,-0.0,-0.0,-0.0,-0.0,-0.1744,-0.199,-0.1969,-0.2073,-0.1939,-0.1926,-0.1911,-0.1879,-0.1849,-0.1806,-0.1795,-0.1814,-0.1854,-0.19,-0.1951,-0.2017,-0.2065,-0.2117,-0.2145,-0.2155,-0.2149,-1.9739,-1.9739,-1.9796,-1.9965,-2.0249,-2.0521,-2.0539,-2.0227,-2.0655,-1.9252,-1.6348,-1.4099,-1.2544,-1.1584,-1.0755,-1.015,-0.9876,-0.9719,-1.0048,-1.0456,-1.1043,-1.1563,-1.2111,-1.2694,-1.2836,-1.2804,-1.2511,-1.2492,-1.2324,-1.2131,-1.193,-1.1993,-1.1786,-1.1579,-1.1278,-1.1064,-1.0504,-0.9604,-0.8706,-0.7684,-0.6368,-0.6334,-0.6372,-0.6361,-0.5845,-0.5062,-0.4168,-0.4622,-0.4664,-0.4103,-0.3967,-0.4086,-0.4318,-0.4946,-0.5527,-0.613,-0.6233,-0.6512,-0.7207,-0.6882,-0.6539,-0.6211,-0.5914,-0.563,-0.584,-0.593,-0.5208,-0.3679,-0.2682,-0.1674,-0.0,-0.0,-0.0,-0.0,-0.0267,-0.0,-0.0,-0.0257,-0.025,-0.0241,-0.0228,-0.0,-0.0222,-0.0217,-0.0,-0.0,-0.0447,-0.0452,-0.046,-0.0462,-0.0472,-0.0366,-0.0244,-0.0485,-0.16,-0.1854,-0.1976,-0.1976,-0.1958,-0.1934,-0.191,-0.1898,-0.1872,-0.1825,-0.1814,-0.1835,-0.1879,-0.1925,-0.1978,-0.2045,-0.2093,-0.2128,-0.2149,-0.2155,-0.2155,-2.0179,-2.0215,-2.0431,-2.0665,-2.0665,-2.0635,-2.0888,-2.1139,-2.1505,-2.0944,-1.909,-1.5868,-1.39,-1.3,-1.1768,-1.1137,-1.0954,-1.0575,-1.0772,-1.1222,-1.1693,-1.2095,-1.2548,-1.3139,-1.3099,-1.2943,-1.2884,-1.2913,-1.2631,-1.2545,-1.2529,-1.2577,-1.2234,-1.1968,-1.1764,-1.142,-1.0907,-1.0357,-1.025,-0.9554,-0.8328,-0.8254,-0.826,-0.8379,-0.8008,-0.6961,-0.5428,-0.5545,-0.5608,-0.5246,-0.4996,-0.4758,-0.453,-0.5439,-0.6324,-0.6998,-0.7017,-0.7351,-0.779,-0.7715,-0.7758,-0.7867,-0.7751,-0.7687,-0.7803,-0.792,-0.7032,-0.5034,-0.3476,-0.2594,-0.1442,-0.1185,-0.1325,-0.1607,-0.1344,-0.0933,-0.1041,-0.0902,-0.0882,-0.0832,-0.103,-0.0784,-0.0892,-0.0864,-0.1063,-0.1972,-0.1897,-0.1934,-0.2103,-0.212,-0.2166,-0.188,-0.0993,-0.061,-0.1233,-0.1606,-0.21,-0.2099,-0.1974,-0.2076,-0.2052,-0.1919,-0.1907,-0.1854,-0.1855,-0.1874,-0.19,-0.1949,-0.2016,-0.2055,-0.2104,-0.2151,-0.2155,-0.2155,-0.2155,-2.0279,-2.0303,-2.0563,-2.0804,-2.0937,-2.0762,-2.1044,-2.1615,-2.2121,-2.1668,-2.0074,-1.8097,-1.6207,-1.4519,-1.3123,-1.2356,-1.1938,-1.157,-1.1598,-1.2101,-1.2266,-1.2556,-1.3118,-1.3329,-1.3367,-1.3337,-1.3168,-1.3079,-1.3144,-1.2957,-1.2791,-1.2697,-1.2328,-1.2052,-1.1836,-1.1581,-1.1212,-1.0993,-1.1098,-1.0988,-1.0584,-0.9795,-0.9514,-0.9652,-0.9112,-0.843,-0.7728,-0.6882,-0.6282,-0.5945,-0.562,-0.5333,-0.5446,-0.6052,-0.6656,-0.7227,-0.7453,-0.7714,-0.7861,-0.7937,-0.8,-0.8051,-0.8122,-0.8212,-0.8331,-0.8391,-0.7895,-0.6863,-0.6203,-0.5032,-0.2924,-0.3195,-0.4141,-0.4972,-0.4437,-0.3599,-0.3403,-0.3366,-0.3282,-0.312,-0.2874,-0.2464,-0.1901,-0.1322,-0.2181,-0.3963,-0.4254,-0.3796,-0.4742,-0.505,-0.5195,-0.5125,-0.4553,-0.3748,-0.3153,-0.2992,-0.3093,-0.3085,-0.2962,-0.2824,-0.2549,-0.2292,-0.2153,-0.1874,-0.1883,-0.1898,-0.1911,-0.1966,-0.2028,-0.2066,-0.211,-0.2155,-0.2155,-0.2155,-0.2155,-2.0306,-2.0355,-2.0796,-2.122,-2.1346,-2.1038,-2.1321,-2.2042,-2.2651,-2.2172,-2.0882,-1.9936,-1.8494,-1.6398,-1.4622,-1.3559,-1.3141,-1.2824,-1.2767,-1.2934,-1.3126,-1.3232,-1.349,-1.363,-1.3752,-1.3857,-1.3613,-1.3522,-1.3696,-1.3394,-1.3119,-1.3009,-1.2597,-1.2279,-1.2163,-1.1709,-1.1507,-1.1507,-1.1714,-1.1926,-1.1945,-1.1114,-1.0751,-1.1041,-1.047,-1.0032,-0.9995,-0.8161,-0.6842,-0.6487,-0.6072,-0.6034,-0.6285,-0.6656,-0.6924,-0.7306,-0.7706,-0.7886,-0.7918,-0.8005,-0.8084,-0.8152,-0.8239,-0.8337,-0.8435,-0.8465,-0.8371,-0.8169,-0.8192,-0.684,-0.4559,-0.4832,-0.6183,-0.7675,-0.6319,-0.5337,-0.4981,-0.4923,-0.481,-0.4717,-0.4288,-0.3807,-0.2775,-0.1998,-0.267,-0.5068,-0.5386,-0.5315,-0.6412,-0.6517,-0.6539,-0.7084,-0.7241,-0.6704,-0.5394,-0.4908,-0.483,-0.4478,-0.424,-0.3721,-0.3313,-0.2943,-0.2431,-0.2048,-0.2036,-0.1918,-0.1943,-0.199,-0.2045,-0.2083,-0.2124,-0.2155,-0.2155,-0.2155,-0.2155,-2.0166,-2.0526,-2.1407,-2.1766,-2.176,-2.1721,-2.1996,-2.231,-2.2735,-2.2539,-2.1819,-2.1248,-2.0289,-1.8875,-1.6342,-1.5027,-1.4871,-1.4457,-1.4154,-1.4121,-1.4159,-1.4128,-1.3875,-1.4141,-1.4141,-1.4006,-1.4115,-1.415,-1.4112,-1.3893,-1.3821,-1.3845,-1.3255,-1.297,-1.2724,-1.2037,-1.1822,-1.1714,-1.1817,-1.1902,-1.2091,-1.2037,-1.2167,-1.2474,-1.2261,-1.1973,-1.1675,-0.9265,-0.7524,-0.681,-0.6597,-0.6706,-0.6931,-0.7081,-0.732,-0.752,-0.7799,-0.7924,-0.8146,-0.8182,-0.8152,-0.8348,-0.8397,-0.8454,-0.8549,-0.8562,-0.8571,-0.8587,-0.8456,-0.7646,-0.6034,-0.577,-0.6044,-0.6587,-0.6046,-0.5574,-0.5182,-0.5424,-0.5051,-0.4974,-0.4911,-0.4276,-0.2801,-0.2635,-0.3213,-0.4189,-0.4888,-0.5577,-0.5962,-0.5657,-0.6034,-0.7088,-0.7764,-0.7986,-0.7434,-0.6674,-0.6374,-0.6162,-0.5412,-0.4911,-0.4187,-0.3557,-0.2876,-0.2349,-0.2332,-0.2209,-0.2105,-0.2019,-0.2074,-0.2112,-0.2134,-0.2154,-0.2155,-0.2155,-0.2155,-2.1044,-2.1344,-2.1683,-2.1904,-2.2029,-2.1859,-2.214,-2.2722,-2.2859,-2.2532,-2.1984,-2.157,-2.0816,-1.9756,-1.8392,-1.73,-1.6429,-1.6018,-1.5742,-1.5564,-1.5279,-1.4917,-1.4786,-1.4534,-1.4534,-1.4539,-1.4403,-1.4303,-1.4112,-1.4159,-1.4084,-1.3939,-1.3377,-1.3027,-1.2838,-1.22,-1.1817,-1.1817,-1.1817,-1.1728,-1.1619,-1.1926,-1.2101,-1.1983,-1.2181,-1.2205,-1.1925,-0.8751,-0.6878,-0.683,-0.6796,-0.6844,-0.7086,-0.7358,-0.7592,-0.7782,-0.7847,-0.7926,-0.8165,-0.8259,-0.837,-0.8397,-0.8489,-0.8538,-0.8579,-0.8587,-0.8587,-0.8587,-0.8587,-0.8184,-0.7781,-0.7514,-0.7514,-0.7653,-0.7648,-0.7327,-0.7206,-0.7119,-0.6981,-0.6733,-0.6242,-0.5514,-0.4798,-0.4276,-0.4334,-0.5608,-0.559,-0.6066,-0.7119,-0.7327,-0.7469,-0.8556,-0.9199,-0.9448,-0.936,-0.8035,-0.7182,-0.7161,-0.6825,-0.616,-0.5545,-0.4773,-0.4086,-0.3476,-0.3222,-0.2736,-0.2752,-0.2156,-0.2215,-0.2112,-0.2136,-0.2155,-0.2155,-0.2155,-0.2155,-2.1648,-2.2016,-2.2042,-2.231,-2.2441,-2.2284,-2.2421,-2.2859,-2.2859,-2.2585,-2.2118,-2.1854,-2.1397,-2.0697,-2.0255,-1.962,-1.8643,-1.7804,-1.7263,-1.7109,-1.6473,-1.6089,-1.5829,-1.5183,-1.4931,-1.5066,-1.4665,-1.4465,-1.4332,-1.4388,-1.4312,-1.4081,-1.348,-1.3131,-1.2947,-1.2238,-1.1846,-1.1888,-1.1794,-1.1595,-1.1468,-1.1808,-1.1907,-1.1718,-1.1859,-1.2044,-1.1822,-0.8859,-0.707,-0.6889,-0.7001,-0.7219,-0.7315,-0.76,-0.779,-0.7861,-0.7872,-0.7945,-0.822,-0.832,-0.8304,-0.8459,-0.8541,-0.8587,-0.8587,-0.8587,-0.8587,-0.8587,-0.8587,-0.8587,-0.8587,-0.8587,-0.8587,-0.8587,-0.8587,-0.8541,-0.8429,-0.8307,-0.7985,-0.7718,-0.7097,-0.6601,-0.6177,-0.5437,-0.556,-0.6621,-0.6293,-0.6979,-0.818,-0.8401,-0.8794,-0.9652,-0.9886,-0.9907,-0.9797,-0.8931,-0.8582,-0.8583,-0.7988,-0.7431,-0.6777,-0.5984,-0.5335,-0.4729,-0.425,-0.3765,-0.3163,-0.2561,-0.2205,-0.2104,-0.2132,-0.2155,-0.2155,-0.2155,-0.2155,-2.2056,-2.2291,-2.2722,-2.2866,-2.2859,-2.2859,-2.2859,-2.2866,-2.2866,-2.2659,-2.2391,-2.2195,-2.1915,-2.1573,-2.1527,-2.1533,-2.1039,-1.9562,-1.8819,-1.8518,-1.8156,-1.7647,-1.6996,-1.6224,-1.5714,-1.5332,-1.5066,-1.4931,-1.4768,-1.47,-1.4496,-1.4227,-1.3688,-1.3277,-1.3065,-1.2309,-1.195,-1.2006,-1.1761,-1.1628,-1.1784,-1.1817,-1.1822,-1.169,-1.1444,-1.1626,-1.2263,-1.0297,-0.8438,-0.7308,-0.755,-0.7759,-0.771,-0.7898,-0.7858,-0.7864,-0.7867,-0.7983,-0.819,-0.8233,-0.8337,-0.8524,-0.8584,-0.8587,-0.8587,-0.8587,-0.8587,-0.8587,-0.8587,-0.8587,-0.8587,-0.8587,-0.8587,-0.8587,-0.8587,-0.8541,-0.844,-0.8312,-0.81,-0.7796,-0.7359,-0.6768,-0.631,-0.6221,-0.6284,-0.6374,-0.7057,-0.7832,-0.8384,-0.8326,-0.867,-0.9493,-0.9808,-0.995,-0.9832,-0.9842,-1.0015,-1.0158,-0.9274,-0.8617,-0.7991,-0.7323,-0.6742,-0.6123,-0.5295,-0.4685,-0.3694,-0.3091,-0.2466,-0.2234,-0.2263,-0.2153,-0.2155,-0.2155,-0.2155,-2.2369,-2.2722,-2.2859,-2.2866,-2.2866,-2.2866,-2.2866,-2.2866,-2.2866,-2.2721,-2.2542,-2.2449,-2.2215,-2.2062,-2.2006,-2.1964,-2.1964,-2.1339,-2.0883,-2.0569,-2.0068,-1.9291,-1.8262,-1.7238,-1.6089,-1.5192,-1.4936,-1.4936,-1.4898,-1.4733,-1.4525,-1.4251,-1.383,-1.3419,-1.3055,-1.2531,-1.2233,-1.2106,-1.1869,-1.1699,-1.1638,-1.1746,-1.1751,-1.1647,-1.1592,-1.1742,-1.1971,-1.13,-1.0294,-0.8876,-0.8719,-0.8411,-0.8092,-0.809,-0.8032,-0.7853,-0.7793,-0.7905,-0.8182,-0.8242,-0.8339,-0.853,-0.8587,-0.8587,-0.8587,-0.8587,-0.8587,-0.8587,-0.8587,-0.8587,-0.8587,-0.8587,-0.8587,-0.8587,-0.8587,-0.8573,-0.8508,-0.8356,-0.8122,-0.7872,-0.7595,-0.7442,-0.7271,-0.7285,-0.7241,-0.7276,-0.7829,-0.8379,-0.8596,-0.8599,-0.8693,-0.96,-0.9717,-0.9861,-0.9798,-0.9846,-1.0081,-1.0173,-0.9689,-0.9334,-0.886,-0.8472,-0.7894,-0.7291,-0.6467,-0.5496,-0.45,-0.363,-0.3007,-0.2501,-0.2265,-0.228,-0.2153,-0.2153,-0.2148,-2.2722,-2.2866,-2.2996,-2.3133,-2.3126,-2.2969,-2.3106,-2.3249,-2.2998,-2.2875,-2.2821,-2.282,-2.2657,-2.2441,-2.2419,-2.2487,-2.2487,-2.2487,-2.2362,-2.1985,-2.1348,-2.0443,-1.94,-1.7731,-1.6592,-1.5839,-1.5583,-1.5458,-1.5318,-1.5062,-1.4728,-1.4293,-1.3972,-1.3551,-1.3074,-1.2654,-1.2337,-1.2129,-1.185,-1.1647,-1.1567,-1.1638,-1.1642,-1.1576,-1.1794,-1.1964,-1.2049,-1.2159,-1.1873,-1.0969,-1.0092,-0.9432,-0.8978,-0.865,-0.8304,-0.7831,-0.7739,-0.7842,-0.8125,-0.8206,-0.8339,-0.8532,-0.8587,-0.8587,-0.8587,-0.8587,-0.8587,-0.8587,-0.8587,-0.8587,-0.8587,-0.8587,-0.8587,-0.8587,-0.8587,-0.8568,-0.8519,-0.8397,-0.8206,-0.7992,-0.7961,-0.7895,-0.7939,-0.7917,-0.7969,-0.8078,-0.8273,-0.8601,-0.8912,-0.9023,-0.9329,-0.9605,-0.9779,-0.9837,-0.9808,-0.9863,-0.9907,-0.9927,-0.9811,-0.9585,-0.936,-0.9205,-0.8775,-0.8301,-0.7509,-0.6682,-0.5562,-0.4324,-0.3574,-0.306,-0.2399,-0.228,-0.2153,-0.2138,-0.2131,-2.3003,-2.2996,-2.3406,-2.3543,-2.34,-2.3195,-2.3324,-2.3718,-2.334,-2.316,-2.3273,-2.3091,-2.3071,-2.3105,-2.2964,-2.2981,-2.3106,-2.2981,-2.2981,-2.2738,-2.2104,-2.1215,-2.0189,-1.8489,-1.7474,-1.7125,-1.6753,-1.6494,-1.6094,-1.5689,-1.5114,-1.4322,-1.4104,-1.3712,-1.3164,-1.2687,-1.2408,-1.2167,-1.1775,-1.1567,-1.1524,-1.1524,-1.1529,-1.1539,-1.2016,-1.2312,-1.238,-1.2649,-1.2971,-1.2802,-1.1356,-1.0402,-1.008,-0.9476,-0.8685,-0.7688,-0.7641,-0.7942,-0.8149,-0.8179,-0.8339,-0.8552,-0.8587,-0.8587,-0.8587,-0.8587,-0.8587,-0.8587,-0.8587,-0.8587,-0.8587,-0.8587,-0.8587,-0.8587,-0.8587,-0.8546,-0.8451,-0.8424,-0.8301,-0.8248,-0.8338,-0.8283,-0.8146,-0.8241,-0.8225,-0.8335,-0.8628,-0.8861,-0.906,-0.9231,-0.9582,-0.969,-0.9707,-0.9676,-0.9643,-0.9761,-0.9829,-0.9905,-0.9858,-0.9798,-0.9536,-0.949,-0.9174,-0.8699,-0.8179,-0.7355,-0.6389,-0.5015,-0.3844,-0.3177,-0.2661,-0.2281,-0.2144,-0.2127,-0.2112,-2.4495,-2.4495,-2.4224,-2.4224,-2.4224,-2.3931,-2.3656,-2.363,-2.3827,-2.3495,-2.3256,-2.3164,-2.3069,-2.3119,-2.3157,-2.3106,-2.3084,-2.3091,-2.3106,-2.3113,-2.2856,-2.1971,-2.0956,-2.0043,-1.9145,-1.853,-1.8156,-1.7512,-1.6726,-1.6348,-1.5608,-1.4326,-1.4241,-1.3915,-1.3348,-1.3017,-1.2715,-1.2351,-1.195,-1.1652,-1.1524,-1.151,-1.152,-1.1557,-1.1921,-1.2228,-1.2474,-1.3079,-1.3105,-1.261,-1.1892,-1.1323,-1.0924,-1.0155,-0.9147,-0.7923,-0.7872,-0.7999,-0.8215,-0.8214,-0.8345,-0.8552,-0.8587,-0.8587,-0.8587,-0.8587,-0.8587,-0.8587,-0.8587,-0.8587,-0.8587,-0.8587,-0.8587,-0.8587,-0.8587,-0.8573,-0.8532,-0.8465,-0.8513,-0.8696,-0.8509,-0.8643,-0.876,-0.8712,-0.8804,-0.8778,-0.894,-0.9079,-0.9215,-0.9201,-0.9373,-0.9542,-0.9557,-0.9516,-0.9447,-0.9553,-0.967,-0.984,-0.9837,-0.9831,-0.9545,-0.9249,-0.8874,-0.8399,-0.7702,-0.6997,-0.6027,-0.4904,-0.41,-0.3286,-0.2664,-0.215,-0.2129,-0.2111,-0.2095,-2.5955,-2.5816,-2.5555,-2.5165,-2.488,-2.4658,-2.4216,-2.4001,-2.3744,-2.3595,-2.3235,-2.3181,-2.3163,-2.3113,-2.3106,-2.3025,-2.2915,-2.2901,-2.2901,-2.293,-2.304,-2.2473,-2.1594,-2.1082,-2.0583,-1.9941,-1.9431,-1.8658,-1.7882,-1.7243,-1.6095,-1.5006,-1.4558,-1.4113,-1.3405,-1.3169,-1.2926,-1.2459,-1.1978,-1.1685,-1.1411,-1.1383,-1.1378,-1.1463,-1.1794,-1.2181,-1.2682,-1.3355,-1.34,-1.3054,-1.2658,-1.2449,-1.1996,-1.1228,-1.0098,-0.8644,-0.8558,-0.8486,-0.8062,-0.8198,-0.8345,-0.853,-0.8587,-0.8587,-0.8587,-0.8587,-0.8587,-0.8587,-0.8587,-0.8587,-0.8587,-0.8587,-0.872,-0.8853,-0.8853,-0.8717,-0.8587,-0.8662,-0.873,-0.8906,-0.9006,-0.8998,-0.9174,-0.9173,-0.9146,-0.9111,-0.9161,-0.9266,-0.9412,-0.9269,-0.9188,-0.9337,-0.9384,-0.9292,-0.9369,-0.9503,-0.9576,-0.9754,-0.987,-0.9871,-0.9376,-0.8952,-0.8293,-0.7785,-0.7217,-0.6498,-0.5495,-0.4727,-0.405,-0.3271,-0.2527,-0.2131,-0.2107,-0.2091,-0.2075,-2.7556,-2.7198,-2.6855,-2.6337,-2.5606,-2.5137,-2.4679,-2.4335,-2.3594,-2.3312,-2.3337,-2.323,-2.3142,-2.3106,-2.3025,-2.2893,-2.2637,-2.2608,-2.2623,-2.2718,-2.2893,-2.2659,-2.223,-2.1985,-2.1734,-2.1222,-2.0589,-1.9947,-1.9297,-1.8273,-1.6981,-1.5768,-1.5052,-1.4363,-1.3646,-1.323,-1.2912,-1.2454,-1.2025,-1.1587,-1.1373,-1.1264,-1.1236,-1.1307,-1.1648,-1.2206,-1.2923,-1.3429,-1.3674,-1.3684,-1.3688,-1.337,-1.2863,-1.246,-1.1678,-1.0424,-0.9679,-0.8995,-0.8268,-0.8312,-0.8334,-0.8532,-0.8584,-0.8587,-0.8587,-0.8587,-0.8587,-0.8587,-0.8587,-0.8587,-0.8587,-0.8587,-0.872,-0.8848,-0.8975,-0.8961,-0.8837,-0.8978,-0.9076,-0.9095,-0.9478,-0.9443,-0.9431,-0.9361,-0.951,-0.9367,-0.931,-0.9357,-0.9422,-0.9337,-0.9232,-0.9195,-0.9188,-0.924,-0.9336,-0.9432,-0.9598,-0.9761,-0.9898,-0.9784,-0.8995,-0.8357,-0.7612,-0.7035,-0.6215,-0.5575,-0.491,-0.4264,-0.3742,-0.3219,-0.2468,-0.221,-0.2073,-0.2063,-0.205,-2.8871,-2.819,-2.7702,-2.6877,-2.5998,-2.4981,-2.4276,-2.3815,-2.3355,-2.3153,-2.3237,-2.3135,-2.3106,-2.3091,-2.2871,-2.2681,-2.2571,-2.2403,-2.2396,-2.2623,-2.2674,-2.2893,-2.2798,-2.2738,-2.2738,-2.248,-2.223,-2.1594,-2.0703,-1.9643,-1.8392,-1.6463,-1.5763,-1.4931,-1.3775,-1.3381,-1.3098,-1.2644,-1.2033,-1.162,-1.1453,-1.1264,-1.1208,-1.1288,-1.1576,-1.2169,-1.2894,-1.3466,-1.3679,-1.3688,-1.3684,-1.3655,-1.3347,-1.2872,-1.2495,-1.2192,-1.0825,-0.965,-0.9221,-0.9091,-0.8975,-0.8789,-0.8964,-0.8851,-0.8587,-0.8587,-0.8587,-0.8587,-0.8587,-0.8587,-0.8587,-0.8587,-0.8712,-0.8695,-0.8896,-0.8967,-0.8984,-0.9321,-0.9603,-0.9814,-0.9764,-0.9674,-0.9711,-0.9593,-0.9602,-0.951,-0.9479,-0.9459,-0.9435,-0.9415,-0.9296,-0.9195,-0.9161,-0.9127,-0.9093,-0.9225,-0.9483,-0.958,-0.9832,-0.9581,-0.8676,-0.7777,-0.7124,-0.6163,-0.5211,-0.4552,-0.4019,-0.3732,-0.3092,-0.2684,-0.2283,-0.2157,-0.2031,-0.2027,-0.2034,-3.0065,-2.9221,-2.828,-2.7222,-2.6009,-2.4688,-2.3918,-2.3596,-2.3272,-2.3126,-2.3128,-2.3106,-2.3106,-2.3076,-2.2776,-2.2564,-2.2359,-2.2111,-2.2125,-2.2389,-2.255,-2.2813,-2.3047,-2.3106,-2.3106,-2.3106,-2.2731,-2.2223,-2.1468,-2.0657,-1.9292,-1.7432,-1.6651,-1.5544,-1.4311,-1.3721,-1.3399,-1.2986,-1.2238,-1.168,-1.1425,-1.1264,-1.1335,-1.1433,-1.1769,-1.2169,-1.2813,-1.3466,-1.3655,-1.3688,-1.3688,-1.3688,-1.3684,-1.3347,-1.337,-1.3301,-1.2183,-1.1292,-1.1211,-1.0552,-1.0025,-0.9655,-0.9551,-0.9062,-0.8825,-0.8581,-0.8587,-0.8587,-0.8587,-0.8587,-0.8587,-0.8587,-0.8573,-0.8624,-0.853,-0.8674,-0.8985,-0.9472,-0.9726,-0.9948,-0.9905,-0.9857,-0.9801,-0.9798,-0.9751,-0.969,-0.9683,-0.9663,-0.9622,-0.9571,-0.9364,-0.9256,-0.9215,-0.9154,-0.9052,-0.9147,-0.9364,-0.952,-0.9608,-0.9232,-0.8468,-0.7492,-0.6473,-0.5415,-0.4458,-0.342,-0.2884,-0.273,-0.2699,-0.2413,-0.2141,-0.1999,-0.1996,-0.201,-0.202,-3.0997,-3.0075,-2.8736,-2.7478,-2.6009,-2.4637,-2.385,-2.3598,-2.323,-2.3128,-2.3106,-2.3106,-2.3076,-2.2967,-2.2681,-2.2374,-2.2023,-2.1803,-2.1796,-2.2103,-2.2396,-2.2674,-2.293,-2.3054,-2.3106,-2.3113,-2.2856,-2.2466,-2.2027,-2.124,-2.0165,-1.8643,-1.7708,-1.6343,-1.5017,-1.4089,-1.3621,-1.3159,-1.2517,-1.1882,-1.1439,-1.1279,-1.1378,-1.1597,-1.1732,-1.2165,-1.2927,-1.3438,-1.3688,-1.3688,-1.3688,-1.3688,-1.3688,-1.3693,-1.3698,-1.3707,-1.2586,-1.2465,-1.2772,-1.2085,-1.1058,-1.0966,-1.036,-0.9642,-0.9065,-0.8706,-0.8717,-0.8717,-0.8717,-0.8587,-0.8587,-0.8587,-0.8673,-0.8716,-0.845,-0.8632,-0.9106,-0.9564,-0.9629,-0.9803,-0.9863,-0.9865,-0.9968,-0.991,-0.9893,-0.9883,-0.988,-0.9876,-0.9839,-0.9744,-0.9557,-0.9367,-0.932,-0.9211,-0.9106,-0.91,-0.9313,-0.9388,-0.9452,-0.895,-0.833,-0.7672,-0.6713,-0.4935,-0.3821,-0.3042,-0.2384,-0.2369,-0.2335,-0.2033,-0.2002,-0.1988,-0.199,-0.1998,-0.201,-3.0955,-2.9943,-2.9252,-2.7972,-2.6469,-2.5014,-2.4215,-2.3731,-2.3274,-2.3106,-2.3106,-2.3106,-2.2959,-2.271,-2.2396,-2.1942,-2.1518,-2.1364,-2.1496,-2.1803,-2.2125,-2.2462,-2.274,-2.301,-2.3091,-2.3106,-2.2944,-2.2704,-2.2407,-2.2053,-2.0944,-1.962,-1.8785,-1.7386,-1.5634,-1.4405,-1.3776,-1.325,-1.2618,-1.2098,-1.1671,-1.1312,-1.1387,-1.1609,-1.1778,-1.2252,-1.2922,-1.3443,-1.3688,-1.3688,-1.3688,-1.3688,-1.3688,-1.3688,-1.3693,-1.3573,-1.296,-1.2933,-1.3351,-1.2785,-1.2215,-1.1822,-1.125,-1.0414,-0.9717,-0.9235,-0.9114,-0.8984,-0.8853,-0.8587,-0.8587,-0.872,-0.8581,-0.8635,-0.8728,-0.8781,-0.9007,-0.9374,-0.9566,-0.9747,-0.9754,-0.9937,-0.9978,-1.0029,-1.0049,-1.007,-1.01,-1.0124,-1.0131,-1.0002,-0.9822,-0.9625,-0.9442,-0.9306,-0.9164,-0.9174,-0.9259,-0.9303,-0.9371,-0.9101,-0.8531,-0.8144,-0.6958,-0.5307,-0.4089,-0.3196,-0.2795,-0.2391,-0.2095,-0.2054,-0.2017,-0.1981,-0.1996,-0.2014,-0.2023,-3.0709,-2.9886,-2.9322,-2.8184,-2.6708,-2.5622,-2.4797,-2.4029,-2.337,-2.3106,-2.3106,-2.3091,-2.293,-2.2615,-2.2323,-2.1745,-2.1167,-2.1159,-2.1298,-2.1525,-2.1942,-2.2337,-2.2623,-2.2945,-2.2959,-2.2901,-2.2842,-2.2791,-2.2637,-2.2263,-2.1399,-2.039,-1.9529,-1.8071,-1.629,-1.5056,-1.4098,-1.3394,-1.2604,-1.2032,-1.1524,-1.1196,-1.139,-1.174,-1.1868,-1.226,-1.2994,-1.3446,-1.3689,-1.3655,-1.3684,-1.3808,-1.3933,-1.3933,-1.3933,-1.3688,-1.3324,-1.3236,-1.3593,-1.3256,-1.304,-1.286,-1.229,-1.1516,-1.0885,-1.03,-0.9779,-0.9386,-0.9256,-0.9125,-0.9259,-0.8984,-0.8958,-0.8993,-0.9053,-0.9074,-0.9117,-0.9155,-0.9367,-0.9635,-0.969,-0.9825,-1.0059,-1.0117,-1.0185,-1.0246,-1.0304,-1.0344,-1.0385,-1.0215,-1.0019,-0.9747,-0.9517,-0.9296,-0.9167,-0.9154,-0.9154,-0.9195,-0.9279,-0.9016,-0.8607,-0.8102,-0.7293,-0.5917,-0.4712,-0.3477,-0.2948,-0.2541,-0.237,-0.2079,-0.2053,-0.2032,-0.2026,-0.203,-0.2039,-3.0528,-2.9922,-2.9294,-2.8334,-2.7159,-2.6255,-2.5282,-2.4371,-2.3487,-2.3106,-2.3098,-2.3018,-2.282,-2.2476,-2.2008,-2.1437,-2.075,-2.1006,-2.1086,-2.124,-2.1759,-2.2228,-2.2535,-2.274,-2.2798,-2.2703,-2.255,-2.2506,-2.2374,-2.2118,-2.1596,-2.0864,-1.9915,-1.8587,-1.6885,-1.5782,-1.463,-1.3404,-1.2507,-1.1874,-1.1315,-1.1194,-1.1512,-1.2233,-1.2151,-1.2365,-1.3074,-1.3727,-1.3834,-1.3737,-1.3679,-1.3808,-1.4047,-1.4167,-1.4167,-1.4052,-1.3928,-1.3808,-1.3942,-1.3952,-1.377,-1.351,-1.3291,-1.2871,-1.258,-1.1762,-1.0707,-1.006,-0.9794,-0.9634,-0.9477,-0.9477,-0.941,-0.9407,-0.9326,-0.9218,-0.915,-0.9232,-0.9284,-0.9422,-0.9561,-0.9771,-1.007,-1.0195,-1.0263,-1.0436,-1.05,-1.05,-1.0507,-1.0344,-1.0127,-0.9825,-0.9557,-0.9293,-0.915,-0.9083,-0.9062,-0.9042,-0.9041,-0.9036,-0.8555,-0.8179,-0.7132,-0.6034,-0.5007,-0.3892,-0.3361,-0.2688,-0.239,-0.2104,-0.2091,-0.2074,-0.2054,-0.2048,-0.2053,-3.0645,-3.0274,-2.9912,-2.9085,-2.7908,-2.715,-2.5766,-2.4186,-2.3472,-2.3106,-2.304,-2.2806,-2.2535,-2.2081,-2.1306,-2.0881,-2.075,-2.0735,-2.0779,-2.0881,-2.1437,-2.1898,-2.2176,-2.225,-2.2454,-2.244,-2.2308,-2.2074,-2.1935,-2.1751,-2.1547,-2.1018,-2.0326,-1.913,-1.7159,-1.643,-1.5106,-1.3463,-1.2583,-1.1978,-1.1356,-1.1346,-1.18,-1.2242,-1.2587,-1.2886,-1.3483,-1.4034,-1.4269,-1.3756,-1.3799,-1.3679,-1.3789,-1.4267,-1.4883,-1.4883,-1.4515,-1.4023,-1.466,-1.4665,-1.4454,-1.4161,-1.4024,-1.4539,-1.441,-1.3218,-1.1633,-1.0326,-1.0183,-0.9996,-0.9786,-0.9618,-0.9537,-0.956,-0.9535,-0.9493,-0.9438,-0.943,-0.9469,-0.9442,-0.9618,-0.9883,-1.0175,-1.0259,-1.0354,-1.0541,-1.0677,-1.0666,-1.0612,-1.0446,-1.0185,-0.9866,-0.9676,-0.9429,-0.9181,-0.911,-0.8913,-0.8846,-0.8868,-0.8882,-0.8275,-0.7661,-0.7139,-0.6042,-0.5012,-0.4019,-0.3215,-0.2674,-0.2268,-0.2129,-0.2118,-0.2095,-0.207,-0.2069,-0.2076,-3.0315,-3.0635,-3.0528,-2.9686,-2.8507,-2.7453,-2.6092,-2.4702,-2.3596,-2.2864,-2.269,-2.2566,-2.2271,-2.1591,-2.0955,-2.0625,-2.0486,-2.045,-2.045,-2.0589,-2.1079,-2.1496,-2.1686,-2.1972,-2.2228,-2.2074,-2.1957,-2.1737,-2.1562,-2.1576,-2.1525,-2.1118,-2.0566,-1.9401,-1.7654,-1.6855,-1.5478,-1.3956,-1.27,-1.1983,-1.178,-1.1775,-1.2093,-1.2851,-1.3308,-1.3795,-1.433,-1.4738,-1.4782,-1.4296,-1.4272,-1.4286,-1.4515,-1.4992,-1.5364,-1.5731,-1.5591,-1.5348,-1.5369,-1.5504,-1.5366,-1.5253,-1.5307,-1.563,-1.5589,-1.4525,-1.2943,-1.1769,-1.129,-1.0689,-1.0097,-1.0035,-0.997,-0.9872,-0.9735,-0.9731,-0.9605,-0.9684,-0.9717,-0.9693,-0.9707,-0.9971,-1.0198,-1.0287,-1.0405,-1.0599,-1.07,-1.0697,-1.0646,-1.0538,-1.0232,-0.9873,-0.973,-0.9598,-0.934,-0.9161,-0.8947,-0.8805,-0.8502,-0.839,-0.7677,-0.7027,-0.6363,-0.5489,-0.4299,-0.3429,-0.2923,-0.2541,-0.2278,-0.2145,-0.2146,-0.2124,-0.2105,-0.211,-0.2103,-2.9648,-3.0254,-3.0478,-2.9968,-2.879,-2.7599,-2.6388,-2.5068,-2.394,-2.3029,-2.2362,-2.2158,-2.1745,-2.105,-2.0611,-2.0303,-2.0128,-2.012,-2.012,-2.0333,-2.0728,-2.1115,-2.148,-2.1825,-2.1825,-2.1796,-2.1744,-2.1698,-2.1617,-2.1624,-2.1647,-2.1196,-2.0685,-1.9675,-1.8407,-1.7315,-1.6089,-1.4194,-1.304,-1.2449,-1.2215,-1.2286,-1.2747,-1.3368,-1.411,-1.4696,-1.516,-1.5597,-1.5484,-1.5258,-1.4878,-1.4878,-1.496,-1.5381,-1.5836,-1.6188,-1.6412,-1.6412,-1.6345,-1.6312,-1.6451,-1.6464,-1.6501,-1.6587,-1.6126,-1.5429,-1.4385,-1.3083,-1.2481,-1.1586,-1.0823,-1.0462,-1.0236,-1.0148,-1.0036,-0.9917,-0.9819,-0.9791,-0.9751,-0.9703,-0.9768,-0.9998,-1.0192,-1.0297,-1.0449,-1.0653,-1.0721,-1.0721,-1.067,-1.0602,-1.0402,-1.0083,-1.0032,-0.9886,-0.9578,-0.9231,-0.897,-0.8514,-0.8317,-0.7696,-0.6813,-0.6017,-0.5089,-0.4308,-0.3475,-0.3006,-0.2511,-0.2269,-0.2155,-0.2153,-0.2151,-0.2153,-0.2147,-0.2147,-0.2116,-2.8408,-2.8535,-2.9316,-2.9292,-2.8512,-2.7921,-2.6618,-2.5101,-2.4484,-2.3444,-2.2215,-2.1576,-2.1006,-2.0384,-2.0077,-1.9894,-1.9791,-1.9791,-2.0034,-2.0241,-2.0633,-2.107,-2.1321,-2.1491,-2.1568,-2.1918,-2.1915,-2.1865,-2.1904,-2.1941,-2.172,-2.1274,-2.0928,-1.9975,-1.8947,-1.8017,-1.6645,-1.4961,-1.388,-1.3176,-1.2904,-1.2928,-1.3337,-1.3899,-1.4636,-1.5281,-1.581,-1.6144,-1.6401,-1.6161,-1.572,-1.5337,-1.5279,-1.5787,-1.6332,-1.6501,-1.6848,-1.6946,-1.6831,-1.7049,-1.7185,-1.7121,-1.7342,-1.7444,-1.7027,-1.6586,-1.5559,-1.425,-1.3652,-1.2467,-1.1415,-1.0767,-1.0517,-1.0132,-0.9903,-0.9795,-0.9747,-0.9805,-0.9764,-0.9707,-0.9829,-1.0063,-1.0246,-1.0365,-1.0483,-1.068,-1.0717,-1.0721,-1.0721,-1.066,-1.0588,-1.0429,-1.0409,-1.0222,-0.9866,-0.9499,-0.9112,-0.8363,-0.7806,-0.6916,-0.5894,-0.5004,-0.4048,-0.349,-0.2782,-0.2451,-0.2236,-0.2131,-0.215,-0.2153,-0.2155,-0.2155,-0.2138,-0.2121,-0.2086,-2.7594,-2.7727,-2.8062,-2.8174,-2.7996,-2.7465,-2.6668,-2.562,-2.4869,-2.3693,-2.2163,-2.1531,-2.0663,-1.9957,-1.9777,-1.9638,-1.9589,-1.9665,-1.9881,-2.0255,-2.0644,-2.0913,-2.1137,-2.1459,-2.185,-2.1932,-2.1941,-2.2002,-2.2116,-2.2108,-2.2002,-2.1632,-2.1241,-2.0531,-1.9672,-1.8633,-1.7155,-1.6005,-1.492,-1.4261,-1.3505,-1.3519,-1.3744,-1.4045,-1.4868,-1.5423,-1.5852,-1.6222,-1.658,-1.6786,-1.6425,-1.6048,-1.5768,-1.64,-1.6524,-1.6633,-1.696,-1.6882,-1.6978,-1.7255,-1.7493,-1.7684,-1.7984,-1.823,-1.7839,-1.768,-1.6974,-1.5913,-1.4679,-1.3345,-1.2103,-1.1317,-1.0677,-1.0138,-0.9785,-0.9707,-0.9673,-0.9744,-0.9744,-0.9676,-0.988,-1.0131,-1.0297,-1.0449,-1.0568,-1.069,-1.0707,-1.0721,-1.0721,-1.0714,-1.0639,-1.0585,-1.0548,-1.0347,-0.989,-0.9562,-0.9235,-0.8256,-0.7328,-0.6194,-0.5184,-0.4085,-0.3238,-0.2684,-0.2367,-0.2165,-0.2082,-0.2125,-0.2146,-0.2153,-0.2155,-0.2155,-0.2131,-0.2104,-0.2064,-2.6922,-2.7112,-2.7222,-2.7416,-2.7631,-2.7227,-2.6803,-2.6316,-2.5238,-2.3753,-2.2169,-2.1375,-2.0457,-1.9821,-1.9687,-1.9716,-1.9539,-1.9621,-1.9837,-2.0317,-2.0734,-2.0939,-2.122,-2.1585,-2.2017,-2.201,-2.2116,-2.223,-2.2449,-2.2335,-2.2251,-2.2131,-2.1634,-2.1162,-2.0542,-1.9346,-1.8142,-1.6979,-1.6204,-1.528,-1.4388,-1.4305,-1.4264,-1.4431,-1.5161,-1.5601,-1.6028,-1.6375,-1.6882,-1.7101,-1.7032,-1.6891,-1.6868,-1.6932,-1.6925,-1.6777,-1.6515,-1.6517,-1.6756,-1.7086,-1.7521,-1.7871,-1.8263,-1.8553,-1.8602,-1.8273,-1.7501,-1.6716,-1.5421,-1.4098,-1.2627,-1.1668,-1.0885,-1.0125,-0.9934,-0.9849,-0.97,-0.969,-0.9676,-0.9652,-0.9903,-1.0141,-1.0324,-1.048,-1.0612,-1.07,-1.0711,-1.0721,-1.0721,-1.0711,-1.0683,-1.0636,-1.0602,-1.0387,-1.0012,-0.979,-0.944,-0.7968,-0.6942,-0.5645,-0.4513,-0.35,-0.2705,-0.2276,-0.2084,-0.2013,-0.2065,-0.2116,-0.214,-0.2154,-0.2155,-0.2155,-0.2138,-0.2108,-0.2063,-2.6567,-2.6526,-2.6866,-2.7276,-2.7713,-2.7123,-2.7231,-2.717,-2.5475,-2.369,-2.2056,-2.1094,-2.0475,-2.0028,-1.9813,-1.9695,-1.965,-1.9753,-1.9925,-2.0195,-2.0841,-2.1217,-2.1526,-2.1896,-2.2274,-2.257,-2.257,-2.2683,-2.2909,-2.2788,-2.2743,-2.2395,-2.1923,-2.1485,-2.1386,-2.0719,-1.9524,-1.8109,-1.75,-1.644,-1.5556,-1.5344,-1.5203,-1.5218,-1.5524,-1.5971,-1.5993,-1.6452,-1.696,-1.7322,-1.7355,-1.7244,-1.7355,-1.7187,-1.7062,-1.6978,-1.6392,-1.6393,-1.6624,-1.6972,-1.7322,-1.7876,-1.8118,-1.8495,-1.8793,-1.8377,-1.763,-1.6829,-1.5524,-1.4137,-1.2867,-1.1736,-1.1027,-1.0381,-1.0059,-0.9937,-0.9785,-0.9696,-0.9696,-0.9683,-0.9883,-1.0117,-1.0317,-1.0497,-1.0643,-1.0717,-1.0717,-1.0721,-1.0721,-1.0714,-1.0697,-1.0683,-1.0649,-1.0491,-1.0247,-1.0099,-0.9526,-0.8008,-0.6754,-0.5539,-0.436,-0.3216,-0.2554,-0.2122,-0.1941,-0.2003,-0.2059,-0.2114,-0.2135,-0.2155,-0.2155,-0.2151,-0.2136,-0.2112,-0.2067,-2.6602,-2.6805,-2.69,-2.716,-2.7416,-2.7222,-2.7329,-2.6937,-2.4491,-2.2584,-2.1821,-2.1085,-2.0462,-1.9964,-1.9876,-1.9789,-1.9528,-2.0158,-2.0308,-2.0155,-2.0914,-2.13,-2.1612,-2.2088,-2.2464,-2.2636,-2.2796,-2.2901,-2.3014,-2.2982,-2.2791,-2.2458,-2.1862,-2.1265,-2.0949,-2.0583,-2.0047,-1.9044,-1.8403,-1.7795,-1.6911,-1.6445,-1.6102,-1.5907,-1.6147,-1.6048,-1.5946,-1.6456,-1.6995,-1.7469,-1.7475,-1.7461,-1.7473,-1.7334,-1.7261,-1.7153,-1.6834,-1.684,-1.6786,-1.6858,-1.708,-1.7515,-1.7889,-1.8289,-1.8544,-1.8166,-1.7446,-1.6689,-1.5554,-1.4155,-1.3117,-1.2048,-1.1257,-1.0482,-1.0124,-0.9971,-0.9839,-0.9805,-0.9781,-0.9751,-0.9859,-1.0137,-1.0365,-1.0531,-1.0677,-1.0721,-1.0721,-1.0721,-1.0721,-1.0721,-1.0711,-1.0711,-1.07,-1.0571,-1.0333,-1.0153,-0.9526,-0.819,-0.6952,-0.5832,-0.4552,-0.3296,-0.2651,-0.2348,-0.2178,-0.1995,-0.2062,-0.2119,-0.214,-0.2155,-0.2155,-0.2155,-0.2146,-0.2116,-0.2071,-2.688,-2.7081,-2.7092,-2.7177,-2.7262,-2.7272,-2.7135,-2.609,-2.3314,-2.1909,-2.1762,-2.1288,-2.0726,-2.0248,-2.0153,-2.0128,-1.9694,-2.0184,-2.0418,-2.0346,-2.1081,-2.1427,-2.1873,-2.219,-2.2593,-2.2694,-2.2901,-2.3014,-2.2998,-2.2887,-2.2537,-2.2037,-2.1568,-2.1131,-2.0805,-2.071,-2.0456,-1.962,-1.9145,-1.8745,-1.8067,-1.7603,-1.7176,-1.6975,-1.6711,-1.6435,-1.6223,-1.636,-1.6849,-1.7273,-1.7487,-1.74,-1.7443,-1.7455,-1.7388,-1.7389,-1.725,-1.7105,-1.6779,-1.6852,-1.7135,-1.7467,-1.772,-1.7895,-1.8125,-1.7677,-1.7047,-1.6311,-1.524,-1.4061,-1.2938,-1.1865,-1.1268,-1.0489,-1.0263,-1.0114,-0.9964,-0.9927,-0.9852,-0.9819,-0.9829,-1.0117,-1.0385,-1.0561,-1.0714,-1.0721,-1.0721,-1.0721,-1.0721,-1.0721,-1.0721,-1.0721,-1.0717,-1.0581,-1.0313,-1.0169,-0.94,-0.838,-0.7295,-0.6168,-0.5108,-0.3859,-0.3225,-0.2579,-0.23,-0.2128,-0.2076,-0.2126,-0.2145,-0.2154,-0.2155,-0.2155,-0.2154,-0.2116,-0.2068,-2.7241,-2.7241,-2.7251,-2.7272,-2.7272,-2.7272,-2.662,-2.5233,-2.2909,-2.2067,-2.2237,-2.1599,-2.1113,-2.0814,-2.0617,-2.0498,-2.0364,-2.0506,-2.0514,-2.0584,-2.101,-2.1462,-2.1878,-2.2196,-2.245,-2.2768,-2.2879,-2.2736,-2.2887,-2.2529,-2.2037,-2.1608,-2.1234,-2.0956,-2.0885,-2.0805,-2.0551,-2.0154,-1.9779,-1.9477,-1.8935,-1.8656,-1.8335,-1.8023,-1.7529,-1.6768,-1.6325,-1.6278,-1.6727,-1.7126,-1.7231,-1.7274,-1.7388,-1.7479,-1.7479,-1.7406,-1.7225,-1.7008,-1.6887,-1.6984,-1.7135,-1.7511,-1.7666,-1.7672,-1.7571,-1.7205,-1.6479,-1.5538,-1.4503,-1.3295,-1.2153,-1.1593,-1.103,-1.0809,-1.0606,-1.0317,-1.0134,-1.0036,-0.9941,-0.989,-0.9859,-1.0039,-1.03,-1.0504,-1.069,-1.0721,-1.0721,-1.0721,-1.0721,-1.0721,-1.0721,-1.0721,-1.0585,-1.0581,-1.028,-0.9937,-0.9201,-0.8174,-0.7555,-0.6553,-0.5478,-0.4425,-0.3444,-0.2695,-0.2304,-0.2136,-0.2086,-0.2128,-0.2147,-0.2151,-0.2138,-0.2147,-0.2144,-0.2104,-0.2062,-2.6775,-2.6796,-2.7127,-2.7272,-2.7272,-2.7324,-2.6607,-2.5448,-2.435,-2.3509,-2.2384,-2.208,-2.1632,-2.0917,-2.0822,-2.0727,-2.0624,-2.0617,-2.0624,-2.0798,-2.0972,-2.1202,-2.1536,-2.1775,-2.1997,-2.2188,-2.2299,-2.2347,-2.2212,-2.1941,-2.1767,-2.1441,-2.1084,-2.0956,-2.0925,-2.0925,-2.0742,-2.0575,-2.0337,-2.0202,-1.9917,-1.9514,-1.9287,-1.8957,-1.8191,-1.7351,-1.6455,-1.6319,-1.6759,-1.6861,-1.711,-1.7207,-1.7455,-1.7485,-1.7479,-1.7455,-1.7274,-1.7026,-1.7163,-1.7074,-1.7159,-1.7414,-1.7379,-1.7428,-1.7171,-1.663,-1.5805,-1.4716,-1.3718,-1.2511,-1.1687,-1.1169,-1.0902,-1.0737,-1.0541,-1.0439,-1.0263,-1.0134,-1.0029,-0.9846,-0.9819,-0.9947,-1.0209,-1.0473,-1.0639,-1.069,-1.0721,-1.0721,-1.0721,-1.0721,-1.0721,-1.0721,-1.0585,-1.0449,-1.0074,-0.9626,-0.8821,-0.8023,-0.73,-0.6448,-0.5342,-0.4307,-0.3548,-0.2939,-0.2322,-0.2154,-0.2099,-0.2129,-0.2151,-0.212,-0.2106,-0.2123,-0.2127,-0.2086,-0.2058,-2.6579,-2.6641,-2.7076,-2.7272,-2.7272,-2.7314,-2.6911,-2.6294,-2.5762,-2.4674,-2.3229,-2.2728,-2.2232,-2.1623,-2.142,-2.1326,-2.1019,-2.1019,-2.0925,-2.0822,-2.0822,-2.1083,-2.1346,-2.1465,-2.1711,-2.1838,-2.1949,-2.2045,-2.1838,-2.1616,-2.1425,-2.1211,-2.0988,-2.0956,-2.0925,-2.0925,-2.0925,-2.0821,-2.075,-2.0766,-2.0538,-2.0405,-2.0192,-1.9789,-1.8911,-1.786,-1.6905,-1.6906,-1.6522,-1.6666,-1.6869,-1.7117,-1.7376,-1.7485,-1.7485,-1.7455,-1.7376,-1.7334,-1.7406,-1.734,-1.7396,-1.7292,-1.7043,-1.6295,-1.5834,-1.525,-1.4592,-1.389,-1.2885,-1.1853,-1.1167,-1.0723,-1.074,-1.0622,-1.0575,-1.0527,-1.0388,-1.0243,-1.0039,-0.9812,-0.9808,-0.991,-1.012,-1.0392,-1.0582,-1.0612,-1.067,-1.0721,-1.0721,-1.0721,-1.0721,-1.0721,-1.0585,-1.0442,-0.9792,-0.9007,-0.8214,-0.7356,-0.6616,-0.5756,-0.4874,-0.4076,-0.3317,-0.2725,-0.2224,-0.2168,-0.1966,-0.2131,-0.2146,-0.2112,-0.2075,-0.2071,-0.2077,-0.2066,-0.2046,-2.6506,-2.6548,-2.7044,-2.7272,-2.7272,-2.7272,-2.7262,-2.7282,-2.6754,-2.5664,-2.4341,-2.3719,-2.3229,-2.2719,-2.2417,-2.2021,-2.1725,-2.1522,-2.1224,-2.0917,-2.0925,-2.1091,-2.1258,-2.1409,-2.1457,-2.1719,-2.1814,-2.1663,-2.1711,-2.1497,-2.1179,-2.0933,-2.1004,-2.1036,-2.1052,-2.1147,-2.1195,-2.1187,-2.106,-2.098,-2.0909,-2.0798,-2.0798,-2.0412,-1.9618,-1.8736,-1.8079,-1.7204,-1.6191,-1.649,-1.673,-1.6984,-1.731,-1.7418,-1.7424,-1.7376,-1.7414,-1.7444,-1.7468,-1.7328,-1.74,-1.7307,-1.6891,-1.5295,-1.452,-1.4385,-1.407,-1.3221,-1.2101,-1.1445,-1.077,-1.0582,-1.0487,-1.0647,-1.064,-1.048,-1.0412,-1.0205,-0.9924,-0.9734,-0.9676,-0.9788,-0.9951,-1.0215,-1.0473,-1.0517,-1.0622,-1.0704,-1.0707,-1.0707,-1.0565,-1.0568,-1.0316,-1.0028,-0.9144,-0.8342,-0.7474,-0.6717,-0.5795,-0.5086,-0.4227,-0.3651,-0.3086,-0.2607,-0.2088,-0.2029,-0.1952,-0.1854,-0.1866,-0.1964,-0.1931,-0.2024,-0.2018,-0.2026,-0.204,-2.6041,-2.6123,-2.692,-2.7272,-2.7262,-2.7272,-2.7357,-2.7272,-2.7184,-2.6383,-2.5421,-2.4903,-2.4402,-2.3701,-2.3402,-2.3011,-2.2325,-2.1928,-2.1522,-2.1121,-2.0925,-2.0964,-2.1052,-2.1115,-2.1155,-2.1131,-2.1171,-2.1258,-2.125,-2.1123,-2.1052,-2.0972,-2.1107,-2.1266,-2.1234,-2.1385,-2.1536,-2.1433,-2.1282,-2.1084,-2.0941,-2.0925,-2.0798,-2.0491,-1.9821,-1.9058,-1.8274,-1.7288,-1.6793,-1.6741,-1.6652,-1.699,-1.7436,-1.728,-1.7323,-1.7407,-1.7291,-1.7213,-1.731,-1.7255,-1.731,-1.7202,-1.652,-1.4543,-1.3599,-1.3808,-1.3435,-1.2458,-1.1697,-1.104,-1.0615,-1.0424,-1.0358,-1.0395,-1.0568,-1.0422,-1.0402,-1.0097,-0.9795,-0.9669,-0.9574,-0.9656,-0.9805,-1.0022,-1.029,-1.0477,-1.0626,-1.0707,-1.0683,-1.067,-1.0376,-1.0251,-0.9902,-0.948,-0.8484,-0.7435,-0.6471,-0.5561,-0.4669,-0.4105,-0.3568,-0.31,-0.2529,-0.2239,-0.1945,-0.1757,-0.155,-0.1323,-0.1323,-0.1431,-0.1911,-0.2001,-0.1989,-0.1994,-0.2021,-2.5885,-2.5978,-2.6651,-2.6962,-2.7056,-2.7202,-2.7316,-2.7357,-2.7314,-2.7017,-2.638,-2.5887,-2.5294,-2.4796,-2.4402,-2.371,-2.2929,-2.2426,-2.1725,-2.1121,-2.0925,-2.0925,-2.0925,-2.0925,-2.0956,-2.0925,-2.0925,-2.0956,-2.0925,-2.0933,-2.0948,-2.0988,-2.125,-2.1409,-2.1338,-2.1536,-2.1695,-2.1465,-2.1338,-2.1131,-2.0925,-2.0925,-2.0822,-2.0515,-1.9875,-1.9139,-1.8355,-1.7378,-1.6561,-1.6417,-1.6579,-1.6869,-1.7135,-1.7044,-1.7055,-1.7019,-1.697,-1.6934,-1.711,-1.7098,-1.7183,-1.7125,-1.6414,-1.4564,-1.2592,-1.2667,-1.2376,-1.1508,-1.1023,-1.0486,-1.0287,-1.0097,-1.0039,-1.0086,-1.027,-1.0293,-1.01,-0.9805,-0.9557,-0.9384,-0.9327,-0.9347,-0.9513,-0.9724,-0.9988,-1.0236,-1.0419,-1.0534,-1.0541,-1.0585,-1.0303,-0.9914,-0.9554,-0.8541,-0.7462,-0.6408,-0.5351,-0.447,-0.3616,-0.307,-0.266,-0.2305,-0.1968,-0.1889,-0.169,-0.1117,-0.0894,-0.0,-0.0,-0.0648,-0.1265,-0.1976,-0.197,-0.1967,-0.1988,-2.5958,-2.6103,-2.6506,-2.6662,-2.6765,-2.7066,-2.7296,-2.7326,-2.7272,-2.7272,-2.7177,-2.6476,-2.6081,-2.579,-2.5314,-2.4421,-2.3529,-2.2929,-2.203,-2.1121,-2.0925,-2.0925,-2.0925,-2.0925,-2.0925,-2.0925,-2.0925,-2.0925,-2.0925,-2.0925,-2.0948,-2.1012,-2.1179,-2.1354,-2.1203,-2.1338,-2.16,-2.1354,-2.1163,-2.0988,-2.0925,-2.0925,-2.0719,-2.0296,-1.9683,-1.9134,-1.8359,-1.7324,-1.6185,-1.612,-1.642,-1.6833,-1.6905,-1.6845,-1.6812,-1.6739,-1.6654,-1.6522,-1.6589,-1.6756,-1.7098,-1.7077,-1.6116,-1.4564,-1.2579,-1.1675,-1.1499,-1.0914,-1.0436,-1.0211,-1.0016,-0.9927,-0.9871,-0.9942,-1.0002,-1.01,-0.9815,-0.9561,-0.9371,-0.9174,-0.915,-0.915,-0.932,-0.9523,-0.9633,-0.9871,-1.0012,-1.0219,-1.0307,-1.025,-1.0151,-0.9522,-0.8903,-0.7908,-0.6529,-0.56,-0.4687,-0.369,-0.2867,-0.2235,-0.1856,-0.195,-0.184,-0.1762,-0.1443,-0.1107,-0.0,-0.0,-0.0,-0.0,-0.063,-0.1355,-0.1708,-0.1585,-0.1712,-2.632,-2.7013,-2.7107,-2.7117,-2.7212,-2.7232,-2.7295,-2.7357,-2.7272,-2.7272,-2.722,-2.7156,-2.7061,-2.6955,-2.64,-2.5411,-2.4007,-2.332,-2.2224,-2.1121,-2.1019,-2.0925,-2.0925,-2.0925,-2.0925,-2.0925,-2.0925,-2.0925,-2.0925,-2.0925,-2.0925,-2.0948,-2.1576,-2.1671,-2.1489,-2.1679,-2.1886,-2.1505,-2.106,-2.0861,-2.0877,-2.0783,-2.0712,-2.014,-1.926,-1.884,-1.81,-1.679,-1.6156,-1.6066,-1.6372,-1.6754,-1.6797,-1.6634,-1.6539,-1.6454,-1.6369,-1.6204,-1.6226,-1.6426,-1.6767,-1.7177,-1.6082,-1.4335,-1.2794,-1.1823,-1.1261,-1.0304,-0.9943,-0.9943,-0.9852,-0.9852,-0.9777,-0.9858,-0.9925,-0.9832,-0.9574,-0.9432,-0.9286,-0.9167,-0.91,-0.9188,-0.9344,-0.9557,-0.9667,-0.9868,-0.9995,-1.0066,-0.9943,-0.9972,-0.9869,-0.9121,-0.8378,-0.7229,-0.6129,-0.5026,-0.4129,-0.3038,-0.2248,-0.1975,-0.1831,-0.181,-0.1825,-0.1755,-0.1547,-0.1214,-0.0,-0.0,-0.0,-0.0,-0.0,-0.0369,-0.0,-0.1207,-0.121]},{"header":{"parameterUnit":"m.s-1","parameterCategory":1,"la1":31.0,"la2":29.5877,"lo1":-88.7671,"lo2":-86.6584,"dy":0.0162,"dx":0.0185,"nx":115,"ny":88,"refTime":"2026-03-23T00:00:00:Z","depth":0,"parameterNumber":3,"parameterNumberName":"V-component_of_WINDS"},"data":[0.0,0.0,0.0,0.0,0.0,0.0,0.0,0.0,0.0,0.0,0.0,0.0,0.0,0.0,0.0,0.0,0.0,0.0,0.0,0.0,0.0,0.0,0.0,0.0,0.0,0.0,0.0,0.0,0.0,0.0,0.0,0.0,0.0,0.0,0.0,0.0,0.0,0.0,0.0,0.0,0.0,0.0,0.0,0.0,0.0,0.0,0.0,0.0,0.0,0.0,0.0,0.0,0.0,0.0,0.0,0.0,0.0,0.0,0.0,0.0,0.0,0.0,0.0,0.0,0.0,0.0,0.0,0.0,0.0,0.0,0.0,0.0,0.0,0.0,0.0,0.0,0.0,0.0,0.0,0.0,0.0,0.0,0.0,0.0,0.0,0.0,0.0,0.0,0.0,0.0,0.0,0.0,0.0,0.0,0.0,0.0,0.0,0.0,0.0,0.0,0.0,0.0,0.0,0.0,0.0,0.0,0.0,0.0,0.0,0.0,0.0,0.0,0.0,0.0,0.0,0.0,0.0,0.0,0.0,0.0,0.0,0.0,0.0,0.0,0.0,0.0,0.0,0.0,0.0,0.0,0.0,0.0,0.0,0.0,0.0,0.0,0.0,0.0,0.0,0.0,0.0,0.0,0.0,0.0,0.0,0.0,0.0,0.0,0.0,0.0,0.0,0.0,0.0,0.0,0.0,0.0,0.0,0.0,0.0,0.0,0.0,0.0,0.0,0.0,0.0,0.0,0.0,0.0,0.0,0.0,0.0,0.0,0.0,0.0,0.0,0.0,0.0,0.0,0.0,0.0,0.0,0.0,0.0,0.0,0.0,0.0,0.0,0.0,0.0,0.0,0.0,0.0,0.0,0.0,0.0,0.0,0.0,0.0,0.0,0.0,0.0,0.0,0.0,0.0,0.0,0.0,0.0,0.0,0.0,0.0,0.0,0.0,0.0,0.0,0.0,0.0,0.0,0.0,0.0,0.0,0.0,0.0,0.0,0.0,0.0,0.0,0.0,0.0,0.0,0.0,0.0,0.0,0.0,0.0,0.0,0.0,0.0,0.0,0.0,0.0,0.0,0.0,0.0,0.0,0.0,0.0,0.0,0.0,0.0,0.0,0.0,0.0,0.0,0.0,0.0,0.0,0.0,0.0,0.0,0.0,0.0,0.0,0.0,0.0,0.0,0.0,0.0,0.0,0.0,0.0,0.0,0.0,0.0,0.0,0.0,0.0,0.0,0.0,0.0,0.0,0.0,0.0,0.0,0.0,0.0,0.0,0.0,0.0,0.0,0.0,0.0,0.0,0.0,0.0,0.0,0.0,0.0,0.0,0.0,0.0,0.0,0.0,0.0,0.0,0.0,0.0,0.0,0.0,0.0,0.0,0.0,0.0,0.0,0.0,0.0,0.0,0.0,0.0,0.0,0.0,0.0,0.0,0.0,0.0,0.0,0.0,0.0,0.0,0.0,0.0,0.0,0.0,0.0,0.0,0.0,0.0,0.0,0.0,0.0,0.0,0.0,0.0,0.0,0.0,0.0,0.0,0.0,0.0,0.0,0.0,0.0,0.0,0.0,0.0,0.0,0.0,0.0,0.0,0.0,0.0,0.0,0.0,0.0,0.0,0.0,0.0,0.0,0.0,0.0,0.0,0.0,0.0,0.0,0.0,0.0,0.0,0.0,0.0,0.0,0.0,0.0,0.0,0.0,0.0,0.0,0.0,0.0,0.0,0.0,0.0,0.0,0.0,0.0,0.0,0.0,0.0,0.0,0.0,0.0,0.0,0.0,0.0,0.0,0.0,0.0,0.0,0.0,0.0,0.0,0.0,0.0,0.0,0.0,0.0,0.0,0.0,0.0,0.0,0.0,0.0,0.0,0.0,0.0,0.0,0.0,0.0,0.0,0.0,0.0,0.0,0.0,0.0,0.0,0.0,0.0,0.0,0.0,0.0,0.0,0.0,0.0,0.0,0.0,0.0,0.0,0.0,0.0,0.0,0.0,0.0,0.0,0.0,0.0,0.0,0.0,0.0,0.0,0.0,0.0,0.0,0.0,0.0,0.0,0.0,0.0,0.0,0.0,0.0,0.0,0.0,0.0,0.0,0.0,0.0,0.0,0.0,0.0,0.0,0.0,0.0,0.0,0.0,0.0,0.0,0.0,0.0,0.0,0.0,0.0,0.0,0.0,0.0,0.0,0.0,0.0,0.0,0.0,0.0,0.0,0.0,0.0,0.0,0.0,0.0,0.0,0.0,0.0,0.0,0.0,0.0,0.0,0.0,0.0,0.0,0.0,0.0,0.0,0.0,0.0,0.0,0.0,0.0,0.0,0.0,0.0,0.0,0.0,0.0,0.0,0.0,0.0,0.0,0.0,0.0,0.0,0.0,0.0,0.0,0.0,0.0,0.0,0.0,0.0,0.0,0.0,0.0,0.0,0.0,0.0,0.0,0.0,0.0,0.0,0.0,0.0,0.0,0.0,0.0,0.0,0.0,0.0,0.0,0.0,0.0,0.0,0.0,0.0,0.0,0.0,0.0,0.0,0.0,0.0,0.0,0.0,0.0,0.0,0.0,0.0,0.0,0.0,0.0,0.0,0.0,0.0,0.0,0.0,0.0,0.0,0.0,0.0,0.0,0.0,0.0,0.0,0.0,0.0,0.0,0.0,0.0,0.0,0.0,0.0,0.0,0.0,0.0,0.0,0.0,0.0,0.0,0.0,0.0,0.0,0.0,0.0,0.0,0.0,0.0,0.0,0.0,0.0,0.0,0.0,0.0,0.0,0.0,0.0,0.0,0.0,0.0,0.0,0.0,0.0,0.0,0.0,0.0,0.0,0.0,0.0,0.0,0.0,0.0,0.0,0.0,0.0,0.0,0.0,0.0,0.0,0.0,0.0,0.0,0.0,0.0,0.0,0.0,0.0,0.0,0.0,0.0,0.0,0.0,0.0,0.0,0.0,0.0,0.0,0.0,0.0,0.0,0.0,0.0,0.0,0.0,0.0,0.0,0.0,0.0,0.0,0.0,0.0,0.0,0.0,0.0,0.0,0.0,0.0,0.0,0.0,0.0,0.0,0.0,0.0,0.0,0.0,0.0,0.0,0.0,0.0,0.0,0.0,0.0,0.0,0.0,0.0,0.0,0.0,0.0,0.0,0.0,0.0,0.0,0.0,0.0,0.0,0.0,0.0,0.0,0.0,0.0,0.0,0.0,0.0,0.0,0.0,0.0,0.0,0.0,0.0,0.0,0.0,0.0,0.0,0.0,0.0,0.0,0.0,0.0,0.0,0.0,0.0,0.0,0.0,0.0,0.0,0.0,0.0,0.0,0.0,0.0,0.0,0.0,0.0,0.0,0.0,0.0,0.0,0.0,0.0,0.0,0.0,0.0,0.0,0.0,0.0,0.0,0.0,0.0,0.0,0.0,0.0,0.0,0.0,0.0,0.0,0.0,0.0,0.0,0.0,0.0,0.0,0.0,0.0,0.0,0.0,0.0,0.0,0.0,0.0,0.0,0.0,0.0,0.0,0.0,0.0,0.0,0.0,0.0,0.0,0.0,0.0,0.0,0.0,0.0,0.0,0.0,0.0,0.0,0.0,0.0,0.0,0.0,0.0,0.0,0.0,0.0,0.0,0.0,0.0,0.0,0.0,0.0,0.0,0.0,0.0,0.0,0.0,0.0,0.0,0.0,0.0,0.0,0.0,0.0,0.0,0.0,0.0,0.0,0.0,0.0,0.0,0.0,0.0,0.0,0.0,0.0,0.0,0.0,0.0,0.0,0.0,0.0,0.0,0.0,0.0,0.0,0.0,0.0,0.0,0.0,0.0,0.0,0.0,0.0,0.0,0.0,0.0,0.0,0.0,0.0,0.0,0.0,0.0,0.0,0.0,0.0,0.0,0.0,0.0,0.0,0.0,0.0,0.0,0.0,0.0,0.0,0.0,0.0,0.0,0.0,0.0,0.0,0.0,0.0,0.0,0.0,0.0,0.0,0.0,0.0,0.0,0.0,0.0,0.0,0.0,0.0,0.0,0.0,0.0,0.0,0.0,0.0,0.0,0.0,0.0,0.0,0.0,0.0,0.0,0.0,0.0,0.0,0.0,0.0,0.0,0.0,0.0,0.0,0.0,0.0,0.0,0.0,0.0,0.0,0.0,0.0,0.0,0.0,0.0,0.0,0.0,0.0,0.0,0.0,0.0,0.0,0.0,0.0,0.0,0.0,0.0,0.0,0.0,0.0,0.0,0.0,0.0,0.0,0.0,0.0,0.0,0.0,0.0,0.0,0.0,0.0,-2.5376,0.0,0.0,0.0,0.0,0.0,0.0,0.0,0.0,0.0,0.0,0.0,0.0,0.0,0.0,0.0,0.0,0.0,0.0,0.0,0.0,0.0,0.0,0.0,0.0,0.0,0.0,0.0,0.0,0.0,0.0,0.0,0.0,0.0,0.0,0.0,0.0,0.0,0.0,0.0,0.0,0.0,0.0,0.0,0.0,0.0,0.0,0.0,0.0,0.0,0.0,0.0,0.0,0.0,0.0,0.0,0.0,0.0,0.0,0.0,0.0,0.0,0.0,0.0,0.0,0.0,0.0,0.0,0.0,0.0,0.0,0.0,0.0,0.0,0.0,0.0,0.0,0.0,0.0,0.0,0.0,0.0,0.0,0.0,0.0,0.0,0.0,0.0,0.0,0.0,0.0,0.0,0.0,0.0,0.0,0.0,0.0,0.0,0.0,0.0,0.0,0.0,0.0,0.0,0.0,0.0,0.0,0.0,0.0,0.0,0.0,-2.5511,-2.5511,-2.5476,-2.541,-2.5363,0.0,0.0,0.0,0.0,0.0,0.0,0.0,0.0,0.0,0.0,0.0,0.0,0.0,0.0,0.0,0.0,0.0,0.0,0.0,0.0,0.0,0.0,0.0,0.0,0.0,0.0,0.0,0.0,0.0,0.0,0.0,0.0,0.0,0.0,0.0,0.0,0.0,0.0,0.0,0.0,0.0,0.0,0.0,0.0,0.0,0.0,0.0,0.0,0.0,0.0,0.0,0.0,0.0,0.0,0.0,0.0,0.0,0.0,0.0,0.0,0.0,0.0,0.0,0.0,0.0,0.0,0.0,0.0,0.0,0.0,0.0,0.0,0.0,0.0,0.0,0.0,0.0,0.0,0.0,0.0,0.0,0.0,0.0,0.0,0.0,0.0,0.0,0.0,0.0,0.0,0.0,0.0,0.0,0.0,0.0,0.0,0.0,0.0,0.0,0.0,0.0,0.0,0.0,0.0,0.0,0.0,0.0,0.0,0.0,0.0,0.0,0.0,-2.5727,-2.5468,-2.5062,0.0,0.0,0.0,0.0,0.0,0.0,0.0,0.0,0.0,0.0,0.0,0.0,0.0,0.0,0.0,0.0,0.0,0.0,0.0,0.0,0.0,0.0,0.0,0.0,0.0,0.0,0.0,0.0,0.0,0.0,0.0,0.0,0.0,0.0,0.0,0.0,0.0,0.0,0.0,0.0,0.0,0.0,0.0,0.0,0.0,0.0,0.0,0.0,0.0,0.0,0.0,0.0,0.0,0.0,0.0,0.0,0.0,0.0,0.0,0.0,0.0,0.0,0.0,0.0,0.0,0.0,0.0,0.0,0.0,0.0,0.0,0.0,0.0,0.0,0.0,0.0,0.0,0.0,0.0,0.0,0.0,0.0,0.0,0.0,0.0,0.0,0.0,0.0,0.0,0.0,0.0,0.0,0.0,0.0,0.0,0.0,0.0,0.0,0.0,0.0,0.0,0.0,0.0,0.0,0.0,0.0,0.0,0.0,0.0,0.0,-2.6586,-2.6586,-2.6566,0.0,-2.4353,0.0,0.0,0.0,0.0,0.0,0.0,0.0,0.0,0.0,0.0,0.0,0.0,0.0,0.0,0.0,0.0,0.0,0.0,0.0,0.0,0.0,0.0,0.0,0.0,0.0,0.0,0.0,0.0,0.0,0.0,0.0,0.0,0.0,0.0,0.0,0.0,0.0,0.0,0.0,0.0,0.0,0.0,0.0,0.0,0.0,0.0,0.0,0.0,0.0,0.0,0.0,0.0,0.0,0.0,0.0,0.0,0.0,0.0,0.0,0.0,0.0,0.0,0.0,0.0,0.0,0.0,0.0,0.0,0.0,0.0,0.0,0.0,0.0,0.0,0.0,0.0,0.0,0.0,0.0,0.0,0.0,0.0,0.0,0.0,0.0,0.0,0.0,0.0,0.0,0.0,0.0,0.0,0.0,0.0,0.0,0.0,0.0,0.0,0.0,0.0,0.0,0.0,0.0,0.0,0.0,0.0,0.0,0.0,0.0,0.0,-2.6702,-2.6702,-2.6699,-2.5898,0.0,0.0,0.0,0.0,0.0,0.0,0.0,0.0,0.0,0.0,0.0,0.0,0.0,0.0,0.0,0.0,0.0,0.0,0.0,0.0,0.0,0.0,0.0,0.0,0.0,0.0,0.0,0.0,0.0,0.0,0.0,0.0,0.0,0.0,0.0,0.0,0.0,0.0,0.0,0.0,0.0,0.0,0.0,0.0,0.0,0.0,0.0,0.0,0.0,0.0,0.0,0.0,0.0,0.0,0.0,0.0,0.0,0.0,0.0,0.0,0.0,0.0,0.0,0.0,0.0,0.0,0.0,0.0,0.0,0.0,0.0,0.0,0.0,0.0,0.0,0.0,0.0,0.0,0.0,0.0,0.0,0.0,0.0,0.0,0.0,0.0,0.0,0.0,0.0,0.0,0.0,0.0,0.0,0.0,0.0,0.0,0.0,0.0,0.0,0.0,0.0,0.0,0.0,0.0,0.0,0.0,0.0,0.0,0.0,0.0,-2.6276,-2.6702,-2.6702,-2.6478,-2.5569,-2.3906,0.0,0.0,0.0,0.0,0.0,0.0,0.0,0.0,0.0,0.0,0.0,0.0,0.0,0.0,0.0,0.0,0.0,0.0,0.0,0.0,0.0,0.0,0.0,0.0,0.0,0.0,0.0,0.0,0.0,0.0,0.0,0.0,0.0,0.0,0.0,0.0,0.0,0.0,0.0,0.0,0.0,0.0,0.0,0.0,0.0,0.0,0.0,0.0,0.0,0.0,0.0,0.0,0.0,0.0,0.0,0.0,0.0,0.0,0.0,0.0,0.0,0.0,0.0,0.0,0.0,0.0,0.0,0.0,0.0,0.0,0.0,0.0,0.0,0.0,0.0,0.0,0.0,0.0,0.0,0.0,0.0,0.0,0.0,0.0,0.0,0.0,0.0,0.0,0.0,0.0,0.0,0.0,0.0,0.0,0.0,0.0,0.0,0.0,0.0,0.0,0.0,0.0,0.0,0.0,0.0,0.0,0.0,0.0,-2.553,-2.6257,-2.6683,-2.6625,-2.5951,-2.4725,0.0,0.0,0.0,0.0,0.0,0.0,0.0,0.0,0.0,0.0,0.0,0.0,0.0,0.0,0.0,0.0,0.0,0.0,0.0,0.0,0.0,0.0,0.0,0.0,0.0,0.0,0.0,0.0,0.0,0.0,0.0,0.0,0.0,0.0,0.0,0.0,0.0,0.0,0.0,0.0,0.0,0.0,0.0,0.0,0.0,0.0,0.0,0.0,0.0,0.0,0.0,0.0,0.0,0.0,0.0,0.0,0.0,0.0,0.0,0.0,0.0,0.0,0.0,0.0,0.0,0.0,0.0,0.0,0.0,0.0,0.0,0.0,0.0,0.0,0.0,0.0,0.0,0.0,0.0,0.0,0.0,0.0,0.0,0.0,0.0,0.0,0.0,0.0,0.0,0.0,0.0,0.0,0.0,0.0,0.0,0.0,0.0,0.0,0.0,0.0,0.0,0.0,0.0,0.0,0.0,0.0,0.0,0.0,0.0,-2.5511,-2.5782,-2.5666,-2.5105,-2.4814,-2.386,0.0,0.0,0.0,0.0,0.0,0.0,0.0,0.0,0.0,0.0,0.0,0.0,0.0,0.0,0.0,0.0,0.0,0.0,0.0,0.0,0.0,0.0,0.0,0.0,0.0,0.0,0.0,0.0,0.0,0.0,0.0,0.0,0.0,0.0,0.0,0.0,0.0,0.0,0.0,0.0,0.0,0.0,0.0,0.0,0.0,0.0,0.0,0.0,0.0,0.0,0.0,0.0,0.0,0.0,0.0,0.0,0.0,0.0,0.0,0.0,0.0,0.0,0.0,0.0,0.0,0.0,0.0,0.0,0.0,0.0,0.0,0.0,0.0,0.0,0.0,0.0,0.0,0.0,0.0,0.0,0.0,0.0,0.0,0.0,0.0,0.0,0.0,0.0,0.0,0.0,0.0,0.0,0.0,0.0,0.0,0.0,0.0,0.0,0.0,0.0,0.0,0.0,0.0,0.0,0.0,0.0,0.0,0.0,0.0,-2.5492,0.0,-2.4795,-2.4215,-2.3655,-2.2856,0.0,0.0,0.0,0.0,0.0,0.0,0.0,0.0,0.0,0.0,0.0,0.0,0.0,0.0,0.0,0.0,0.0,0.0,0.0,0.0,0.0,0.0,0.0,0.0,0.0,0.0,0.0,0.0,0.0,0.0,0.0,0.0,0.0,0.0,0.0,0.0,0.0,0.0,0.0,0.0,0.0,0.0,0.0,0.0,0.0,0.0,0.0,0.0,0.0,0.0,0.0,0.0,0.0,0.0,0.0,0.0,0.0,0.0,0.0,0.0,0.0,0.0,0.0,0.0,0.0,0.0,0.0,0.0,0.0,0.0,0.0,0.0,0.0,0.0,0.0,0.0,0.0,0.0,0.0,0.0,0.0,0.0,0.0,0.0,0.0,0.0,0.0,0.0,0.0,0.0,0.0,0.0,0.0,0.0,0.0,0.0,0.0,0.0,0.0,0.0,0.0,0.0,0.0,0.0,0.0,0.0,0.0,0.0,-2.5507,-2.5472,-2.4718,-2.4312,-2.4157,-2.2692,-2.1784,0.0,0.0,0.0,0.0,0.0,0.0,0.0,0.0,0.0,0.0,0.0,0.0,0.0,0.0,0.0,0.0,0.0,0.0,0.0,0.0,0.0,0.0,0.0,0.0,0.0,0.0,0.0,0.0,0.0,0.0,0.0,0.0,0.0,0.0,0.0,0.0,0.0,0.0,0.0,0.0,0.0,0.0,0.0,0.0,0.0,0.0,0.0,0.0,0.0,0.0,0.0,0.0,0.0,0.0,0.0,0.0,0.0,0.0,0.0,0.0,0.0,0.0,0.0,0.0,0.0,0.0,0.0,0.0,0.0,0.0,0.0,0.0,0.0,0.0,0.0,0.0,0.0,0.0,0.0,0.0,0.0,0.0,0.0,0.0,0.0,0.0,0.0,0.0,0.0,0.0,0.0,0.0,0.0,0.0,0.0,0.0,0.0,0.0,0.0,0.0,0.0,0.0,0.0,0.0,0.0,0.0,0.0,0.0,0.0,-2.5511,-2.5782,-2.5356,-2.4254,-2.3702,-2.2888,0.0,0.0,0.0,0.0,0.0,0.0,0.0,0.0,0.0,0.0,0.0,0.0,0.0,0.0,0.0,0.0,0.0,0.0,0.0,0.0,0.0,0.0,0.0,0.0,0.0,0.0,0.0,0.0,0.0,0.0,0.0,0.0,0.0,0.0,0.0,0.0,0.0,0.0,0.0,0.0,0.0,0.0,0.0,0.0,0.0,0.0,0.0,0.0,0.0,0.0,0.0,0.0,0.0,0.0,0.0,0.0,0.0,0.0,0.0,0.0,0.0,0.0,0.0,0.0,0.0,0.0,0.0,0.0,0.0,0.0,0.0,0.0,0.0,0.0,0.0,0.0,0.0,0.0,0.0,0.0,0.0,0.0,0.0,0.0,0.0,0.0,0.0,0.0,0.0,0.0,0.0,0.0,0.0,0.0,0.0,0.0,0.0,0.0,0.0,0.0,0.0,0.0,0.0,0.0,0.0,0.0,0.0,0.0,0.0,-2.8277,-2.8219,-2.7348,-2.5666,-2.5304,-2.4187,-2.2256,0.0,0.0,0.0,0.0,0.0,0.0,0.0,0.0,0.0,0.0,0.0,0.0,0.0,0.0,0.0,0.0,0.0,0.0,0.0,0.0,0.0,0.0,0.0,0.0,0.0,0.0,0.0,0.0,0.0,0.0,0.0,0.0,0.0,0.0,0.0,0.0,0.0,0.0,0.0,0.0,0.0,0.0,0.0,0.0,0.0,0.0,0.0,0.0,0.0,0.0,0.0,0.0,0.0,0.0,0.0,0.0,0.0,0.0,0.0,0.0,0.0,0.0,0.0,0.0,0.0,0.0,0.0,0.0,0.0,0.0,0.0,0.0,0.0,0.0,0.0,0.0,0.0,0.0,0.0,0.0,0.0,0.0,0.0,0.0,0.0,0.0,0.0,0.0,0.0,0.0,0.0,0.0,0.0,0.0,0.0,0.0,0.0,0.0,0.0,0.0,0.0,0.0,0.0,0.0,0.0,0.0,0.0,0.0,-3.3286,-3.201,-3.0424,-2.844,-2.7513,-2.5749,0.0,0.0,0.0,0.0,0.0,0.0,0.0,0.0,0.0,0.0,0.0,0.0,0.0,0.0,0.0,0.0,0.0,0.0,0.0,0.0,0.0,0.0,0.0,0.0,0.0,0.0,0.0,0.0,0.0,0.0,0.0,0.0,0.0,0.0,0.0,0.0,0.0,0.0,0.0,0.0,0.0,0.0,0.0,0.0,0.0,0.0,0.0,0.0,0.0,0.0,0.0,0.0,0.0,0.0,0.0,0.0,0.0,0.0,0.0,0.0,0.0,0.0,0.0,0.0,0.0,0.0,0.0,0.0,0.0,0.0,0.0,0.0,0.0,0.0,0.0,0.0,0.0,0.0,0.0,0.0,0.0,0.0,0.0,0.0,0.0,0.0,0.0,0.0,0.0,0.0,0.0,0.0,0.0,0.0,0.0,0.0,0.0,0.0,0.0,0.0,0.0,0.0,0.0,0.0,0.0,0.0,0.0,0.0,0.0,-3.591,-3.8578,-3.7657,-3.2929,-3.1264,-2.8689,0.0,0.0,0.0,0.0,0.0,0.0,0.0,0.0,0.0,0.0,0.0,0.0,0.0,0.0,0.0,0.0,0.0,0.0,0.0,0.0,0.0,0.0,0.0,0.0,0.0,0.0,0.0,0.0,0.0,0.0,0.0,0.0,0.0,0.0,0.0,0.0,0.0,0.0,0.0,0.0,0.0,0.0,0.0,0.0,0.0,0.0,0.0,0.0,0.0,0.0,0.0,0.0,0.0,0.0,0.0,0.0,0.0,0.0,0.0,0.0,0.0,0.0,0.0,0.0,0.0,0.0,0.0,0.0,0.0,0.0,0.0,0.0,0.0,0.0,0.0,0.0,0.0,0.0,0.0,0.0,0.0,0.0,0.0,0.0,0.0,0.0,0.0,0.0,0.0,0.0,0.0,0.0,0.0,0.0,0.0,0.0,0.0,0.0,0.0,0.0,0.0,0.0,0.0,0.0,0.0,0.0,0.0,0.0,-3.5534,-3.8586,-4.3447,-4.3653,-3.8818,-3.5267,-3.1449,0.0,0.0,0.0,0.0,0.0,0.0,0.0,0.0,0.0,0.0,0.0,0.0,0.0,0.0,0.0,0.0,0.0,0.0,0.0,0.0,0.0,0.0,0.0,0.0,0.0,0.0,0.0,0.0,0.0,0.0,0.0,0.0,0.0,0.0,0.0,0.0,0.0,0.0,0.0,0.0,0.0,0.0,0.0,0.0,0.0,0.0,0.0,0.0,0.0,0.0,0.0,0.0,0.0,0.0,0.0,0.0,0.0,0.0,0.0,0.0,0.0,0.0,0.0,0.0,0.0,0.0,0.0,0.0,0.0,0.0,0.0,0.0,0.0,0.0,0.0,0.0,0.0,0.0,0.0,0.0,0.0,0.0,0.0,0.0,0.0,0.0,0.0,0.0,0.0,0.0,0.0,0.0,0.0,0.0,0.0,0.0,0.0,0.0,0.0,0.0,0.0,0.0,0.0,0.0,0.0,0.0,0.0,0.0,-3.8597,-4.1343,-4.6964,-4.843,-4.5123,-3.9361,-3.4163,0.0,0.0,0.0,0.0,0.0,0.0,0.0,0.0,0.0,0.0,0.0,0.0,0.0,0.0,0.0,0.0,0.0,0.0,0.0,0.0,0.0,0.0,0.0,0.0,0.0,0.0,0.0,0.0,0.0,0.0,0.0,0.0,0.0,0.0,0.0,0.0,0.0,0.0,0.0,0.0,0.0,0.0,0.0,0.0,0.0,0.0,0.0,0.0,0.0,0.0,0.0,0.0,0.0,0.0,0.0,0.0,0.0,0.0,0.0,0.0,0.0,0.0,0.0,0.0,0.0,0.0,0.0,0.0,0.0,0.0,0.0,0.0,0.0,0.0,0.0,0.0,0.0,0.0,0.0,0.0,0.0,0.0,0.0,0.0,0.0,0.0,0.0,0.0,0.0,0.0,0.0,0.0,0.0,0.0,0.0,0.0,0.0,0.0,0.0,0.0,0.0,0.0,0.0,0.0,0.0,0.0,0.0,0.0,-4.0936,-4.4838,-4.932,-5.0689,-4.8648,-4.2847,-3.7371,0.0,0.0,0.0,0.0,0.0,0.0,0.0,0.0,0.0,0.0,0.0,0.0,0.0,0.0,0.0,0.0,0.0,0.0,0.0,0.0,0.0,0.0,0.0,0.0,0.0,0.0,0.0,0.0,0.0,0.0,0.0,0.0,0.0,0.0,0.0,0.0,0.0,0.0,0.0,0.0,0.0,0.0,0.0,0.0,0.0,0.0,0.0,0.0,-2.7017,0.0,0.0,0.0,0.0,0.0,0.0,0.0,0.0,0.0,0.0,0.0,0.0,0.0,0.0,0.0,0.0,0.0,0.0,0.0,0.0,0.0,0.0,0.0,0.0,0.0,0.0,0.0,0.0,0.0,0.0,0.0,0.0,0.0,0.0,0.0,0.0,0.0,0.0,0.0,0.0,0.0,0.0,0.0,0.0,0.0,0.0,0.0,0.0,0.0,0.0,0.0,0.0,0.0,0.0,0.0,0.0,0.0,0.0,0.0,-4.3695,-4.7192,-5.1305,-5.2427,-5.0298,-4.6499,-4.1435,0.0,0.0,0.0,0.0,0.0,0.0,0.0,0.0,0.0,0.0,0.0,0.0,0.0,0.0,0.0,0.0,0.0,0.0,0.0,0.0,0.0,0.0,0.0,0.0,0.0,0.0,0.0,0.0,0.0,0.0,0.0,0.0,0.0,0.0,0.0,0.0,0.0,0.0,0.0,0.0,0.0,0.0,0.0,0.0,0.0,0.0,0.0,0.0,0.0,0.0,0.0,0.0,0.0,0.0,0.0,0.0,0.0,0.0,0.0,0.0,0.0,0.0,0.0,0.0,0.0,0.0,0.0,0.0,0.0,0.0,0.0,0.0,0.0,0.0,0.0,0.0,0.0,0.0,0.0,0.0,0.0,0.0,0.0,0.0,0.0,0.0,0.0,0.0,0.0,0.0,0.0,0.0,0.0,0.0,0.0,0.0,0.0,0.0,0.0,0.0,0.0,0.0,0.0,0.0,0.0,0.0,0.0,-4.156,-4.624,-4.8992,-5.3058,-5.3929,-5.1289,-4.9594,-4.5118,-3.7502,0.0,0.0,0.0,0.0,0.0,0.0,0.0,0.0,0.0,0.0,0.0,0.0,0.0,0.0,0.0,0.0,0.0,0.0,0.0,0.0,0.0,0.0,0.0,0.0,0.0,0.0,0.0,0.0,0.0,0.0,0.0,0.0,0.0,0.0,0.0,0.0,0.0,0.0,-2.354,-2.6566,0.0,0.0,0.0,0.0,0.0,0.0,0.0,0.0,-2.7563,0.0,0.0,0.0,0.0,0.0,0.0,0.0,0.0,0.0,0.0,0.0,0.0,0.0,0.0,0.0,0.0,0.0,0.0,0.0,0.0,0.0,0.0,0.0,0.0,0.0,0.0,0.0,0.0,0.0,0.0,0.0,0.0,0.0,0.0,0.0,0.0,0.0,0.0,0.0,0.0,0.0,0.0,0.0,0.0,0.0,0.0,0.0,0.0,0.0,0.0,0.0,0.0,0.0,0.0,0.0,0.0,-3.6748,-4.2724,-4.7389,-5.0739,-5.4827,-5.5433,-5.2282,-5.0603,-4.6141,-3.861,0.0,0.0,0.0,0.0,0.0,0.0,0.0,0.0,0.0,0.0,0.0,0.0,0.0,0.0,0.0,0.0,0.0,0.0,0.0,0.0,0.0,0.0,0.0,0.0,0.0,0.0,0.0,0.0,0.0,0.0,0.0,0.0,0.0,0.0,0.0,0.0,0.0,0.0,0.0,-2.8674,-3.0333,0.0,0.0,0.0,0.0,0.0,0.0,0.0,0.0,-2.5629,0.0,0.0,0.0,0.0,0.0,0.0,0.0,0.0,0.0,0.0,0.0,0.0,0.0,0.0,0.0,0.0,0.0,0.0,0.0,0.0,0.0,0.0,0.0,0.0,0.0,0.0,0.0,0.0,0.0,0.0,0.0,0.0,0.0,0.0,0.0,0.0,0.0,0.0,0.0,0.0,0.0,0.0,0.0,0.0,0.0,0.0,0.0,0.0,0.0,0.0,0.0,0.0,0.0,0.0,0.0,-3.9015,-4.4509,-4.922,-5.3052,-5.5516,-5.5385,-5.2508,-4.9581,-4.4834,0.0,0.0,0.0,0.0,0.0,0.0,0.0,0.0,0.0,0.0,0.0,0.0,0.0,0.0,0.0,0.0,0.0,0.0,0.0,0.0,0.0,0.0,0.0,0.0,0.0,0.0,0.0,0.0,0.0,0.0,0.0,0.0,0.0,0.0,0.0,0.0,0.0,0.0,0.0,0.0,-3.1563,-3.3319,-3.289,0.0,0.0,0.0,0.0,0.0,0.0,-2.9279,-2.7403,0.0,0.0,0.0,0.0,0.0,0.0,0.0,0.0,0.0,0.0,0.0,0.0,0.0,0.0,0.0,0.0,0.0,0.0,0.0,0.0,0.0,0.0,0.0,0.0,0.0,0.0,0.0,0.0,0.0,0.0,0.0,0.0,0.0,0.0,0.0,0.0,0.0,0.0,0.0,0.0,0.0,0.0,0.0,0.0,0.0,0.0,0.0,0.0,0.0,0.0,0.0,0.0,0.0,0.0,0.0,-4.0801,-4.5925,-5.0622,-5.4793,-5.5966,-5.5133,-5.2286,-4.8319,-4.3254,0.0,0.0,0.0,0.0,0.0,0.0,0.0,0.0,0.0,0.0,0.0,0.0,0.0,0.0,0.0,0.0,0.0,0.0,0.0,0.0,0.0,0.0,0.0,0.0,0.0,0.0,0.0,0.0,0.0,0.0,0.0,0.0,0.0,0.0,0.0,0.0,0.0,0.0,0.0,0.0,0.0,-3.6264,-3.5584,-3.4881,0.0,0.0,0.0,0.0,-3.2304,-3.1992,0.0,0.0,0.0,0.0,0.0,0.0,0.0,0.0,0.0,0.0,0.0,0.0,0.0,0.0,0.0,0.0,0.0,0.0,0.0,0.0,0.0,0.0,0.0,0.0,0.0,0.0,0.0,0.0,0.0,0.0,0.0,0.0,0.0,0.0,0.0,0.0,0.0,0.0,0.0,0.0,0.0,0.0,0.0,0.0,0.0,0.0,0.0,0.0,0.0,0.0,0.0,0.0,0.0,0.0,0.0,0.0,-4.0876,-4.5997,-5.067,-5.4805,-5.6601,-5.5521,-5.1531,-4.8069,-4.2739,0.0,0.0,0.0,0.0,0.0,0.0,0.0,0.0,0.0,0.0,0.0,0.0,0.0,0.0,0.0,0.0,0.0,0.0,0.0,0.0,0.0,0.0,0.0,0.0,0.0,0.0,0.0,0.0,0.0,0.0,0.0,0.0,0.0,0.0,0.0,0.0,0.0,0.0,0.0,0.0,0.0,-3.8274,-3.816,-3.8065,-3.7692,0.0,0.0,-3.5935,-3.7458,-3.5759,0.0,0.0,0.0,0.0,0.0,0.0,0.0,0.0,0.0,0.0,0.0,0.0,0.0,0.0,0.0,0.0,0.0,0.0,0.0,0.0,0.0,0.0,0.0,0.0,0.0,0.0,0.0,0.0,0.0,0.0,0.0,0.0,0.0,0.0,0.0,0.0,0.0,0.0,0.0,0.0,0.0,0.0,0.0,0.0,0.0,0.0,0.0,0.0,0.0,0.0,0.0,0.0,0.0,0.0,0.0,-3.4101,-4.0843,-4.6441,-5.1144,-5.4907,-5.6246,-5.5341,-5.2162,-4.786,-4.2142,0.0,0.0,0.0,0.0,0.0,0.0,0.0,0.0,0.0,0.0,0.0,0.0,0.0,0.0,0.0,0.0,0.0,0.0,0.0,0.0,0.0,0.0,0.0,0.0,0.0,0.0,0.0,0.0,0.0,0.0,0.0,0.0,0.0,0.0,0.0,0.0,0.0,0.0,0.0,0.0,0.0,0.0,-4.0698,-4.0756,0.0,0.0,0.0,-3.8941,-4.115,0.0,0.0,0.0,0.0,0.0,0.0,0.0,0.0,0.0,0.0,0.0,0.0,0.0,0.0,0.0,0.0,0.0,0.0,0.0,0.0,0.0,0.0,0.0,0.0,0.0,0.0,0.0,0.0,0.0,0.0,0.0,0.0,0.0,0.0,0.0,0.0,0.0,0.0,0.0,0.0,0.0,0.0,0.0,0.0,0.0,0.0,0.0,0.0,0.0,0.0,0.0,0.0,0.0,0.0,0.0,0.0,0.0,-4.0848,-4.6814,-5.1461,-5.4673,-5.5602,-5.4732,-5.2079,-4.7258,0.0,0.0,0.0,0.0,0.0,0.0,0.0,0.0,0.0,0.0,0.0,0.0,0.0,0.0,0.0,0.0,0.0,0.0,0.0,0.0,0.0,0.0,0.0,0.0,0.0,0.0,0.0,-1.5011,0.0,0.0,0.0,0.0,0.0,0.0,0.0,0.0,0.0,0.0,0.0,0.0,0.0,0.0,-4.183,-4.2903,-4.3235,-4.3372,0.0,0.0,-4.2006,-4.4585,-4.3704,-4.0327,0.0,0.0,0.0,0.0,0.0,0.0,0.0,0.0,0.0,0.0,0.0,0.0,0.0,0.0,0.0,0.0,0.0,0.0,0.0,0.0,0.0,0.0,0.0,0.0,0.0,0.0,0.0,0.0,0.0,0.0,0.0,0.0,0.0,0.0,0.0,0.0,0.0,0.0,0.0,0.0,0.0,0.0,0.0,0.0,0.0,0.0,0.0,0.0,0.0,0.0,0.0,0.0,0.0,0.0,-3.416,-4.0909,-4.6911,-5.1284,-5.3876,-5.4769,-5.3623,-5.0338,-4.6067,-4.0937,0.0,0.0,0.0,0.0,0.0,0.0,0.0,0.0,0.0,0.0,0.0,0.0,0.0,0.0,0.0,0.0,0.0,0.0,0.0,0.0,0.0,0.0,0.0,0.0,0.0,0.0,0.0,0.0,0.0,0.0,0.0,0.0,0.0,0.0,0.0,0.0,0.0,0.0,0.0,0.0,0.0,-4.2916,-4.4602,-4.5539,-4.6046,0.0,-4.5265,-4.5539,-4.806,-4.5737,-4.1791,-3.6482,0.0,0.0,0.0,0.0,0.0,0.0,0.0,0.0,0.0,0.0,0.0,0.0,0.0,0.0,0.0,0.0,0.0,0.0,0.0,0.0,0.0,0.0,0.0,0.0,0.0,0.0,0.0,0.0,0.0,0.0,0.0,0.0,0.0,0.0,0.0,0.0,0.0,0.0,0.0,0.0,0.0,0.0,0.0,0.0,0.0,0.0,0.0,0.0,0.0,0.0,0.0,0.0,0.0,-3.3994,-4.0266,-4.6709,-5.1035,-5.3072,-5.3424,-5.2447,-5.0146,-4.5944,-4.1113,0.0,0.0,0.0,0.0,0.0,0.0,0.0,0.0,0.0,0.0,0.0,0.0,0.0,0.0,0.0,0.0,0.0,0.0,0.0,0.0,0.0,0.0,0.0,0.0,0.0,0.0,0.0,0.0,-1.6612,-1.7001,-1.7001,0.0,0.0,0.0,0.0,0.0,0.0,0.0,0.0,0.0,0.0,-4.4208,-4.6963,-4.8096,0.0,0.0,-4.872,-4.8662,-5.0168,-4.71,-4.1862,-3.4111,-3.1047,0.0,0.0,0.0,0.0,0.0,0.0,0.0,0.0,0.0,0.0,0.0,0.0,0.0,0.0,0.0,0.0,0.0,0.0,0.0,0.0,0.0,0.0,0.0,0.0,0.0,0.0,0.0,0.0,0.0,0.0,0.0,0.0,0.0,0.0,0.0,0.0,0.0,0.0,0.0,0.0,0.0,0.0,0.0,0.0,0.0,0.0,0.0,0.0,0.0,0.0,0.0,0.0,-3.4224,-4.0213,-4.6954,-5.105,-5.2294,-5.2267,-5.1431,-4.971,-4.557,-4.1133,0.0,0.0,0.0,0.0,0.0,0.0,0.0,0.0,0.0,0.0,0.0,0.0,0.0,0.0,0.0,0.0,0.0,0.0,0.0,0.0,0.0,0.0,0.0,0.0,0.0,0.0,0.0,0.0,-1.7997,-1.8093,-1.8365,0.0,0.0,0.0,0.0,0.0,0.0,0.0,0.0,0.0,0.0,-4.4543,-4.7939,-4.9384,-5.0399,-5.1277,-5.0672,-5.0594,-5.1964,-4.7916,-4.1511,-3.2377,0.0,0.0,0.0,0.0,0.0,0.0,0.0,0.0,0.0,0.0,0.0,0.0,0.0,0.0,0.0,0.0,0.0,0.0,0.0,0.0,0.0,0.0,0.0,0.0,0.0,0.0,0.0,-2.0315,0.0,0.0,-2.0445,0.0,0.0,0.0,0.0,0.0,0.0,0.0,0.0,0.0,0.0,0.0,0.0,0.0,0.0,0.0,0.0,0.0,0.0,0.0,0.0,0.0,0.0,-3.5047,-4.1035,-4.7829,-5.1366,-5.1435,-5.1421,-5.0614,-4.8888,-4.4721,-4.08,-3.7263,0.0,0.0,0.0,0.0,0.0,0.0,0.0,0.0,0.0,0.0,0.0,0.0,0.0,0.0,0.0,0.0,0.0,0.0,0.0,0.0,0.0,0.0,0.0,0.0,0.0,0.0,-1.8072,-1.8033,-1.8365,0.0,0.0,0.0,0.0,0.0,0.0,0.0,0.0,0.0,0.0,-3.9722,-4.3704,-4.7139,-4.9052,-5.0457,-5.1297,-5.0692,-5.0984,-5.3448,-4.8135,-4.0815,0.0,0.0,0.0,0.0,0.0,0.0,0.0,0.0,0.0,0.0,0.0,0.0,0.0,0.0,0.0,0.0,0.0,0.0,0.0,0.0,0.0,0.0,0.0,0.0,0.0,0.0,0.0,-2.3454,-2.2919,0.0,0.0,0.0,0.0,0.0,0.0,0.0,0.0,0.0,0.0,0.0,-3.531,-3.5033,0.0,0.0,0.0,0.0,0.0,0.0,0.0,0.0,0.0,0.0,0.0,0.0,-3.5654,-4.1119,-4.7894,-5.1391,-5.1359,-5.0312,-4.9192,-4.8033,-4.4388,-3.9974,-3.4851,0.0,0.0,0.0,0.0,0.0,0.0,0.0,0.0,0.0,0.0,0.0,0.0,0.0,0.0,0.0,0.0,0.0,0.0,0.0,0.0,0.0,0.0,0.0,0.0,0.0,-1.909,0.0,0.0,0.0,0.0,0.0,0.0,0.0,0.0,0.0,0.0,0.0,-3.0737,-3.6155,-3.9569,-4.3024,-4.7042,-4.9517,-5.1078,0.0,0.0,0.0,0.0,0.0,0.0,0.0,0.0,0.0,0.0,0.0,0.0,0.0,0.0,-3.8008,-3.6309,-3.5547,-3.4961,-3.4414,0.0,0.0,0.0,0.0,0.0,0.0,0.0,0.0,0.0,0.0,0.0,0.0,0.0,0.0,-2.737,0.0,-2.5913,0.0,0.0,0.0,0.0,0.0,0.0,0.0,0.0,-3.9331,-4.133,-4.1319,-4.102,-4.016,0.0,-3.8344,-3.6094,0.0,0.0,0.0,0.0,0.0,0.0,0.0,0.0,-3.6684,-4.1585,-4.8037,-5.1242,-5.0903,-4.9597,-4.8641,-4.8016,-4.4984,-4.0899,-3.5818,-3.2051,-2.8481,0.0,0.0,0.0,0.0,0.0,0.0,0.0,0.0,0.0,0.0,0.0,0.0,0.0,0.0,0.0,0.0,0.0,0.0,0.0,0.0,0.0,0.0,0.0,-2.032,0.0,0.0,0.0,0.0,0.0,0.0,0.0,0.0,0.0,-2.6465,-2.8867,-3.2284,-3.7122,-3.9696,-4.2563,-4.6583,0.0,0.0,0.0,0.0,0.0,0.0,0.0,-4.2799,-4.5126,-4.244,-4.0664,-4.2695,-4.3242,-4.3594,-4.4121,0.0,0.0,-4.2187,-4.1484,-4.0937,-3.9746,-3.8144,-3.6992,-3.6953,-3.7441,-3.8086,0.0,0.0,0.0,0.0,0.0,0.0,0.0,0.0,-3.3194,-3.2102,0.0,-2.9457,0.0,0.0,0.0,0.0,0.0,-3.0921,0.0,0.0,-4.5125,-4.7169,-4.7053,-4.6224,-4.5452,-4.464,-4.3071,-4.2298,-4.1905,-3.5708,0.0,0.0,0.0,0.0,0.0,0.0,-3.8157,-4.251,-4.8369,-5.0984,-5.0145,-4.9286,-4.8857,-4.8821,-4.6413,-4.3544,-4.0249,-3.5974,-3.2031,-2.8617,-2.4339,0.0,0.0,0.0,0.0,0.0,0.0,0.0,0.0,0.0,0.0,0.0,0.0,0.0,0.0,0.0,0.0,0.0,0.0,0.0,0.0,-2.0965,0.0,0.0,0.0,0.0,0.0,0.0,0.0,0.0,0.0,0.0,-2.875,-3.0762,-3.3828,-3.8125,0.0,0.0,0.0,0.0,-5.015,-5.0188,-5.0949,-5.0398,-4.71,-4.5129,-4.518,-4.8671,0.0,0.0,-4.8789,-4.8516,-4.8008,-4.7949,-4.8672,-4.8848,-4.8047,-4.7012,-4.584,-4.418,-4.3711,-4.3242,-4.1914,-4.2422,-4.3708,-4.4804,0.0,0.0,0.0,0.0,-3.7334,-3.8631,-3.9301,-3.8554,-3.7855,-3.7174,-3.522,0.0,0.0,0.0,0.0,0.0,0.0,-4.1185,-4.523,-4.8945,-5.0659,-5.0601,-4.9753,-4.8662,-4.7303,-4.6251,-4.5522,-4.4896,-4.2479,-3.8705,-3.3807,0.0,0.0,0.0,0.0,-3.9351,-4.4208,-4.8974,-5.0984,-5.0126,-4.872,-4.8232,-4.8798,-4.7549,-4.6647,-4.6202,-4.0932,-3.6384,-3.2968,-2.8159,0.0,0.0,0.0,0.0,0.0,0.0,0.0,0.0,0.0,0.0,0.0,0.0,0.0,0.0,0.0,0.0,0.0,0.0,0.0,-2.1883,-2.3033,-2.3581,0.0,0.0,0.0,0.0,0.0,0.0,0.0,0.0,0.0,-3.4629,-3.4785,-3.6269,0.0,0.0,-4.3066,-4.5898,-4.9003,-5.1015,-5.1015,-5.2812,0.0,-5.0369,-4.951,-5.0663,-5.4922,-5.4805,-5.4668,-5.6015,-5.5547,-5.4941,-5.4883,-5.4121,-5.3555,-5.3808,-5.1758,-4.9473,-4.7851,-4.7402,-4.707,-4.6055,-4.5717,-4.6014,-5.256,-4.5793,-4.4713,-4.3175,-4.168,-4.3499,-4.4699,-4.5258,-4.4619,-4.4017,-4.3401,-4.1332,-3.9192,-3.7018,-3.5804,0.0,0.0,0.0,-4.6352,-5.0028,-5.3109,-5.438,-5.3995,-5.3148,-5.2086,-5.0822,-4.933,-4.8625,-4.8603,-4.814,-4.5768,-4.1442,0.0,0.0,-3.6696,-3.876,-4.1666,-4.546,-4.9347,-5.0952,-5.0098,-4.9107,-4.8833,-4.9278,-4.8853,-4.8346,-4.7732,-4.2971,-3.8736,-3.5321,-3.0609,-2.6367,0.0,0.0,0.0,0.0,0.0,0.0,0.0,0.0,0.0,0.0,0.0,-1.3903,-1.4577,0.0,0.0,0.0,-2.0907,-2.28,-2.4479,-2.544,0.0,0.0,0.0,0.0,0.0,0.0,0.0,-3.2559,-3.584,-3.8516,-3.9687,-3.998,-4.0742,-4.248,-4.3418,-4.4785,-4.7031,0.0,-5.1387,-5.1387,-5.3613,-5.5019,-5.4238,-5.3183,-5.3633,-5.7051,-5.7812,-5.8047,-5.8515,-5.7695,-5.6914,-5.6738,-5.5996,-5.5351,-5.5527,-5.4354,-5.2788,-5.0835,-5.0111,-4.9703,-4.9197,-4.8955,-4.9176,-5.81,-5.5753,-5.1876,-4.965,-4.8798,-4.9616,-5.0855,-5.2144,-5.0645,-5.0027,-4.9919,-4.7424,-4.537,-4.3694,-4.2056,0.0,-4.6278,-4.7932,-5.0914,-5.4895,-5.728,-5.7934,-5.7069,-5.6184,-5.5343,-5.44,-5.2,-5.1315,-5.2207,-5.2281,-5.1587,-4.9893,-4.2214,-3.9043,-4.0552,-4.2753,-4.4779,-4.6599,-4.9699,-5.0907,-5.0128,-5.0117,-5.0137,-5.0206,-5.0055,-4.8845,-4.6367,-4.3027,-3.9648,-3.6278,-3.2175,-2.8696,-2.6026,0.0,0.0,0.0,0.0,0.0,0.0,0.0,0.0,0.0,0.0,0.0,0.0,0.0,0.0,0.0,-2.3583,0.0,-2.745,-2.8455,0.0,0.0,0.0,-3.1152,-3.3555,-3.4629,-3.582,-3.7422,0.0,0.0,-4.3711,-4.5469,-4.6328,-4.5508,-4.6113,-4.7207,-4.8867,-5.0566,-5.1621,-5.1836,-5.3965,-5.6289,-5.7793,-5.6328,-5.5449,-5.6973,-5.7578,-5.8164,-5.8066,-5.6933,-5.5781,-5.5898,-5.5586,-5.5293,-5.4394,-5.5363,-5.5638,-5.2999,-5.1925,-5.1382,-5.1511,-5.1963,-5.2426,-6.1664,-5.9931,-5.7717,-5.4655,-5.1312,-5.2108,-5.2688,-5.308,-5.2713,-5.2906,-5.3442,-5.1476,-4.998,-4.889,-4.8451,-4.9413,-5.1471,-5.3126,-5.5164,-5.7415,-5.8646,-5.8781,-5.7953,-5.7088,-5.559,-5.3572,-5.168,-5.0971,-5.1339,-5.1396,-5.1206,-5.0685,-4.8757,-4.7359,-4.6523,-4.6337,-4.7475,-4.9897,-5.0778,-5.0869,-5.0137,-5.0113,-5.0425,-5.1065,-4.9806,-4.8493,-4.7192,-4.3894,-4.0803,-3.8005,-3.5076,-3.1679,-2.78,-2.5808,0.0,0.0,0.0,0.0,0.0,0.0,0.0,0.0,0.0,-1.8767,-2.1093,0.0,-2.4592,0.0,-2.9381,-3.1706,-3.2762,-3.4248,0.0,0.0,-3.5469,-3.5957,-3.7246,-3.8711,-3.9824,-4.0215,-4.3105,-4.5234,-4.5644,-4.7773,-4.9199,-4.8984,-4.9121,-4.9648,-5.0703,-5.2285,-5.3633,-5.4355,-5.6445,-5.8633,-5.9609,-5.9941,-5.9648,-5.9531,-5.9629,-5.959,-5.8984,-5.8574,-5.8262,-5.8228,-5.7714,-5.7015,-5.6028,-5.5343,-5.4223,-5.296,-5.1999,-5.1824,-5.3081,-5.3042,-5.3272,-6.3028,-6.1854,-6.0197,-5.7791,-5.5094,-5.4535,-5.4381,-5.4439,-5.4458,-5.4997,-5.5825,-5.5152,-5.4574,-5.411,-5.407,-5.478,-5.603,-5.6973,-5.8127,-5.9415,-5.9877,-5.9454,-5.828,-5.7415,-5.5705,-5.3224,-5.1568,-5.0793,-5.0929,-5.131,-5.1673,-5.207,-5.2787,-5.2496,-5.1165,-4.9591,-4.953,-5.1035,-5.1152,-5.1043,-5.0694,-5.0689,-5.1074,-5.1849,-4.9522,-4.7624,-4.6365,-4.3044,-4.0212,-3.801,-3.5827,-3.3405,-3.0661,-2.8532,-2.6006,0.0,0.0,0.0,0.0,0.0,0.0,0.0,0.0,0.0,0.0,0.0,-2.922,-3.2073,-3.4732,-3.696,-3.8561,-3.9934,-4.0876,-4.1269,-4.1308,-4.1504,-4.1992,-4.2539,-4.3027,-4.3437,-4.5137,-4.6601,-4.7383,-4.9043,-5.0351,-5.0664,-5.043,-5.0488,-5.1328,-5.2578,-5.373,-5.4668,-5.6933,-5.9062,-6.0195,-6.0801,-6.0976,-6.043,-5.9453,-5.8652,-5.8574,-5.7634,-5.6883,-5.6848,-5.6489,-5.5907,-5.502,-5.4496,-5.3709,-5.296,-5.2644,-5.28,-5.3288,-5.3678,-5.4381,-6.3365,-6.2566,-6.0982,-5.9855,-5.8997,-5.683,-5.5884,-5.5816,-5.5986,-5.6612,-5.7545,-5.8312,-5.8558,-5.8462,-5.836,-5.8627,-5.9165,-5.9069,-5.9473,-6.03,-6.0435,-5.9704,-5.83,-5.7511,-5.5895,-5.351,-5.1702,-5.0875,-5.0968,-5.1657,-5.2447,-5.3395,-5.4921,-5.5305,-5.4491,-5.2297,-5.1119,-5.099,-5.1228,-5.1468,-5.1726,-5.1511,-5.1772,-5.2421,-4.9295,-4.6573,-4.4598,-4.1493,-3.8945,-3.7122,-3.5582,-3.435,-3.3414,-3.1232,-2.9238,0.0,-2.6161,0.0,0.0,0.0,0.0,0.0,0.0,0.0,0.0,-3.1667,-3.401,-3.7953,-3.9869,-4.1826,-4.4169,-4.5252,-4.6113,-4.6855,-4.6953,-4.6914,-4.6777,-4.6113,-4.5859,-4.6406,-4.6562,-4.7246,-4.8633,-4.9648,-5.0508,-5.1133,-5.0664,-5.0508,-5.1269,-5.1933,-5.2656,-5.3672,-5.6152,-5.8555,-5.998,-6.0312,-6.0234,-5.998,-5.832,-5.6933,-5.7637,-5.5753,-5.4076,-5.4112,-5.4205,-5.3834,-5.2858,-5.3522,-5.3815,-5.3112,-5.3834,-5.4303,-5.36,-5.44,-5.5474,-6.4149,-6.3331,-6.2224,-6.1247,-6.0286,-5.8551,-5.7273,-5.6472,-5.7188,-5.8111,-5.9133,-6.0022,-5.9983,-5.9246,-5.8588,-5.7992,-5.7434,-5.6742,-5.6876,-5.7723,-5.8454,-5.8607,-5.83,-5.8127,-5.7069,-5.5164,-5.2818,-5.1664,-5.1684,-5.1895,-5.2396,-5.3182,-5.4858,-5.5566,-5.5224,0.0,0.0,0.0,-5.1738,-5.2582,-5.3325,-5.2045,-5.1726,-5.248,-4.9281,0.0,-4.2916,-4.0863,-3.8667,-3.6298,-3.583,0.0,0.0,0.0,0.0,0.0,0.0,0.0,0.0,0.0,0.0,0.0,-3.8533,-3.8125,-3.6132,-3.8532,-4.1144,-4.3342,-4.5118,-4.6632,-4.7811,-4.9297,-5.0234,-5.041,-5.043,-5.0176,-4.9551,-4.9297,-4.8789,-4.75,-4.7969,-4.8496,-4.8887,-4.9668,-5.0488,-5.1211,-5.0703,-5.0547,-5.125,-5.1016,-5.1269,-5.2832,-5.582,-5.8418,-6.0137,-5.9824,-5.9334,-5.9182,-5.7887,-5.6744,-5.6653,-5.5306,-5.4008,-5.3936,-5.399,-5.3678,-5.2878,-5.3756,-5.4381,-5.3854,-5.5728,-5.6938,-5.522,-5.563,-5.6743,-6.4253,0.0,-6.2916,-6.2127,0.0,-6.0322,-5.9373,-5.8489,-5.7919,-5.8307,-5.9475,-6.0416,-6.0111,-5.8838,-5.7588,-5.6319,-5.5068,-5.3799,-5.3914,-5.5164,-5.639,-5.7197,-5.7639,-5.8419,-5.7689,-5.5558,-5.3443,-5.2195,-5.1811,-5.1794,-5.2212,-5.3031,-5.4699,-5.5308,-5.4795,-5.3621,-5.2319,-5.0918,-5.1865,-5.2854,-5.3818,-5.3058,-5.2797,-5.3128,-4.9929,0.0,0.0,0.0,0.0,0.0,0.0,0.0,0.0,0.0,0.0,-3.4607,-3.5373,-3.6382,-3.7634,-3.9364,-4.0915,-4.2182,-4.4325,-4.451,-4.1933,-4.4121,-4.6326,-4.8023,-4.9761,-5.1111,-5.2012,-5.3594,-5.4433,-5.4062,-5.4355,-5.4141,-5.2891,-5.1953,-5.0937,-4.9629,-4.873,-4.8555,-4.9433,-4.9473,-5.0078,-5.1133,-5.0703,-5.0351,-5.0683,-5.0469,-5.1055,-5.3535,-5.5683,-5.7715,-5.8945,-5.8532,-5.7918,-5.7703,-5.6469,-5.5634,-5.5879,-5.4512,-5.324,-5.2839,-5.2722,-5.2644,-5.2819,-5.3405,-5.4049,-5.4556,-5.6489,-5.8207,-5.7641,-5.8089,-5.8675,-6.4125,-6.3446,-6.3389,-6.2897,-6.2141,-6.1871,-6.1384,-6.0544,0.0,0.0,0.0,-6.0378,-5.9835,-5.8181,-5.6492,-5.478,-5.3126,-5.1452,-5.1606,-5.324,-5.4847,-5.613,-5.7167,-5.8635,-5.8202,-5.6132,-5.4292,-5.3066,-5.2353,-5.2173,-5.2399,-5.3202,-5.4645,-5.4887,-5.3874,-5.3154,-5.2145,-5.0979,-5.1953,-5.3032,-5.4078,-5.3989,-5.3892,-5.3892,-5.0883,-4.7954,-4.5207,-4.213,-3.9544,-3.7551,-3.6735,-3.6274,-3.6158,-3.717,-3.8222,-3.9256,-4.0381,-4.1828,-4.3615,-4.4634,-4.5541,-4.6384,-4.8493,-4.9026,-4.7343,-4.8652,-5.0214,-5.1718,-5.3301,-5.457,-5.5469,-5.6933,-5.7676,-5.7109,-5.7695,-5.7422,-5.5703,-5.4316,-5.291,-5.1484,-4.9453,-4.8574,-4.9902,-4.9453,-4.9531,-5.0879,-5.0703,-5.0293,-5.0391,-5.0508,-5.1601,-5.4551,-5.5879,-5.6816,-5.783,-5.743,-5.6591,-5.6333,-5.5196,-5.4552,-5.483,-5.3854,-5.2487,-5.1687,-5.1414,-5.1804,-5.2526,-5.3249,-5.3834,-5.4923,-5.7016,-5.8987,-6.0002,-6.0451,-6.049,-6.4174,-6.408,-6.3997,-6.3859,-6.3547,-6.2766,-6.202,-6.1269,-6.0141,-5.9805,-6.0122,-6.0508,-5.9787,-5.8135,-5.647,-5.478,-5.3126,-5.1471,-5.1586,-5.3176,-5.4847,-5.6414,-5.7944,-5.8878,-5.9102,-5.8585,-5.6309,-5.5078,-5.4814,-5.4164,-5.3866,-5.4052,-5.4925,-5.46,-5.3053,-5.2246,-5.1506,-5.0789,-5.2457,-5.3883,-5.4974,-5.4301,-5.3892,-5.3814,-5.2002,-4.9383,-4.6123,-4.4091,-4.1584,-3.8511,-3.8201,-3.7767,-3.7077,-3.9108,-4.1081,-4.2743,-4.4899,-4.7203,-4.955,-5.0646,-5.1532,-5.2378,-5.2825,-5.2375,-5.0886,-5.1594,-5.257,-5.3568,-5.4628,-5.5488,-5.6348,-5.7363,-5.8223,-5.873,-5.8945,-5.832,-5.6719,-5.6191,-5.4805,-5.1953,-5.0527,-4.9824,-5.0098,-4.9473,-4.9512,-5.084,-5.0801,-5.0488,-5.1074,-5.123,-5.2363,-5.459,-5.539,-5.6289,-5.76,-5.7336,-5.6372,-5.5255,-5.5181,-5.5044,-5.5123,-5.3893,-5.2526,-5.155,-5.1394,-5.1765,-5.2585,-5.399,-5.5123,-5.6235,-5.8343,-6.0217,-6.1134,-6.1388,-6.1252,-6.4023,-6.4023,-6.4,-6.3915,-6.383,-6.3345,-6.2712,-6.2039,-6.167,-6.1181,-6.0646,-6.0551,-5.9351,-5.7373,-5.5753,-5.3834,-5.172,-4.9969,-5.0312,-5.2401,-5.4066,-5.5974,-5.8017,-5.9312,-5.9905,-5.9771,-5.7819,-5.6799,-5.6658,-5.5492,-5.4836,-5.4791,-5.4753,-5.4065,-5.2843,-5.205,-5.1554,-5.1318,-5.2249,-5.3286,-5.4352,-5.4449,-5.4508,-5.4469,-5.2816,-5.0518,-4.7603,-4.4962,-4.2397,-3.9954,-3.896,-3.8439,-3.851,-4.0858,-4.3227,-4.5386,-4.7858,-5.0176,-5.2221,-5.2782,-5.3242,-5.3677,-5.4147,-5.4334,-5.4098,-5.4865,-5.5542,-5.5992,-5.6797,-5.7475,-5.793,-5.875,-5.9414,-5.9824,-6.0254,-6.0039,-5.8808,-5.7773,-5.6289,-5.3808,-5.1543,-5.0391,-5.0801,-4.9707,-4.9531,-5.0996,-5.1016,-5.1152,-5.1973,-5.2109,-5.3027,-5.5371,-5.5508,-5.5762,-5.7083,-5.6977,-5.6391,-5.586,-5.5513,-5.5142,-5.4732,-5.3795,-5.2956,-5.1707,-5.1414,-5.196,-5.3093,-5.442,-5.5864,-5.7758,-5.9143,-6.0627,-6.1427,-6.1701,-6.1544,-6.3568,-6.3568,-6.3755,-6.3805,-6.3736,-6.3628,-6.3212,-6.2717,-6.2639,-6.2002,-6.1012,-6.0468,-5.9014,-5.6939,-5.5331,-5.3459,-5.1404,-5.0002,-5.0514,-5.2564,-5.4279,-5.6206,-5.8226,-5.972,-6.0389,-6.0236,-5.8861,-5.8146,-5.7982,-5.6465,-5.553,-5.5236,-5.4282,-5.3328,-5.2494,-5.1501,-5.1059,-5.1197,-5.1337,-5.2191,-5.3804,-5.4536,-5.4865,-5.4768,-5.3372,-5.1392,-4.8865,-4.5901,-4.3461,-4.1654,-4.0274,-3.9712,-4.0238,-4.2585,-4.5013,-4.7359,-4.9866,-5.2094,-5.3836,-5.4095,-5.4236,-5.451,-5.5113,-5.5909,-5.6751,-5.7625,-5.8068,-5.8067,-5.8493,-5.9019,-5.9336,-5.9922,-6.0469,-6.0703,-6.1269,-6.1113,-6.0156,-5.8945,-5.7304,-5.5195,-5.2324,-5.0723,-5.0917,-4.9765,-4.9316,-5.0664,-5.1267,-5.1795,-5.2713,-5.2986,-5.408,-5.5975,-5.5956,-5.5525,-5.6383,-5.663,-5.6586,-5.6586,-5.6079,-5.5376,-5.4693,-5.4342,-5.36,-5.2253,-5.196,-5.2546,-5.3795,-5.5123,-5.6645,-5.8558,-5.9924,-6.0939,-6.1544,-6.1701,-6.1701,-6.2569,-6.268,-6.3349,-6.3602,-6.3602,-6.3509,-6.3344,-6.3178,-6.2456,-6.1698,-6.1009,-6.027,-5.903,-5.7454,-5.5963,-5.4738,-5.3838,-5.3775,-5.4154,-5.5159,-5.6837,-5.815,-5.9033,-5.9884,-6.0332,-6.0246,-5.934,-5.8854,-5.8795,-5.7175,-5.5938,-5.5026,-5.3522,-5.236,-5.1466,-4.9961,-4.9196,-4.9255,-4.9277,-5.0928,-5.4109,-5.4417,-5.4455,-5.4437,-5.3584,-5.1997,-4.9567,-4.7745,-4.5673,-4.3513,-4.3012,-4.2586,-4.2218,-4.4296,-4.6466,-4.8265,-5.0728,-5.3146,-5.5432,-5.5777,-5.6087,-5.688,-5.6955,-5.7417,-5.8288,-5.916,-5.9409,-5.9024,-5.894,-5.9416,-6.008,-6.034,-6.0728,-6.1366,-6.1587,-6.1067,-5.9639,-5.9075,-5.7747,-5.4447,-5.2451,-5.1322,-5.1125,-4.9524,-4.8719,-5.0196,-5.1117,-5.2112,-5.3513,-5.3962,-5.5133,-5.743,-5.6886,-5.5895,-5.6529,-5.6618,-5.6602,-5.6582,-5.6528,-5.5957,-5.5313,-5.4966,-5.4615,-5.3093,-5.3112,-5.3659,-5.44,-5.5806,-5.7738,-5.8851,-6.0256,-6.1583,-6.1701,-6.1701,-6.1701,-6.2413,-6.2487,-6.3286,-6.3557,-6.3492,-6.3427,-6.3354,-6.3223,-6.2903,-6.2048,-6.0877,-5.9659,-5.8439,-5.7169,-5.6283,-5.5736,-5.5568,-5.5626,-5.6378,-5.755,-5.8334,-5.9071,-5.9789,-6.0122,-6.0294,-6.016,-5.9398,-5.8997,-5.8683,-5.7263,-5.5959,-5.4998,-5.34,-5.2201,-5.1268,-4.9182,-4.8085,-4.8095,-4.8071,-4.9058,-5.0883,-5.2214,-5.3278,-5.4047,-5.3031,-5.1759,-5.0209,-4.8203,-4.6156,-4.4408,-4.4175,-4.423,-4.4354,-4.6758,-4.8905,-5.0619,-5.3033,-5.489,-5.5935,-5.6476,-5.6921,-5.7288,-5.7791,-5.843,-5.9281,-5.9706,-5.9971,-6.0235,-6.0287,-6.0553,-6.0867,-6.0971,-6.1129,-6.1459,-6.152,-6.1027,-5.9923,-5.9279,-5.7797,-5.495,-5.2636,-5.1308,-5.1234,-5.049,-4.9952,-5.0352,-5.1191,-5.2637,-5.4207,-5.4964,-5.6539,-5.8585,-5.7848,-5.7182,-5.7746,-5.7089,-5.6654,-5.6498,-5.6524,-5.6238,-5.5606,-5.5265,-5.4801,-5.3678,-5.3932,-5.4342,-5.4713,-5.6294,-5.807,-5.9163,-6.0432,-6.1701,-6.1701,-6.1701,-6.1701,-6.2034,-6.2183,-6.3066,-6.3419,-6.3336,-6.3335,-6.3262,-6.3117,-6.3088,-6.2181,-6.0646,-5.9153,-5.7776,-5.672,-5.6034,-5.5939,-5.6359,-5.6673,-5.7586,-5.8949,-5.9207,-5.9684,-6.0226,-6.0235,-6.0167,-6.0023,-5.9558,-5.9158,-5.8737,-5.7443,-5.6264,-5.5247,-5.3498,-5.2148,-5.1152,-4.877,-4.7473,-4.7473,-4.7422,-4.7832,-4.8814,-5.013,-5.1687,-5.3082,-5.2043,-5.1015,-5.0246,-4.8121,-4.6472,-4.5438,-4.5357,-4.5835,-4.6944,-4.8905,-5.0879,-5.2817,-5.4832,-5.6109,-5.6341,-5.696,-5.7521,-5.8004,-5.8623,-5.9319,-6.0016,-6.0228,-6.0517,-6.1018,-6.1192,-6.1221,-6.1354,-6.1392,-6.1408,-6.1397,-6.1414,-6.0997,-5.995,-5.9249,-5.7886,-5.5307,-5.301,-5.1226,-5.0823,-5.0859,-5.0946,-5.0331,-5.1241,-5.278,-5.4173,-5.5065,-5.6301,-5.8754,-5.7928,-5.7717,-5.8698,-5.7545,-5.663,-5.6894,-5.705,-5.6773,-5.6172,-5.6153,-5.5669,-5.5196,-5.4864,-5.4927,-5.563,-5.6996,-5.8558,-5.9651,-6.0822,-6.1701,-6.1701,-6.1701,-6.1701,-6.1155,-6.1345,-6.2613,-6.3213,-6.3194,-6.3084,-6.2988,-6.3002,-6.2892,-6.1924,-6.0357,-5.8777,-5.7295,-5.6006,-5.5169,-5.5117,-5.5988,-5.6923,-5.7844,-5.8817,-5.9551,-6.0,-6.0099,-6.0057,-6.0057,-6.0068,-5.9943,-5.9513,-5.8779,-5.7867,-5.7021,-5.605,-5.3661,-5.2021,-5.1035,-4.8731,-4.7416,-4.7422,-4.7397,-4.7738,-4.8496,-4.8731,-4.9724,-5.0976,-5.0586,-4.9872,-4.91,-4.7662,-4.6841,-4.697,-4.6941,-4.7715,-4.932,-5.0384,-5.2086,-5.4365,-5.549,-5.6379,-5.7058,-5.7309,-5.8004,-5.9397,-5.9745,-6.0151,-6.0828,-6.0925,-6.0983,-6.1099,-6.1137,-6.1164,-6.1266,-6.1331,-6.1363,-6.1386,-6.1383,-6.0662,-5.9227,-5.9029,-5.7729,-5.5461,-5.3447,-5.1463,-4.9334,-5.0282,-5.0719,-5.0412,-5.0761,-5.1967,-5.3359,-5.3824,-5.51,-5.6707,-5.7052,-5.6824,-5.8435,-5.7465,-5.7047,-5.7424,-5.7519,-5.7584,-5.8052,-5.8153,-5.7271,-5.6631,-5.6221,-5.6226,-5.6738,-5.7816,-5.9378,-6.0471,-6.1115,-6.1681,-6.1701,-6.1701,-6.1701,-6.1994,-6.2429,-6.2973,-6.3165,-6.308,-6.3036,-6.2959,-6.2855,-6.2805,-6.1906,-6.0401,-5.9263,-5.7978,-5.6571,-5.5776,-5.5716,-5.6365,-5.7275,-5.8242,-5.9118,-5.9616,-5.9828,-5.9861,-5.9963,-5.9963,-5.9982,-5.9994,-5.9577,-5.8779,-5.7863,-5.7017,-5.5906,-5.365,-5.2248,-5.149,-4.8932,-4.7397,-4.7397,-4.7397,-4.7036,-4.6601,-4.7832,-4.8534,-4.806,-4.8856,-4.8951,-4.8275,-4.7799,-4.7434,-4.7105,-4.7603,-4.8701,-5.0422,-5.2356,-5.402,-5.5374,-5.5838,-5.6399,-5.7193,-5.7851,-5.8624,-5.9745,-6.0402,-6.075,-6.1041,-6.1099,-6.1099,-6.1099,-6.1099,-6.1134,-6.1167,-6.12,-6.12,-6.1223,-6.1184,-6.0771,-5.9762,-5.9045,-5.7901,-5.5845,-5.374,-5.1385,-4.9828,-5.013,-5.0811,-5.0195,-5.1042,-5.2227,-5.3178,-5.384,-5.4885,-5.6405,-5.6482,-5.6461,-5.8276,-5.7172,-5.6459,-5.7288,-5.7664,-5.7405,-5.7585,-5.7439,-5.665,-5.6827,-5.6744,-5.6965,-5.7297,-5.8104,-5.9705,-6.049,-6.1174,-6.1701,-6.1701,-6.1701,-6.1701,-6.2427,-6.3044,-6.3117,-6.3002,-6.2935,-6.2929,-6.288,-6.2805,-6.2805,-6.2053,-6.0768,-5.9637,-5.839,-5.7253,-5.6415,-5.6184,-5.6537,-5.7338,-5.8278,-5.9178,-5.9399,-5.9524,-5.9594,-5.9782,-5.9885,-5.9872,-5.9931,-5.9678,-5.9128,-5.8249,-5.7403,-5.6474,-5.4067,-5.2665,-5.1926,-4.9083,-4.751,-4.7681,-4.7302,-4.6506,-4.5994,-4.7359,-4.7757,-4.6999,-4.801,-4.8306,-4.7416,-4.7223,-4.7307,-4.7511,-4.8284,-4.9792,-5.2047,-5.4078,-5.5432,-5.5935,-5.6012,-5.6534,-5.758,-5.8276,-5.9087,-6.019,-6.077,-6.1099,-6.1099,-6.1099,-6.1099,-6.1099,-6.1099,-6.1099,-6.1099,-6.1099,-6.1099,-6.1099,-6.1099,-6.077,-5.9977,-5.9106,-5.7731,-5.5797,-5.391,-5.1886,-5.0306,-5.0666,-5.0771,-5.0289,-5.1256,-5.2132,-5.3144,-5.3801,-5.4747,-5.6169,-5.6069,-5.6184,-5.7016,-5.6387,-5.6579,-5.7428,-5.7751,-5.7412,-5.7256,-5.6932,-5.6703,-5.6913,-5.7186,-5.7435,-5.7941,-5.8655,-5.9412,-6.0237,-6.1056,-6.1701,-6.1701,-6.1701,-6.1701,-6.2284,-6.2947,-6.2855,-6.2823,-6.2805,-6.2805,-6.2805,-6.2823,-6.2823,-6.2254,-6.1105,-5.9761,-5.8615,-5.77,-5.682,-5.6463,-5.6649,-5.7217,-5.7918,-5.8732,-5.8926,-5.9101,-5.9271,-5.9508,-5.9685,-5.9824,-5.9872,-5.9885,-5.9785,-5.8957,-5.8142,-5.7062,-5.4901,-5.3252,-5.24,-4.9367,-4.7927,-4.8155,-4.7169,-4.6639,-4.7264,-4.7397,-4.7416,-4.7327,-4.8131,-4.7966,-4.6577,-4.597,-4.6665,-4.8179,-4.9051,-5.1153,-5.4003,-5.5318,-5.5915,-5.5954,-5.5973,-5.6805,-5.8275,-5.8584,-5.9319,-6.0654,-6.1079,-6.1099,-6.1099,-6.1099,-6.1099,-6.1099,-6.1099,-6.1099,-6.1099,-6.1099,-6.1099,-6.1099,-6.1099,-6.077,-6.0054,-5.9145,-5.7637,-5.547,-5.4072,-5.3204,-5.2336,-5.1599,-5.1178,-5.099,-5.1018,-5.1636,-5.2934,-5.3319,-5.3976,-5.5245,-5.5626,-5.572,-5.5761,-5.5818,-5.6799,-5.7607,-5.7736,-5.766,-5.777,-5.7563,-5.6966,-5.7055,-5.7628,-5.7916,-5.8301,-5.8981,-5.946,-6.0212,-6.0993,-6.1661,-6.1701,-6.1701,-6.1701,-6.2733,-6.2855,-6.2805,-6.2823,-6.2823,-6.2823,-6.2823,-6.2823,-6.2823,-6.2003,-6.0695,-6.0042,-5.9024,-5.785,-5.7328,-5.7218,-5.7218,-5.7454,-5.7767,-5.8086,-5.8282,-5.8503,-5.8812,-5.914,-5.9524,-5.982,-5.9904,-5.9904,-5.9753,-5.9089,-5.8256,-5.7156,-5.547,-5.3821,-5.2362,-5.0258,-4.9064,-4.8553,-4.7605,-4.6923,-4.6676,-4.7112,-4.7131,-4.6714,-4.7372,-4.7536,-4.7136,-4.7523,-4.843,-4.9702,-5.0086,-5.1644,-5.4145,-5.4954,-5.5397,-5.5877,-5.5451,-5.6244,-5.8217,-5.8642,-5.9339,-6.0692,-6.1099,-6.1099,-6.1099,-6.1099,-6.1099,-6.1099,-6.1099,-6.1099,-6.1099,-6.1099,-6.1099,-6.1099,-6.1099,-6.1002,-6.0538,-5.9455,-5.7791,-5.6012,-5.4907,-5.3804,-5.2566,-5.1834,-5.1525,-5.0967,-5.0866,-5.1451,-5.2781,-5.28,-5.3379,-5.5147,-5.5107,-5.522,-5.5568,-5.5838,-5.6451,-5.697,-5.7133,-5.7311,-5.7564,-5.7544,-5.7074,-5.7311,-5.7882,-5.8414,-5.8812,-5.9342,-5.9885,-6.03,-6.1052,-6.1442,-6.1642,-6.1642,-6.1505,-6.2855,-6.2823,-6.2755,-6.2705,-6.2686,-6.2682,-6.2631,-6.2599,-6.2338,-6.1592,-6.0633,-5.9839,-5.9023,-5.8081,-5.765,-5.7455,-5.7455,-5.7455,-5.7504,-5.7649,-5.7867,-5.8131,-5.8405,-5.8913,-5.9325,-5.9631,-5.9719,-5.9772,-5.9767,-5.9308,-5.8527,-5.7327,-5.6038,-5.4352,-5.2438,-5.0751,-4.9481,-4.8647,-4.7529,-4.6714,-4.6392,-4.6676,-4.6695,-4.643,-4.7302,-4.7984,-4.8325,-4.9224,-4.9936,-5.0522,-5.1322,-5.2817,-5.4381,-5.4612,-5.4745,-5.4854,-5.5064,-5.5799,-5.7811,-5.8391,-5.9339,-6.0712,-6.1099,-6.1099,-6.1099,-6.1099,-6.1099,-6.1099,-6.1099,-6.1099,-6.1099,-6.1099,-6.1099,-6.1099,-6.1099,-6.0963,-6.0615,-5.9745,-5.8391,-5.6863,-5.5763,-5.445,-5.3121,-5.2196,-5.1773,-5.1005,-5.0795,-5.1395,-5.255,-5.2512,-5.3589,-5.4472,-5.4759,-5.5085,-5.5626,-5.5934,-5.6184,-5.6299,-5.6359,-5.6517,-5.6693,-5.6521,-5.6194,-5.7253,-5.8012,-5.8644,-5.9114,-5.9961,-6.0598,-6.0939,-6.1047,-6.1442,-6.1642,-6.1213,-6.1037,-6.2773,-6.2755,-6.2603,-6.2552,-6.2585,-6.2453,-6.2384,-6.2193,-6.1606,-6.1131,-6.0628,-5.9379,-5.8569,-5.8282,-5.7561,-5.7239,-5.7188,-5.7239,-5.7239,-5.7356,-5.7583,-5.7895,-5.822,-5.8639,-5.899,-5.9234,-5.9401,-5.9474,-5.9543,-5.959,-5.8973,-5.7441,-5.6569,-5.4996,-5.2798,-5.0884,-4.9765,-4.8799,-4.7226,-4.6392,-4.6222,-4.6222,-4.6241,-4.6278,-4.7749,-4.8924,-4.9652,-5.0732,-5.1074,-5.0875,-5.2856,-5.4146,-5.4386,-5.4435,-5.4072,-5.3848,-5.4368,-5.5627,-5.7077,-5.8197,-5.9339,-6.0847,-6.1099,-6.1099,-6.1099,-6.1099,-6.1099,-6.1099,-6.1099,-6.1099,-6.1099,-6.1099,-6.1099,-6.1099,-6.1099,-6.0809,-6.0132,-5.9938,-5.9068,-5.7773,-5.6635,-5.542,-5.3702,-5.2778,-5.1931,-5.1181,-5.0875,-5.1568,-5.2723,-5.3031,-5.2988,-5.3584,-5.4355,-5.4876,-5.5397,-5.5357,-5.5742,-5.6898,-5.6629,-5.6282,-5.6228,-5.5959,-5.6328,-5.7352,-5.8197,-5.8839,-5.9541,-6.0358,-6.0679,-6.062,-6.0938,-6.1481,-6.1388,-6.09,-6.0471,-6.2185,-6.2185,-6.2291,-6.2291,-6.2291,-6.2342,-6.2029,-6.1558,-6.1272,-6.0417,-5.9419,-5.8805,-5.8192,-5.7583,-5.7315,-5.7188,-5.7134,-5.7152,-5.7188,-5.7206,-5.7289,-5.7613,-5.7969,-5.8208,-5.8489,-5.8769,-5.8926,-5.9121,-5.9307,-5.9453,-5.8763,-5.746,-5.7118,-5.5811,-5.3537,-5.221,-5.0997,-4.9538,-4.7927,-4.6733,-4.6222,-4.6165,-4.6203,-4.6354,-4.7813,-4.9045,-5.0031,-5.1973,-5.3054,-5.3033,-5.4199,-5.5039,-5.492,-5.4134,-5.3937,-5.4643,-5.4295,-5.5165,-5.7541,-5.8449,-5.9377,-6.0847,-6.1099,-6.1099,-6.1099,-6.1099,-6.1099,-6.1099,-6.1099,-6.1099,-6.1099,-6.1099,-6.1099,-6.1099,-6.1099,-6.1002,-6.0712,-6.0228,-5.963,-5.907,-5.7795,-5.6155,-5.4535,-5.3494,-5.2608,-5.1761,-5.1356,-5.1491,-5.2934,-5.2857,-5.249,-5.3432,-5.4203,-5.4666,-5.4975,-5.4878,-5.5551,-5.7266,-5.7247,-5.6475,-5.6286,-5.6019,-5.6831,-5.7929,-5.8499,-5.9118,-5.9853,-6.0622,-6.0525,-6.0184,-6.1016,-6.1564,-6.0978,-6.0451,-5.9983,-6.1145,-6.1564,-6.1694,-6.1896,-6.1969,-6.1806,-6.1476,-6.0931,-6.0277,-5.9517,-5.8609,-5.8105,-5.7692,-5.7206,-5.7188,-5.6989,-5.6717,-5.6681,-5.6681,-5.6754,-5.7025,-5.7419,-5.7755,-5.7923,-5.8123,-5.8326,-5.8498,-5.8728,-5.8949,-5.9159,-5.853,-5.7508,-5.7321,-5.6083,-5.3764,-5.2817,-5.1367,-4.9511,-4.8041,-4.6866,-4.5767,-4.5653,-4.5634,-4.5975,-4.7302,-4.8856,-5.0865,-5.3072,-5.4248,-5.4373,-5.4827,-5.5015,-5.4676,-5.3981,-5.3827,-5.4574,-5.4033,-5.5132,-5.7366,-5.8333,-5.9377,-6.0692,-6.1099,-6.1099,-6.1099,-6.1099,-6.1099,-6.1099,-6.1099,-6.1099,-6.1099,-6.1099,-6.108,-6.1061,-6.1061,-6.106,-6.1099,-6.0674,-6.021,-5.9592,-5.851,-5.6811,-5.4823,-5.4091,-5.3224,-5.2338,-5.1952,-5.2549,-5.3376,-5.2568,-5.2106,-5.2953,-5.3222,-5.3377,-5.3819,-5.3895,-5.5012,-5.6766,-5.7439,-5.6706,-5.679,-5.6522,-5.7195,-5.8153,-5.8777,-5.9333,-5.9807,-6.0068,-5.9785,-5.9911,-6.0924,-6.1037,-6.0334,-5.9866,-5.9417,-5.9774,-6.0731,-6.1033,-6.13,-6.144,-6.1063,-6.0702,-6.0231,-5.9139,-5.8431,-5.8127,-5.7496,-5.7279,-5.7188,-5.6989,-5.6663,-5.6029,-5.5957,-5.5993,-5.6228,-5.6663,-5.7157,-5.7534,-5.7649,-5.7745,-5.7914,-5.8142,-5.8344,-5.8521,-5.8849,-5.8259,-5.7344,-5.7173,-5.604,-5.4227,-5.3063,-5.131,-4.9492,-4.823,-4.691,-4.5615,-4.5179,-4.5066,-4.535,-4.7157,-4.9413,-5.1831,-5.3859,-5.4844,-5.4882,-5.4901,-5.4638,-5.4097,-5.3971,-5.3786,-5.3625,-5.4201,-5.5229,-5.7021,-5.8218,-5.93,-6.0712,-6.1079,-6.1099,-6.1099,-6.1099,-6.1099,-6.1099,-6.1099,-6.1099,-6.1099,-6.1099,-6.108,-6.1022,-6.0964,-6.0867,-6.0945,-6.0983,-6.0732,-5.9959,-5.9009,-5.7194,-5.5612,-5.4475,-5.3933,-5.3126,-5.2799,-5.3068,-5.3433,-5.2953,-5.2356,-5.2145,-5.2106,-5.174,-5.2278,-5.2817,-5.4434,-5.6071,-5.686,-5.6939,-5.7603,-5.7639,-5.7821,-5.8347,-5.9127,-5.925,-5.9093,-5.9124,-5.9061,-5.8955,-5.9499,-5.9549,-5.9358,-5.9085,-5.8714,-5.8868,-5.9435,-6.0438,-6.0724,-6.0511,-6.0684,-6.0086,-5.8945,-5.854,-5.8032,-5.7514,-5.7261,-5.7188,-5.7152,-5.6609,-5.6138,-5.5866,-5.545,-5.5432,-5.5993,-5.612,-5.6663,-5.7143,-5.7356,-5.7356,-5.7437,-5.7534,-5.7755,-5.806,-5.8283,-5.7891,-5.6945,-5.6839,-5.6215,-5.4739,-5.3669,-5.2532,-5.0713,-4.9174,-4.7486,-4.5937,-4.5179,-4.4952,-4.5274,-4.7758,-5.0206,-5.22,-5.401,-5.4863,-5.4901,-5.4882,-5.4769,-5.4543,-5.4135,-5.4123,-5.4432,-5.4422,-5.5436,-5.7409,-5.822,-5.9167,-6.0616,-6.0887,-6.1041,-6.1099,-6.1099,-6.1099,-6.1099,-6.1099,-6.1099,-6.1099,-6.1099,-6.1022,-6.0906,-6.0423,-5.9998,-6.0113,-6.0556,-6.0631,-6.0261,-5.9141,-5.7809,-5.6515,-5.5109,-5.4453,-5.3933,-5.376,-5.3645,-5.351,-5.3395,-5.2722,-5.2145,-5.1952,-5.176,-5.1568,-5.2318,-5.378,-5.5032,-5.5761,-5.6498,-5.7197,-5.8095,-5.8021,-5.8642,-5.9558,-5.9494,-5.9337,-5.8905,-5.9001,-5.8552,-5.81,-5.8124,-5.8168,-5.805,-5.8246,-5.7144,-5.7974,-5.8959,-5.939,-5.9463,-5.9601,-5.9198,-5.8402,-5.7964,-5.7601,-5.7243,-5.7188,-5.7188,-5.7116,-5.6373,-5.5848,-5.5341,-5.4725,-5.4762,-5.5414,-5.5812,-5.6464,-5.7043,-5.7188,-5.7188,-5.7188,-5.7338,-5.7516,-5.7802,-5.7931,-5.7659,-5.6574,-5.6667,-5.6049,-5.4843,-5.4027,-5.2759,-5.1131,-4.9546,-4.7732,-4.5824,-4.5179,-4.5464,-4.6285,-4.8555,-5.0688,-5.2361,-5.401,-5.4769,-5.4901,-5.4901,-5.4901,-5.4882,-5.4543,-5.4638,-5.4876,-5.4955,-5.5503,-5.7013,-5.7636,-5.8344,-6.0108,-6.0303,-6.0635,-6.0867,-6.106,-6.1099,-6.1099,-6.1099,-6.1099,-6.1099,-6.1099,-6.1002,-6.0403,-5.9746,-5.8916,-5.8375,-5.8971,-5.9721,-5.9447,-5.8404,-5.7362,-5.6302,-5.5568,-5.5299,-5.4953,-5.4914,-5.4799,-5.4568,-5.428,-5.3106,-5.2491,-5.226,-5.1914,-5.1337,-5.1875,-5.3106,-5.3991,-5.4491,-5.517,-5.5826,-5.6911,-5.794,-5.8931,-5.9991,-6.0235,-6.0048,-5.9547,-5.8864,-5.8173,-5.7695,-5.725,-5.7153,-5.7562,-5.7836,-5.5349,-5.6564,-5.7321,-5.7935,-5.8417,-5.8394,-5.8298,-5.8042,-5.7496,-5.7243,-5.7188,-5.7188,-5.7116,-5.6844,-5.6138,-5.5377,-5.4508,-5.3965,-5.3947,-5.4707,-5.5432,-5.612,-5.6754,-5.7062,-5.7188,-5.7206,-5.7289,-5.7401,-5.7382,-5.7574,-5.6945,-5.6125,-5.6161,-5.5617,-5.4613,-5.3993,-5.3145,-5.1812,-5.0201,-4.8105,-4.588,-4.5236,-4.5634,-4.6948,-4.8865,-5.0669,-5.2333,-5.3897,-5.4901,-5.4901,-5.4901,-5.4901,-5.4901,-5.492,-5.4939,-5.4977,-5.5064,-5.5652,-5.6444,-5.6855,-5.7561,-5.9168,-5.9515,-6.0031,-6.0654,-6.0983,-6.106,-6.106,-6.106,-6.1099,-6.1099,-6.1099,-6.0751,-6.0113,-5.9185,-5.7757,-5.6695,-5.7154,-5.754,-5.7807,-5.7401,-5.6667,-5.653,-5.6203,-5.6107,-5.6049,-5.603,-5.6011,-5.5799,-5.5261,-5.4203,-5.3126,-5.2856,-5.2241,-5.1645,-5.1606,-5.2818,-5.3241,-5.3606,-5.4207,-5.4919,-5.6375,-5.7795,-5.9385,-6.0309,-6.0568,-6.0676,-6.0285,-5.9427,-5.8207,-5.7328,-5.6918,-5.6977,-5.7211,-5.7562,-5.4992,-5.5727,-5.6796,-5.7351,-5.7415,-5.7872,-5.7745,-5.7291,-5.7246,-5.7188,-5.7188,-5.7188,-5.6826,-5.621,-5.5432,-5.4309,-5.3259,-5.2878,-5.3204,-5.3965,-5.4762,-5.5595,-5.6283,-5.6953,-5.7152,-5.7188,-5.7148,-5.6908,-5.6521,-5.6346,-5.6017,-5.5024,-5.4944,-5.4726,-5.4521,-5.4233,-5.3751,-5.2655,-5.1082,-4.8977,-4.6809,-4.5369,-4.5249,-4.6563,-4.8593,-5.0548,-5.2314,-5.3916,-5.4901,-5.4901,-5.4901,-5.4901,-5.4901,-5.4901,-5.492,-5.495,-5.5038,-5.5465,-5.6149,-5.6501,-5.7466,-5.8764,-5.9254,-5.9823,-6.0494,-6.0885,-6.0983,-6.1022,-6.1061,-6.1099,-6.1099,-6.108,-6.106,-6.048,-5.9283,-5.7892,-5.6869,-5.6018,-5.5668,-5.5994,-5.6032,-5.6357,-5.6588,-5.6876,-5.6992,-5.7107,-5.728,-5.7415,-5.7453,-5.6722,-5.5703,-5.4587,-5.3549,-5.2779,-5.1972,-5.2029,-5.251,-5.276,-5.3145,-5.3667,-5.4631,-5.617,-5.7707,-5.9176,-6.0369,-6.099,-6.0971,-6.0851,-6.0002,-5.8812,-5.7758,-5.6743,-5.7172,-5.768,-5.7933,-5.4278,-5.4758,-5.5438,-5.5916,-5.6311,-5.6878,-5.703,-5.6955,-5.7123,-5.7188,-5.7188,-5.7152,-5.6754,-5.5975,-5.5251,-5.382,-5.2389,-5.2371,-5.2715,-5.3277,-5.4309,-5.5287,-5.5993,-5.679,-5.6826,-5.6681,-5.6536,-5.641,-5.6029,-5.6158,-5.5385,-5.4535,-5.4393,-5.4401,-5.4125,-5.3833,-5.3546,-5.274,-5.1025,-4.8712,-4.6222,-4.4492,-4.4442,-4.6228,-4.8048,-5.0104,-5.2115,-5.3432,-5.4398,-5.4769,-5.4882,-5.4871,-5.486,-5.486,-5.486,-5.4901,-5.4971,-5.5132,-5.5548,-5.575,-5.6483,-5.8006,-5.8448,-5.9243,-6.0195,-6.0734,-6.088,-6.0981,-6.1021,-6.106,-6.104,-6.1022,-6.0848,-6.0171,-5.8819,-5.7294,-5.5981,-5.4708,-5.4513,-5.4645,-5.4953,-5.5722,-5.7049,-5.7376,-5.7761,-5.8107,-5.8434,-5.8665,-5.8896,-5.7934,-5.6819,-5.528,-5.3972,-5.2722,-5.1991,-5.1914,-5.1914,-5.2145,-5.2626,-5.3167,-5.4342,-5.588,-5.7331,-5.8765,-5.9873,-6.1229,-6.1374,-6.1256,-6.0324,-5.9534,-5.8792,-5.8187,-5.8011,-5.8128,-5.8382,-5.3685,-5.398,-5.4235,-5.472,-5.5378,-5.5985,-5.6453,-5.6724,-5.7054,-5.7188,-5.717,-5.6971,-5.6482,-5.5631,-5.4472,-5.3059,-5.1357,-5.1991,-5.219,-5.257,-5.3856,-5.5015,-5.5776,-5.6283,-5.6428,-5.6192,-5.5812,-5.5703,-5.5377,-5.5438,-5.4825,-5.4,-5.3983,-5.3979,-5.3553,-5.3278,-5.2755,-5.183,-5.0163,-4.7624,-4.4965,-4.3283,-4.3341,-4.5655,-4.7413,-4.9595,-5.1954,-5.3078,-5.3978,-5.4587,-5.4863,-5.4871,-5.481,-5.478,-5.478,-5.4829,-5.4841,-5.4871,-5.4898,-5.4936,-5.5746,-5.7376,-5.7568,-5.8663,-5.9824,-6.0508,-6.0723,-6.0933,-6.0976,-6.0824,-6.069,-6.069,-6.0266,-5.9396,-5.8064,-5.6598,-5.5421,-5.4437,-5.4032,-5.4127,-5.4222,-5.5415,-5.7107,-5.7819,-5.8204,-5.9184,-5.955,-5.955,-5.9588,-5.8665,-5.7434,-5.5722,-5.4203,-5.2702,-5.1895,-5.151,-5.1395,-5.1279,-5.1934,-5.2589,-5.4014,-5.5553,-5.7056,-5.8636,-6.0261,-6.1439,-6.1568,-6.1562,-6.0832,-6.0237,-5.9866,-5.9397,-5.8831,-5.8636,-5.8792,-5.3618,-5.3783,-5.3963,-5.4414,-5.507,-5.5665,-5.6212,-5.6634,-5.7018,-5.7188,-5.7025,-5.6446,-5.5776,-5.4653,-5.2733,-5.1683,-5.1357,-5.1321,-5.143,-5.1683,-5.3059,-5.42,-5.4888,-5.507,-5.5577,-5.554,-5.5214,-5.4635,-5.4291,-5.4175,-5.3668,-5.3017,-5.2951,-5.2918,-5.281,-5.2509,-5.2682,-5.2057,-5.0467,-4.7598,-4.431,-4.2718,-4.3283,-4.4904,-4.6976,-4.9381,-5.1668,-5.2836,-5.3723,-5.4663,-5.4833,-5.4863,-5.4795,-5.4673,-5.459,-5.459,-5.4648,-5.4716,-5.4711,-5.4729,-5.5391,-5.6796,-5.7313,-5.8312,-5.945,-6.0246,-6.0553,-6.0888,-6.0853,-6.0547,-6.0087,-5.9877,-5.9376,-5.8699,-5.7753,-5.6731,-5.5651,-5.4879,-5.4397,-5.4243,-5.4549,-5.6049,-5.7703,-5.8184,-5.8723,-5.9781,-6.055,-6.0492,-6.0185,-5.9242,-5.7761,-5.5953,-5.4876,-5.3472,-5.2068,-5.1664,-5.1203,-5.0818,-5.1607,-5.2377,-5.3761,-5.539,-5.7114,-5.8713,-6.0319,-6.1314,-6.1341,-6.125,-6.113,-6.0959,-6.0646,-6.0002,-5.928,-5.9261,-5.9436,-5.2772,-5.3601,-5.3685,-5.411,-5.4762,-5.5364,-5.5954,-5.6474,-5.6966,-5.6949,-5.6514,-5.6205,-5.5124,-5.344,-5.1864,-5.1049,-5.0705,-5.0615,-5.0615,-5.0959,-5.2172,-5.3204,-5.3675,-5.4381,-5.5015,-5.4635,-5.4345,-5.3802,-5.3367,-5.3403,-5.3277,-5.2599,-5.2209,-5.2236,-5.2007,-5.1491,-5.1024,-4.9901,-4.7815,-4.5115,-4.3208,-4.246,-4.2878,-4.4449,-4.6411,-4.8912,-5.1237,-5.2258,-5.3301,-5.4302,-5.4692,-5.4749,-5.4648,-5.4519,-5.4476,-5.4412,-5.4371,-5.442,-5.4495,-5.4518,-5.5409,-5.6432,-5.7125,-5.7827,-5.9213,-5.9925,-6.0246,-6.0546,-6.0181,-5.9854,-5.954,-5.9175,-5.8789,-5.8212,-5.7403,-5.6631,-5.5899,-5.5628,-5.5107,-5.4972,-5.5049,-5.6549,-5.7838,-5.8338,-5.9011,-6.0108,-6.0685,-6.0666,-6.0377,-5.9762,-5.803,-5.5992,-5.5184,-5.4434,-5.2972,-5.1952,-5.1395,-5.1241,-5.2203,-5.2972,-5.3771,-5.5238,-5.695,-5.8336,-5.9611,-6.0391,-6.0848,-6.1256,-6.1403,-6.1427,-6.1447,-6.0822,-6.0276,-6.0432,-6.0217,-5.1352,-5.2401,-5.279,-5.3239,-5.3863,-5.446,-5.5014,-5.5649,-5.6399,-5.6292,-5.5698,-5.519,-5.382,-5.21,-5.1013,-5.0253,-4.9818,-4.98,-4.98,-5.0325,-5.1303,-5.2263,-5.2832,-5.3682,-5.4019,-5.361,-5.3483,-5.3038,-5.2839,-5.2857,-5.2911,-5.2462,-5.1846,-5.159,-5.1268,-5.0286,-4.9152,-4.7535,-4.5106,-4.3061,-4.1908,-4.2152,-4.3034,-4.4418,-4.6153,-4.8445,-5.1181,-5.1825,-5.2694,-5.41,-5.4571,-5.4571,-5.4406,-5.4086,-5.3893,-5.3788,-5.368,-5.368,-5.3884,-5.42,-5.5096,-5.6029,-5.7076,-5.7845,-5.915,-5.9658,-5.9918,-6.0256,-6.0005,-5.9607,-5.9115,-5.8585,-5.805,-5.755,-5.6915,-5.6242,-5.5684,-5.553,-5.5299,-5.503,-5.5395,-5.6703,-5.78,-5.8396,-5.9261,-6.0416,-6.08,-6.08,-6.0512,-6.0127,-5.8992,-5.7184,-5.6896,-5.6069,-5.4318,-5.3031,-5.2204,-5.1567,-5.2509,-5.3078,-5.3553,-5.4945,-5.6745,-5.7965,-5.8921,-5.9846,-6.0534,-6.1149,-6.1701,-6.1642,-6.1583,-6.1642,-6.1486,-6.1486,-6.0607,-4.9204,-4.9424,-5.0777,-5.1511,-5.197,-5.2511,-5.3096,-5.383,-5.4991,-5.523,-5.4641,-5.3403,-5.1991,-5.0452,-4.9691,-4.9238,-4.8985,-4.8985,-4.897,-4.9477,-5.0435,-5.1501,-5.2116,-5.2532,-5.3049,-5.3243,-5.2906,-5.2462,-5.2234,-5.2324,-5.2437,-5.2325,-5.1475,-5.1035,-5.0341,-4.9166,-4.7003,-4.537,-4.336,-4.2108,-4.1558,-4.196,-4.3285,-4.4419,-4.6419,-4.8837,-5.1311,-5.1596,-5.2416,-5.4123,-5.4375,-5.4382,-5.4176,-5.3725,-5.3418,-5.3142,-5.3032,-5.294,-5.2977,-5.3665,-5.4503,-5.5567,-5.6724,-5.7959,-5.8896,-5.9306,-5.9624,-5.9931,-5.9729,-5.9289,-5.8725,-5.8093,-5.7443,-5.6739,-5.6165,-5.5549,-5.528,-5.5607,-5.5376,-5.5049,-5.5742,-5.7069,-5.8107,-5.8781,-5.9454,-6.0569,-6.0781,-6.08,-6.08,-6.0454,-6.005,-5.9146,-5.9031,-5.7973,-5.5953,-5.457,-5.3031,-5.2067,-5.2232,-5.2535,-5.2758,-5.4458,-5.6124,-5.7061,-5.7921,-5.909,-6.0271,-6.1017,-6.1564,-6.1661,-6.1701,-6.1701,-6.1232,-6.0744,-5.9749,-4.7554,-4.7545,-4.8118,-4.9046,-5.0247,-5.0583,-5.1228,-5.2239,-5.3636,-5.4166,-5.3839,-5.2304,-5.0507,-4.9086,-4.8949,-4.8605,-4.8182,-4.8067,-4.8294,-4.8901,-4.9839,-5.0488,-5.103,-5.1806,-5.2426,-5.2624,-5.2324,-5.215,-5.2102,-5.2084,-5.215,-5.1903,-5.0966,-5.0498,-4.9622,-4.8225,-4.5882,-4.3975,-4.2724,-4.1711,-4.0956,-4.1917,-4.326,-4.4209,-4.6448,-4.8915,-5.1052,-5.1448,-5.2585,-5.3646,-5.4146,-5.4177,-5.4096,-5.3643,-5.3216,-5.2752,-5.2587,-5.2345,-5.2252,-5.3107,-5.4241,-5.5246,-5.6606,-5.7819,-5.8349,-5.8745,-5.9196,-5.9389,-5.9425,-5.8978,-5.8188,-5.755,-5.6917,-5.6063,-5.5491,-5.5049,-5.4857,-5.5261,-5.5261,-5.4876,-5.603,-5.7453,-5.8396,-5.9261,-5.9935,-6.0627,-6.0723,-6.08,-6.08,-6.0762,-6.0339,-6.0031,-5.9819,-5.9438,-5.7555,-5.5649,-5.3743,-5.2875,-5.2144,-5.233,-5.2636,-5.3399,-5.4904,-5.5873,-5.706,-5.8358,-5.9631,-6.0842,-6.1447,-6.1642,-6.1701,-6.1701,-6.1037,-6.0237,-5.9104,-4.5934,-4.5799,-4.5757,-4.6776,-4.8344,-4.8618,-4.9365,-5.0553,-5.2034,-5.2729,-5.2546,-5.0973,-4.9388,-4.815,-4.8121,-4.8193,-4.7759,-4.7662,-4.789,-4.8451,-4.9145,-4.9631,-5.0297,-5.116,-5.2186,-5.2168,-5.2102,-5.2054,-5.1938,-5.1987,-5.179,-5.1203,-5.0354,-4.9855,-4.9289,-4.7585,-4.5185,-4.3104,-4.2212,-4.1141,-4.0073,-4.1841,-4.3256,-4.4413,-4.6661,-4.9105,-5.0834,-5.1543,-5.2345,-5.3423,-5.4019,-5.3981,-5.3907,-5.3702,-5.3274,-5.2809,-5.238,-5.199,-5.1955,-5.2587,-5.3924,-5.5001,-5.6209,-5.71,-5.768,-5.8399,-5.9083,-5.927,-5.9095,-5.8722,-5.8157,-5.7998,-5.7335,-5.6701,-5.6338,-5.5857,-5.5011,-5.4953,-5.4876,-5.4741,-5.6165,-5.7511,-5.855,-5.9435,-6.0185,-6.0685,-6.0742,-6.08,-6.08,-6.0742,-6.0589,-6.0319,-6.0127,-5.9669,-5.904,-5.6977,-5.4937,-5.3314,-5.2728,-5.2608,-5.2913,-5.3401,-5.3858,-5.4875,-5.6172,-5.7641,-5.9143,-6.0607,-6.1291,-6.1681,-6.1701,-6.1701,-6.1213,-6.0373,-5.9085,-4.4214,-4.4147,-4.4056,-4.495,-4.6351,-4.6743,-4.7403,-4.8515,-4.9997,-5.0803,-5.0725,-4.9395,-4.8237,-4.7471,-4.754,-4.7547,-4.7439,-4.7396,-4.7515,-4.7867,-4.8802,-4.9385,-5.0103,-5.0964,-5.1843,-5.1907,-5.1907,-5.1858,-5.1758,-5.179,-5.1383,-5.0597,-4.9824,-4.912,-4.9184,-4.7088,-4.4371,-4.1898,-4.1733,-4.0691,-4.0263,-4.2158,-4.3535,-4.4831,-4.7077,-4.952,-5.0722,-5.1396,-5.2197,-5.3311,-5.3813,-5.387,-5.3813,-5.3293,-5.2903,-5.2642,-5.1989,-5.1599,-5.1546,-5.2234,-5.3311,-5.461,-5.5763,-5.6503,-5.7412,-5.8285,-5.9045,-5.9177,-5.9492,-5.9456,-5.9264,-5.9,-5.8083,-5.7409,-5.7049,-5.6357,-5.5491,-5.4991,-5.4991,-5.4914,-5.6049,-5.7376,-5.8511,-5.9531,-6.0358,-6.0781,-6.0781,-6.08,-6.08,-6.0762,-6.0666,-6.0589,-6.0396,-6.0265,-5.9634,-5.8014,-5.6171,-5.4394,-5.3088,-5.2698,-5.2475,-5.2577,-5.3181,-5.4021,-5.5591,-5.7367,-5.8968,-6.0529,-6.1134,-6.1701,-6.1701,-6.1603,-6.1174,-6.0471,-5.9183,-4.4056,-4.3956,-4.3898,-4.4105,-4.4521,-4.464,-4.526,-4.6422,-4.8066,-4.927,-4.9591,-4.8783,-4.7626,-4.7032,-4.7111,-4.7191,-4.6855,-4.7204,-4.7267,-4.7481,-4.8388,-4.8987,-4.9704,-5.0498,-5.1357,-5.175,-5.1808,-5.174,-5.169,-5.1619,-5.1191,-5.0441,-4.9103,-4.8043,-4.7329,-4.623,-4.5293,-4.3281,-4.2835,-4.2436,-4.1596,-4.3123,-4.4542,-4.5234,-4.7568,-4.9392,-5.0573,-5.1025,-5.1918,-5.2975,-5.3385,-5.3738,-5.3775,-5.3348,-5.3125,-5.2791,-5.2196,-5.2215,-5.2048,-5.2271,-5.2568,-5.3905,-5.5057,-5.5872,-5.6651,-5.7614,-5.8427,-5.9176,-5.9605,-5.9532,-5.9169,-5.9216,-5.8596,-5.7966,-5.7415,-5.6549,-5.5799,-5.5607,-5.5472,-5.5299,-5.5915,-5.7492,-5.8781,-5.9723,-6.055,-6.08,-6.08,-6.08,-6.08,-6.08,-6.0742,-6.0742,-6.0685,-6.0727,-6.0134,-5.8322,-5.6171,-5.3992,-5.2806,-5.2195,-5.2028,-5.2024,-5.2785,-5.3777,-5.5445,-5.7133,-5.9046,-6.0686,-6.1291,-6.1701,-6.1701,-6.1701,-6.1466,-6.0588,-5.93,-4.3864,-4.3763,-4.378,-4.3704,-4.3628,-4.3645,-4.4281,-4.5648,-4.7017,-4.8075,-4.8592,-4.8097,-4.7384,-4.6846,-4.6908,-4.7132,-4.6679,-4.698,-4.7241,-4.7357,-4.7911,-4.8697,-4.9418,-5.0133,-5.1044,-5.1576,-5.174,-5.169,-5.1654,-5.1405,-5.062,-4.9495,-4.8443,-4.7461,-4.673,-4.6516,-4.5945,-4.4328,-4.3769,-4.3368,-4.3084,-4.3844,-4.5039,-4.6012,-4.7518,-4.912,-4.993,-5.0728,-5.1473,-5.2382,-5.3031,-5.3553,-5.3683,-5.372,-5.3515,-5.3125,-5.2698,-5.2642,-5.2419,-5.2252,-5.2735,-5.3757,-5.4537,-5.5076,-5.5782,-5.6928,-5.8016,-5.8815,-5.9465,-5.9714,-5.9588,-5.9652,-5.935,-5.8739,-5.8204,-5.7357,-5.6511,-5.6299,-5.5876,-5.5684,-5.5742,-5.7376,-5.8896,-5.9896,-6.0762,-6.08,-6.08,-6.08,-6.08,-6.08,-6.08,-6.08,-6.0781,-6.0785,-6.0019,-5.8418,-5.6172,-5.3666,-5.274,-5.2117,-5.1858,-5.1927,-5.2733,-5.3688,-5.546,-5.7343,-5.9456,-6.0881,-6.1427,-6.1681,-6.1701,-6.1701,-6.1681,-6.0588,-5.9222,-4.3595,-4.3595,-4.3611,-4.3645,-4.3645,-4.3645,-4.4524,-4.5994,-4.6455,-4.7055,-4.7687,-4.7122,-4.687,-4.7025,-4.7133,-4.7143,-4.7115,-4.716,-4.7178,-4.734,-4.775,-4.849,-4.9139,-4.9852,-5.0423,-5.1137,-5.1387,-5.1066,-5.1405,-5.0602,-4.9495,-4.8532,-4.7693,-4.7069,-4.6908,-4.673,-4.6159,-4.5267,-4.4686,-4.4264,-4.4073,-4.4489,-4.5381,-4.6345,-4.7514,-4.8698,-4.9507,-5.0098,-5.1101,-5.1937,-5.2642,-5.3162,-5.3515,-5.3794,-5.3794,-5.3571,-5.3014,-5.2735,-5.2754,-5.2661,-5.2735,-5.3496,-5.437,-5.4388,-5.4893,-5.6276,-5.7469,-5.8499,-5.9267,-5.997,-6.0411,-6.0342,-6.0248,-5.9773,-5.9392,-5.8511,-5.7473,-5.6915,-5.6376,-5.6088,-5.5915,-5.6934,-5.8415,-5.9569,-6.0627,-6.08,-6.08,-6.08,-6.08,-6.08,-6.08,-6.08,-6.0804,-6.0785,-5.9826,-5.8597,-5.573,-5.3105,-5.292,-5.2424,-5.2115,-5.1882,-5.2543,-5.3663,-5.5558,-5.7558,-5.9749,-6.0939,-6.1486,-6.1603,-6.1232,-6.1486,-6.1408,-6.0256,-5.9046,-4.285,-4.2883,-4.3413,-4.3645,-4.3645,-4.3727,-4.4281,-4.498,-4.5318,-4.5891,-4.6667,-4.6552,-4.6655,-4.698,-4.7043,-4.7106,-4.7151,-4.7133,-4.7151,-4.7267,-4.7382,-4.79,-4.8371,-4.8907,-4.9406,-4.9834,-5.0084,-5.0191,-4.9888,-4.9281,-4.8889,-4.8157,-4.7354,-4.7069,-4.6998,-4.6998,-4.6587,-4.6212,-4.5677,-4.5374,-4.5265,-4.5695,-4.6278,-4.692,-4.739,-4.8327,-4.8825,-4.9488,-5.0453,-5.151,-5.2271,-5.2958,-5.372,-5.3813,-5.3794,-5.372,-5.3162,-5.2791,-5.3219,-5.294,-5.281,-5.3199,-5.3888,-5.4446,-5.4876,-5.5695,-5.699,-5.7945,-5.8832,-5.9499,-6.0125,-6.0263,-6.0292,-6.0123,-5.9781,-5.9204,-5.8204,-5.7473,-5.6876,-5.5838,-5.5684,-5.6415,-5.7896,-5.9396,-6.0339,-6.0627,-6.08,-6.08,-6.08,-6.08,-6.08,-6.08,-6.0804,-6.0808,-6.0198,-5.9104,-5.5692,-5.2891,-5.2779,-5.2516,-5.1913,-5.1833,-5.238,-5.3826,-5.5987,-5.8046,-6.0119,-6.0978,-6.1583,-6.0705,-6.0315,-6.0803,-6.092,-5.9749,-5.8929,-4.2535,-4.2634,-4.333,-4.3645,-4.3645,-4.3711,-4.3914,-4.4196,-4.4621,-4.5209,-4.5837,-4.6087,-4.635,-4.6637,-4.6731,-4.6795,-4.6934,-4.6934,-4.6998,-4.7043,-4.7043,-4.7632,-4.7943,-4.8211,-4.8764,-4.9049,-4.9299,-4.9513,-4.9049,-4.855,-4.8122,-4.764,-4.714,-4.7069,-4.6998,-4.6998,-4.6998,-4.6766,-4.6605,-4.6641,-4.6677,-4.665,-4.6998,-4.7191,-4.7402,-4.7453,-4.8071,-4.8753,-4.9379,-5.0916,-5.1918,-5.2679,-5.3478,-5.3813,-5.3813,-5.372,-5.3478,-5.3348,-5.3571,-5.3367,-5.3143,-5.3218,-5.3647,-5.4144,-5.4769,-5.5461,-5.6425,-5.7305,-5.812,-5.8917,-5.9528,-6.0046,-6.0142,-6.0242,-5.9973,-5.9704,-5.8915,-5.8088,-5.6934,-5.5645,-5.5626,-5.6203,-5.7396,-5.8934,-6.0012,-6.0185,-6.0512,-6.08,-6.08,-6.08,-6.08,-6.08,-6.0804,-6.0769,-6.0126,-5.9379,-5.6654,-5.4052,-5.2928,-5.2557,-5.1802,-5.1793,-5.2356,-5.4267,-5.6616,-5.8436,-6.0046,-6.1017,-6.1466,-6.0471,-5.9417,-5.93,-5.9475,-5.9163,-5.8577,-4.2419,-4.2485,-4.328,-4.3645,-4.3645,-4.3645,-4.3628,-4.3661,-4.4307,-4.4902,-4.53,-4.5563,-4.5837,-4.607,-4.6217,-4.6429,-4.659,-4.6684,-4.6842,-4.698,-4.6998,-4.7372,-4.7747,-4.8086,-4.8193,-4.8782,-4.8996,-4.8657,-4.8764,-4.8282,-4.7568,-4.7015,-4.7176,-4.7247,-4.7283,-4.7497,-4.7604,-4.7586,-4.7301,-4.7122,-4.6962,-4.6989,-4.6989,-4.6945,-4.65,-4.6083,-4.7098,-4.7591,-4.7698,-5.0007,-5.1491,-5.2271,-5.3274,-5.3608,-5.3627,-5.3478,-5.3199,-5.3292,-5.3366,-5.333,-5.3553,-5.3665,-5.3981,-5.4232,-5.4667,-5.5127,-5.5913,-5.6702,-5.755,-5.8202,-5.8827,-5.9258,-5.9473,-5.9623,-5.9585,-5.9435,-5.905,-5.7877,-5.628,-5.5203,-5.4876,-5.5511,-5.6434,-5.7934,-5.9396,-5.9646,-6.0242,-6.0704,-6.0723,-6.0723,-6.0689,-6.0708,-6.0831,-6.074,-6.0287,-5.9358,-5.7741,-5.571,-5.4006,-5.2822,-5.2251,-5.2216,-5.2331,-5.4273,-5.627,-5.8089,-5.9636,-6.0694,-6.1085,-6.0007,-5.8972,-5.7972,-5.7777,-5.8011,-5.8421,-4.1674,-4.1806,-4.3081,-4.3645,-4.3628,-4.3645,-4.3568,-4.3645,-4.3929,-4.4347,-4.4703,-4.4927,-4.5178,-4.5528,-4.5683,-4.5903,-4.6284,-4.6495,-4.6684,-4.6888,-4.6998,-4.7087,-4.7283,-4.7426,-4.7515,-4.7461,-4.7551,-4.7747,-4.7729,-4.7444,-4.7283,-4.7105,-4.7408,-4.7765,-4.7693,-4.8032,-4.8371,-4.8139,-4.78,-4.7354,-4.7033,-4.6998,-4.6989,-4.6847,-4.6413,-4.6584,-4.7296,-4.7498,-4.8772,-5.0768,-5.1249,-5.2289,-5.3664,-5.3181,-5.292,-5.279,-5.2437,-5.2586,-5.2883,-5.3107,-5.3274,-5.374,-5.4035,-5.4277,-5.4541,-5.4871,-5.5426,-5.6194,-5.6856,-5.7465,-5.7981,-5.8373,-5.8742,-5.8954,-5.9181,-5.9108,-5.8992,-5.7261,-5.5549,-5.4838,-5.4299,-5.4761,-5.5607,-5.6838,-5.8357,-5.9415,-6.0262,-6.0723,-6.0589,-6.0512,-6.0384,-6.0445,-6.08,-6.071,-6.0364,-5.9478,-5.7921,-5.6465,-5.4743,-5.3652,-5.2672,-5.2565,-5.2654,-5.3977,-5.5689,-5.7493,-5.9198,-6.0649,-6.0649,-5.9612,-5.8367,-5.7309,-5.6957,-5.7094,-5.7875,-4.1425,-4.1574,-4.2651,-4.3148,-4.3089,-4.3112,-4.3294,-4.3568,-4.3711,-4.3872,-4.4121,-4.439,-4.4708,-4.4964,-4.5178,-4.5546,-4.5988,-4.6235,-4.659,-4.6888,-4.6998,-4.6998,-4.6998,-4.6998,-4.7069,-4.6998,-4.6998,-4.7069,-4.6998,-4.7015,-4.7051,-4.714,-4.7729,-4.8086,-4.7925,-4.8371,-4.8728,-4.8211,-4.7925,-4.7461,-4.6998,-4.6998,-4.7043,-4.6901,-4.6539,-4.6783,-4.7201,-4.7424,-4.8439,-5.0155,-5.1026,-5.1918,-5.2735,-5.2457,-5.2104,-5.1992,-5.1844,-5.1732,-5.2271,-5.2624,-5.2884,-5.3498,-5.4108,-5.4352,-5.4542,-5.4865,-5.5252,-5.5938,-5.6055,-5.6575,-5.689,-5.7261,-5.7668,-5.7937,-5.8242,-5.8377,-5.728,-5.5607,-5.4203,-5.3222,-5.2895,-5.301,-5.3953,-5.5145,-5.6646,-5.805,-5.9088,-5.9742,-5.9781,-6.0031,-5.9961,-6.0046,-6.0322,-6.077,-6.0774,-5.9716,-5.8231,-5.6797,-5.5174,-5.4073,-5.296,-5.2801,-5.3049,-5.4088,-5.5306,-5.6864,-5.8528,-6.0078,-6.0293,-5.941,-5.7994,-5.6586,-5.6411,-5.6313,-5.6918,-4.1541,-4.1773,-4.2419,-4.2667,-4.2626,-4.269,-4.3053,-4.3519,-4.3645,-4.3645,-4.3704,-4.4064,-4.4276,-4.4446,-4.4742,-4.5213,-4.5684,-4.5988,-4.6447,-4.6888,-4.6998,-4.6998,-4.6998,-4.6998,-4.6998,-4.6998,-4.6998,-4.6998,-4.6998,-4.6998,-4.7051,-4.7194,-4.7568,-4.7961,-4.7622,-4.7925,-4.8514,-4.7961,-4.7533,-4.714,-4.6998,-4.6998,-4.7088,-4.6677,-4.609,-4.6194,-4.6906,-4.7277,-4.7679,-4.9245,-5.0914,-5.1806,-5.2029,-5.1844,-5.1361,-5.1138,-5.0879,-5.123,-5.1824,-5.1955,-5.2624,-5.3349,-5.3973,-5.4352,-5.4485,-5.4925,-5.5282,-5.5499,-5.5631,-5.5772,-5.6085,-5.6299,-5.6706,-5.711,-5.7456,-5.728,-5.5665,-5.4222,-5.3145,-5.2029,-5.1895,-5.1895,-5.2856,-5.401,-5.534,-5.6706,-5.7514,-5.7953,-5.8454,-5.888,-5.9075,-5.9279,-5.9573,-6.0067,-6.0842,-5.9522,-5.7936,-5.6305,-5.471,-5.3899,-5.3151,-5.2561,-5.2683,-5.3819,-5.5098,-5.6376,-5.7871,-5.9433,-5.9316,-5.9199,-5.7789,-5.6448,-5.5911,-5.5856,-5.6028,-4.2121,-4.323,-4.338,-4.3396,-4.3337,-4.337,-4.3469,-4.3568,-4.3645,-4.3645,-4.3562,-4.3671,-4.373,-4.3772,-4.4155,-4.4686,-4.539,-4.5768,-4.6332,-4.6888,-4.6934,-4.6998,-4.6998,-4.6998,-4.6998,-4.6998,-4.6998,-4.6998,-4.6998,-4.6998,-4.6998,-4.7051,-4.8461,-4.8675,-4.8264,-4.8693,-4.9156,-4.83,-4.7301,-4.6855,-4.689,-4.6954,-4.707,-4.6595,-4.593,-4.6631,-4.7153,-4.6765,-4.7937,-4.9447,-5.0765,-5.1565,-5.1695,-5.1193,-5.0526,-5.0266,-5.0006,-5.0244,-5.0689,-5.0932,-5.1602,-5.2865,-5.3433,-5.3968,-5.4334,-5.5033,-5.535,-5.5596,-5.5682,-5.5682,-5.5876,-5.5876,-5.6167,-5.6629,-5.7014,-5.5761,-5.4299,-5.3491,-5.2664,-5.1991,-5.1606,-5.2106,-5.2991,-5.4203,-5.5532,-5.6686,-5.7418,-5.7822,-5.7863,-5.8036,-5.8192,-5.8413,-5.8682,-5.9956,-6.0864,-5.8927,-5.7254,-5.564,-5.4192,-5.3225,-5.2429,-5.1843,-5.2253,-5.3623,-5.4548,-5.5631,-5.7168,-5.9199,-5.9199,-5.9004,-5.7637,-5.6444,-5.5742,-5.5338,-5.5436]}]]